     2              OBSERVATION DATA    G (GPS)             RINEX VERSION / TYPE
TRRINEXO V2.3.4 LH UCLA / SCEC 02-AUG-94 16:07              PGM / RUN BY / DATE
DONATED TO SCEC ARCHIVE BY: NATIONAL GEODETIC SURVEY        COMMENT
PROJECT NAME: NGS hpgn 1993-1994                            COMMENT
ARCHIVED BY: SOUTHERN CALIFORNIA EARTHQUAKE CENTER (SCEC)   COMMENT
ANTENNA DELTA H: DIRECT HEIGHT TO PRE-AMP BASE (DHPAB)      COMMENT
NOTE:                                                       COMMENT
PROBLEM: NONE                                               COMMENT
FOR FURTHER INFORMATION CONTACT: DAVE JACKSON               COMMENT
UCLA / GEOLOGY BLDG., 595 CIRCLE DR E. RM 3806              COMMENT
LOS ANGELES CA 90024 DJACKSON@CYCLOP.ESS.UCLA.EDU           COMMENT
BIT 2 OF LLI (+4) FLAGS DATA COLLECTED UNDER "AS" CONDITION COMMENT
0160                                                        MARKER NAME
S. QUEZADA L.A. CO.                                         OBSERVER / AGENCY
1962 TRIMBLE 4000 SST 4.53                                  REC # / TYPE / VERS
430 TRIMBLE 4000 SST                                        ANT # / TYPE
 -2499179.0000 -4660354.0000  3554344.0000                  APPROX POSITION XYZ
        1.7219        0.0000        0.0000                  ANTENNA: DELTA H/E/N
     1     2                                                WAVELENGTH FACT L1/2
     3    C1    L1    L2                                    # / TYPES OF OBSERV
    30                                                      INTERVAL
  1992     4    22    18    50   30.000000                  TIME OF FIRST OBS
                                                            END OF HEADER
 92  4 22 18 50 30.0000000  0  3 11 19  2
  24180957.242          -0.11015
  21052519.094          -0.69217
  24088829.055          -0.71115
 92  4 22 18 51  0.0000000  0  5 18 11 19  2  6
  20451180.367        7133.222 8        -0.40619
  24166947.648      -73637.591 5
  21049179.570      -17625.709 6        -0.06519
  24070334.047      -97237.094 5
  24628688.250      -35977.62413
 92  4 22 18 51 30.0000000  0  5 18 11 19  2  6
  20452603.875       14604.973 8      5821.693 9
  24152971.070     -147095.999 5    -28601.94219
  21045816.047      -35210.186 7    -13702.265 9
  24051830.445     -194437.142 5    -37866.31519
  24614998.250     -107930.563 3    -28033.81419
 92  4 22 18 52  0.0000000  0  5 18 11 19  2  6
  20454089.555       22415.636 8     11907.871 9
  24139017.953     -220373.554 5    -85701.115 9
  21042479.586      -52766.074 6    -27382.193 9
  24033346.641     -291606.779 5   -113582.754 9
  24601303.438     -179893.296 4    -84108.617 9
 92  4 22 18 52 30.0000000  0  5 18 11 19  2  6
  20455640.359       30561.616 8     18255.341 9
  24125108.539     -293471.523 5   -142660.374 9
  21039141.289      -70298.414 6    -41043.782 9
  24014850.656     -388770.777 5   -189294.790 9
  24587606.672     -251870.678 3   -140194.813 9
 92  4 22 18 53  0.0000000  0  5 18 11 19  2  6
  20457261.086       39074.478 8     24888.686 9
  24111244.445     -366365.510 5   -199460.666 9
  21035814.016      -87778.225 7    -54664.432 9
  23996374.352     -485893.125 5   -264974.365 9
  24573919.266     -323841.677 3   -196276.019 9
 92  4 22 18 53 30.0000000  0  5 18 11 19  2  6
  20458947.867       47939.873 8     31796.737 9
  24097402.500     -439068.211 5   -256111.922 9
  21032499.383     -105212.653 6    -68249.720 9
  23977898.508     -582955.122 5   -340606.939 9
  24560216.031     -395822.609 3   -252364.964 9
 92  4 22 18 54  0.0000000  0  5 18 11 19  2  6
  20460706.023       57182.646 8     38998.843 9
  24083611.875     -511560.624 5   -312599.324 9
  21029196.117     -122572.921 6    -81777.234 9
  23959452.758     -679928.871 5   -416170.718 9
  24546517.695     -467798.211 4   -308449.812 9
 92  4 22 18 54 30.0000000  0  6 18 11 19  2  6 16
  20462528.172       66774.670 8     46473.093 9
  24069846.742     -583853.129 5   -368930.960 9
  21025904.680     -139867.644 7    -95253.658 9
  23941010.063     -776813.689 5   -491665.211 9
  24532823.813     -539782.453 4   -364541.341 9
  24639176.305      -35325.38313
 92  4 22 18 55  0.0000000  0  6 18 11 19  2  6 16
  20464420.000       76707.296 8     54212.747 9
  24056126.633     -655936.030 5   -425099.229 9
  21022627.023     -157083.691 6   -108668.781 9
  23922591.273     -873591.934 5   -567076.659 9
  24519141.344     -611769.065 4   -420634.795 9
  24625777.531     -105733.724 3
 92  4 22 18 55 30.0000000  0  6 18 11 19  2  6 16
  20466378.852       86990.233 8     62225.372 9
  24042464.266     -727799.182 5   -481096.339 9
  21019371.938     -174224.722 6   -122025.449 9
  23904202.688     -970274.067 5   -642413.208 9
  24505427.438     -683751.525 3   -476724.933 9
  24612444.523     -175817.820 2    -27273.00311
 92  4 22 18 56  0.0000000  0  5 18 11 19  2  6
  20468405.656       97630.498 8     70516.429 9
  24028826.313     -799436.652 5   -536917.535 9
  21016127.438     -191305.890 6   -135335.480 9
  23885817.688    -1066866.417 5   -717679.825 9
  24491725.234     -755727.493 3   -532810.062 9
 92  4 22 18 56 30.0000000  0  5 18 11 19  2  6
  20470494.492      108620.432 8     79079.964 9
  24015239.945     -870846.034 5   -592561.024 9
  21012874.984     -208330.973 7   -148601.793 9
  23867454.867    -1163374.590 5   -792880.844 9
  24478032.516     -827698.159 2   -588891.012 9
 92  4 22 18 57  0.0000000  0  5 18 11 19  2  6
  20472658.500      119994.940 8     87943.159 9
  24001702.727     -942021.673 5   -648022.385 9
  21009643.289     -225291.943 7   -161818.161 9
  23849099.805    -1259809.173 5   -868024.517 9
  24464330.359     -899661.325 3   -644966.115 9
 92  4 22 18 57 30.0000000  0  5 18 11 19  2  6
  20474899.484      131771.448 8     97119.601 9
  23988195.680    -1012954.078 5   -703294.203 9
  21006431.781     -242183.119 6   -174980.140 9
  23830765.203    -1356163.985 5   -943106.036 9
  24450649.859     -971610.864 3   -701030.605 9
 92  4 22 18 58  0.0000000  0  5 18 11 19  2  6
  20477215.781      143936.571 8    106598.857 9
  23974750.758    -1083640.572 5   -758374.411 9
  21003235.078     -258993.313 6   -188079.014 9
  23812444.484    -1452443.487 5  -1018128.882 9
  24436960.641    -1043547.979 3   -757085.451 9
 92  4 22 18 58 30.0000000  0  5 18 11 19  2  6
  20479604.305      156490.957 8    116381.433 9
  23961338.180    -1154080.642 5   -813262.586 9
  21000051.813     -275717.863 7   -201111.152 9
  23794130.852    -1548653.858 5  -1093097.860 9
  24423275.883    -1115475.660 3   -813132.914 9
 92  4 22 18 59  0.0000000  0  5 18 11 19  2  6
  20482067.945      169433.467 8    126466.445 9
  23947986.211    -1224268.738 5   -867954.433 9
  20996883.367     -292364.934 7   -214082.921 9
  23775838.305    -1644784.037 5  -1168004.349 9
  24409586.578    -1187391.785 2   -869171.397 9
 92  4 22 18 59 30.0000000  0  5 18 11 19  2  6
  20484600.000      182731.644 8    136828.596 9
  23934670.969    -1294200.406 5   -922446.458 9
  20993737.578     -308945.359 6   -227002.748 9
  23757566.680    -1740826.222 5  -1242842.297 9
  24395905.414    -1259295.315 3   -925200.037 9
 92  4 22 19  0  0.0000000  0  5 18 11 19  2  6
  20487199.758      196408.972 8    147486.189 9
  23921427.305    -1363855.941 5   -976723.326 9
  20990587.563     -325448.272 6   -239862.177 9
  23739315.016    -1836752.381 5  -1317589.801 9
  24382225.664    -1331170.205 3   -981206.379 9
 92  4 22 19  0 30.0000000  0  5 18 11 19  2  6
  20489873.906      210461.043 8    158435.797 9
  23908216.539    -1433244.279 5  -1030791.987 9
  20987461.281     -341887.217 6   -252671.762 9
  23721079.289    -1932545.857 5  -1392233.918 9
  24368549.211    -1403028.890 4  -1037200.088 9
 92  4 22 19  1  0.0000000  0  5 18 11 19  2  6
  20492619.570      224885.452 8    169675.529 9
  23895060.422    -1502361.922 5  -1084649.741 9
  20984348.711     -358256.637 6   -265427.178 9
  23702875.734    -2028203.482 5  -1466772.169 9
  24354876.109    -1474871.096 3  -1093180.974 9
 92  4 22 19  1 30.0000000  0  5 18 11 19  2  6
  20495438.984      239700.332 8    181219.517 9
  23881966.094    -1571200.708 5  -1138290.178 9
  20981259.500     -374542.934 6   -278117.820 9
  23684702.797    -2123723.322 6  -1541203.074 9
  24341213.055    -1546692.443 3  -1149145.596 9
 92  4 22 19  2  0.0000000  0  5 18 11 19  2  6
  20498332.828      254914.678 8    193074.778 9
  23868915.781    -1639762.234 5  -1191714.587 9
  20978160.266     -390741.787 7   -290740.315 9
  23666548.945    -2219113.553 6  -1615532.976 9
  24327550.500    -1618497.942 3  -1205097.855 9
 92  4 22 19  2 30.0000000  0  5 18 11 19  2  6
  20501304.117      270526.610 8    205239.856 9
  23855927.734    -1708039.075 5  -1244917.168 9
  20975100.758     -406853.599 6   -303295.003 9
  23648415.359    -2314377.111 5  -1689764.178 9
  24313882.781    -1690283.534 4  -1261034.597 9
 92  4 22 19  3  0.0000000  0  5 18 11 19  2  6
  20504351.484      286535.323 8    217714.120 9
  23842981.688    -1776024.536 5  -1297892.685 9
  20972048.305     -422886.011 6   -315787.807 9
  23630313.398    -2409538.275 5  -1763915.588 9
  24300231.891    -1762046.101 4  -1316953.427 9
 92  4 22 19  3 30.0000000  0  5 18 11 19  2  6
  20507470.922      302921.219 8    230482.278 9
  23830102.734    -1843720.850 5  -1350642.910 9
  20969023.945     -438849.914 6   -328227.237 9
  23612225.164    -2504602.261 5  -1837991.287 9
  24286579.898    -1833791.394 3  -1372858.748 9
 92  4 22 19  4  0.0000000  0  6 18 11 19  2  6 16
  20510659.031      319675.692 8    243537.649 9
  23817280.672    -1911118.528 5  -1403160.445 9
  20965985.812     -454741.123 6   -340610.013 9
  23594159.266    -2599552.636 5  -1911978.463 9
  24272928.367    -1905513.331 3  -1428745.893 9
  24395438.875      -64247.616 5
 92  4 22 19  4 30.0000000  0  6 18 11 19  2  6 16
  20513915.711      336788.366 8    256872.138 9
  23804512.234    -1978218.713 5  -1455446.156 9
  20962975.234     -470566.115 6   -352941.202 9
  23576106.445    -2694390.222 5  -1985877.741 9
  24259291.742    -1977216.355 4  -1484618.293 9
  24383280.523     -128120.605 5    -24847.41619
 92  4 22 19  5  0.0000000  0  6 18 11 19  2  6 16
  20517237.445      354264.007 8    270489.463 9
  23791802.188    -2045010.418 5  -1507491.510 9
  20959981.711     -486294.308 6   -365196.955 9
  23558081.523    -2789108.181 5  -2059683.823 9
  24245656.563    -2048892.839 3  -1540470.009 9
  24371204.398     -191600.722 5    -74312.407 9
 92  4 22 19  5 30.0000000  0  6 18 11 19  2  6 16
  20520634.477      372113.428 7    284398.049 9
  23779155.422    -2111493.890 6  -1559296.686 9
  20957007.766     -501915.350 6   -377369.215 9
  23540078.867    -2883690.833 5  -2133384.455 9
  24232015.820    -2120546.490 4  -1596303.921 9
  24359198.773     -254684.045 5   -123468.223 9
 92  4 22 19  6  0.0000000  0  6 18 11 19  2  6 16
  20524110.695      390368.944 8    298623.048 9
  23766559.414    -2177662.722 5  -1610856.677 9
  20954058.805     -517423.748 6   -389453.702 9
  23522113.102    -2978129.522 5  -2206972.906 9
  24218374.969    -2192174.354 4  -1652117.806 9
  24347267.328     -317383.003 5   -172324.532 9
 92  4 22 19  6 30.0000000  0  6 18 11 19  2  6 16
  20527664.961      409042.422 8    313173.728 9
  23754035.938    -2243515.715 6  -1662170.572 9
  20951130.320     -532817.404 6   -401448.780 9
  23504173.328    -3072425.454 6  -2280450.114 9
  24204764.844    -2263778.697 3  -1707913.316 9
  24335406.813     -379700.775 4   -220883.789 9
 92  4 22 19  7  0.0000000  0  6 18 11 19  2  6 16
  20531299.984      428148.687 8    328061.669 9
  23741558.813    -2309046.043 5  -1713233.040 9
  20948225.883     -548090.342 6   -413349.797 9
  23486257.711    -3166566.763 6  -2353806.843 9
  24191137.352    -2335355.966 3  -1763687.731 9
  24323618.008     -441638.397 5   -269146.873 9
 92  4 22 19  7 30.0000000  0  6 18 11 19  2  6 16
  20535021.672      447699.031 8    343295.641 9
  23729146.234    -2374243.798 5  -1764036.391 9
  20945338.188     -563253.711 6   -425165.431 9
  23468370.352    -3260543.852 6  -2427035.602 9
  24177519.063    -2406899.749 3  -1819436.020 9
  24311907.695     -503203.494 5   -317119.653 9
 92  4 22 19  8  0.0000000  0  6 18 11 19  2  6 16
  20538817.695      467656.660 8    358846.966 9
  23716805.508    -2439117.725 5  -1814587.390 9
  20942477.539     -578319.499 6   -436905.026 9
  23450510.547    -3354370.122 5  -2500146.843 9
  24163903.961    -2478421.881 3  -1875167.498 9
  24300261.023     -564408.530 4   -364811.822 9
 92  4 22 19  8 30.0000000  0  6 18 11 19  2  6 16
  20542692.766      488013.085 8    374709.039 9
  23704521.789    -2503649.431 5  -1864871.733 9
  20939635.461     -593277.921 6   -448560.965 9
  23432687.367    -3448047.334 5  -2573141.992 9
  24150308.445    -2549907.630 3  -1930870.608 9
  24288687.047     -625230.324 5   -412205.399 9
 92  4 22 19  9  0.0000000  0  6 18 11 19  2  6 16
  20546638.539      508757.634 8    390873.549 9
  23692309.797    -2567838.599 6  -1914889.168 9
  20936792.492     -608137.172 6   -460139.622 9
  23414885.781    -3541591.162 5  -2646033.173 9
  24136705.320    -2621359.771 3  -1986547.525 9
  24277184.398     -685672.128 5   -459302.907 9
 92  4 22 19  9 30.0000000  0  6 18 11 19  2  6 16
  20550657.367      529880.376 7    407332.757 9
  23680153.680    -2631683.258 5  -1964638.148 9
  20933981.813     -622901.383 7   -471644.230 9
  23397111.563    -3635006.388 6  -2718824.144 9
  24123116.742    -2692779.841 4  -2042199.434 9
  24265757.883     -745717.943 5   -506091.868 9
 92  4 22 19 10  0.0000000  0  6 18 11 19  2  6 16
  20554753.008      551392.157 7    424095.107 9
  23668082.609    -2695176.962 5  -2014113.665 9
  20931192.625     -637575.096 6   -483078.318 9
  23379361.008    -3728294.278 6  -2791515.901 9
  24109532.391    -2764164.495 4  -2097823.821 9
  24254409.594     -805348.294 5   -552557.065 9
 92  4 22 19 10 30.0000000  0  6 18 11 19  2  6 16
  20558927.516      573319.736 8    441181.464 9
  23656065.391    -2758314.931 5  -2063311.988 9
  20928417.500     -652165.679 6   -494447.630 9
  23361633.664    -3821450.189 6  -2864104.806 9
  24095954.125    -2835512.338 4  -2153419.468 9
  24243143.867     -864555.349 5   -598692.398 9
 92  4 22 19 11  0.0000000  0  6 18 11 19  2  6 16
  20563181.680      595681.235 8    458605.948 9
  23644120.703    -2821092.112 6  -2112229.181 9
  20925657.828     -666662.485 6   -505743.871 9
  23343938.836    -3914442.466 6  -2936566.206 9
  24082387.398    -2906821.586 5  -2208985.057 9
  24231958.453     -923330.285 5   -644491.033 9
 92  4 22 19 11 30.0000000  0  6 18 11 19  2  6 16
  20567518.555      618487.438 7    476376.942 9
  23632233.797    -2883504.830 5  -2160862.368 9
  20922914.305     -681069.686 6   -516970.294 9
  23326272.664    -4007264.960 6  -3008895.311 9
  24068829.188    -2978091.871 5  -2264520.235 9
  24220858.828     -981668.475 5   -689949.353 9
 92  4 22 19 12  0.0000000  0  6 18 11 19  2  6 16
  20571945.094      641750.167 7    494503.670 9
  23620428.977    -2945544.701 6  -2209205.041 9
  20920202.977     -695378.811 6   -528120.293 9
  23308644.422    -4099909.289 6  -3081085.579 9
  24055272.297    -3049317.827 5  -2320020.932 9
  24209840.813    -1039579.848 5   -735075.063 9
 92  4 22 19 12 30.0000000  0  6 18 11 19  2  6 16
  20576459.750      665464.417 7    512982.233 9
  23608700.078    -3007203.518 6  -2257250.783 9
  20917492.742     -709568.569 6   -539177.248 9
  23291052.539    -4192353.245 6  -3153119.709 9
  24041724.258    -3120494.766 5  -2375483.409 9
  24198902.102    -1097060.618 5   -779865.270 9
 92  4 22 19 13  0.0000000  0  6 18 11 19  2  6 16
  20581052.523      689613.505 7    531799.625 9
  23597036.578    -3068487.274 6  -2305004.285 9
  20914818.406     -723636.574 6   -550139.359 9
  23273500.281    -4284608.793 5  -3225007.046 9
  24028192.680    -3191631.610 5  -2430914.643 9
  24188041.406    -1154110.943 4   -824320.029 9
 92  4 22 19 13 30.0000000  0  6 18 11 19  2  6 16
  20585730.789      714188.262 7    550948.710 9
  23585454.547    -3129384.143 6  -2352456.304 9
  20912166.875     -737576.643 6   -561001.773 9
  23255970.734    -4376687.144 5  -3296756.288 9
  24014665.336    -3262720.145 5  -2486308.216 9
  24177273.805    -1210719.729 5   -868430.789 9
 92  4 22 19 14  0.0000000  0  6 18 11 19  2  6 16
  20590484.211      739167.367 7    570412.873 9
  23573925.727    -3189902.407 6  -2399613.320 9
  20909549.070     -751393.424 6   -571768.123 9
  23238484.016    -4468590.501 5  -3368369.212 9
  24001142.703    -3333771.484 5  -2541672.845 9
  24166577.398    -1266897.620 5   -912205.760 9
 92  4 22 19 14 30.0000000  0  6 18 11 19  2  6 16
  20595318.516      764557.236 7    590197.116 9
  23562488.781    -3250031.602 6  -2446467.150 9
  20906927.602     -765081.765 6   -582434.381 9
  23221033.281    -4560310.638 6  -3439839.355 9
  23987625.648    -3404778.553 5  -2597002.946 9
  24155976.578    -1322627.938 5   -955631.983 9
 92  4 22 19 15  0.0000000  0  6 18 11 19  2  6 16
  20600227.297      790361.529 7    610304.285 9
  23551119.453    -3309762.797 5  -2493010.868 9
  20904354.797     -778638.799 6   -592998.330 9
  23203611.750    -4651855.857 6  -3511173.204 9
  23974123.945    -3475735.303 5  -2652293.903 9
  24145453.297    -1377905.465 4   -998705.365 9
 92  4 22 19 15 30.0000000  0  6 18 11 19  2  6 16
  20605216.133      816572.544 7    630728.368 9
  23539828.766    -3369098.819 6  -2539246.670 9
  20901795.570     -792078.683 6   -603470.984 9
  23186221.211    -4743227.356 6  -3582371.684 9
  23960629.211    -3546648.072 5  -2707550.526 9
  24135008.680    -1432749.478 3  -1041440.917 9
 92  4 22 19 16  0.0000000  0  6 18 11 19  2  6 16
  20610281.203      843194.930 7    651473.011 9
  23528610.922    -3428046.204 6  -2585179.615 9
  20899269.391     -805408.434 6   -613857.832 9
  23168871.844    -4834420.902 6  -3653431.507 9
  23947143.523    -3617526.352 5  -2762780.288 9
  24124668.766    -1487176.228 4  -1083851.364 9
 92  4 22 19 16 30.0000000  0  6 18 11 19  2  6 16
  20615425.750      870227.994 7    672537.667 9
  23517478.719    -3486600.597 6  -2630806.349 9
  20896744.055     -818620.400 6   -624152.894 9
  23151552.367    -4925438.979 6  -3724354.585 9
  23933662.602    -3688368.889 4  -2817982.195 9
  24114389.516    -1541183.658 3  -1125935.105 9
 92  4 22 19 17  0.0000000  0  6 18 11 19  2  6 16
  20620650.383      897677.855 7    693927.083 9
  23506412.664    -3544754.020 6  -2676120.641 9
  20894257.820     -831693.628 6   -634339.851 9
  23134264.969    -5016269.868 6  -3795131.813 9
  23920193.195    -3759170.941 3  -2873152.523 9
  24104183.570    -1594769.659 3  -1167690.385 9
 92  4 22 19 17 30.0000000  0  6 18 11 19  2  6 16
  20625958.422      925564.847 7    715657.132 9
  23495422.250    -3602494.050 6  -2721112.798 9
  20891797.328     -844617.564 6   -644410.470 9
  23117019.992    -5106886.295 6  -3865741.920 9
  23906728.641    -3829922.952 4  -2928283.871 9
  24094069.914    -1647929.586 3  -1209113.655 9
 92  4 22 19 18  0.0000000  0  6 18 11 19  2  6 16
  20631344.031      953882.773 7    737722.965 9
  23484511.773    -3659825.779 6  -2765786.813 9
  20889360.305     -857404.749 7   -654374.536 9
  23099815.672    -5197295.840 6  -3936190.853 9
  23893266.078    -3900632.846 4  -2983382.416 9
  24084036.586    -1700661.153 3  -1250203.188 9
 92  4 22 19 18 30.0000000  0  6 18 11 19  2  6 16
  20636816.711      982632.749 7    760125.468 9
  23473677.148    -3716740.723 6  -2810136.063 9
  20886959.313     -870047.225 6   -664225.831 9
  23082657.516    -5287494.835 6  -4006475.733 9
  23879823.039    -3971295.659 4  -3038444.249 9
  24074093.586    -1752945.694 3  -1290944.380 9
 92  4 22 19 19  0.0000000  0  6 18 11 19  2  6 16
  20642369.125     1011815.706 7    782865.339 9
  23462923.039    -3773243.546 6  -2854164.172 9
  20884576.086     -882563.806 6   -673979.033 9
  23065524.508    -5377490.002 6  -4076601.766 9
  23866387.867    -4041918.805 5  -3093475.228 9
  24064219.930    -1804786.052 3  -1331339.449 9
 92  4 22 19 19 30.0000000  0  6 18 11 19  2  6 16
  20648005.320     1041427.864 7    805939.665 9
  23452257.828    -3829324.679 6  -2897863.693 9
  20882215.109     -894972.996 6   -683648.559 9
  23048438.563    -5467289.830 6  -4146575.602 9
  23852955.828    -4112495.894 5  -3148470.286 9
  24054439.734    -1856173.327 4  -1371381.455 9
 92  4 22 19 20  0.0000000  0  6 18 11 19  2  6 16
  20653721.570     1071469.303 7    829348.488 9
  23441664.188    -3884971.131 6  -2941224.486 9
  20879874.789     -907265.581 6   -693227.215 9
  23031389.547    -5556897.579 6  -4216399.751 9
  23839535.609    -4183016.780 5  -3203421.543 9
  24044754.156    -1907092.602 4  -1411058.869 9
 92  4 22 19 20 30.0000000  0  6 18 11 19  2  6 16
  20659521.055     1101942.800 7    853093.984 9
  23431160.781    -3940178.640 6  -2984243.254 9
  20877568.164     -919425.768 6   -702702.703 9
  23014366.828    -5646311.417 6  -4286072.798 9
  23826122.133    -4253480.294 4  -3258328.130 9
  24035150.734    -1957549.867 5  -1450376.191 9
 92  4 22 19 21  0.0000000  0  6 18 11 19  2  6 16
  20665402.648     1132846.714 7    877174.870 9
  23420736.539    -3994946.348 6  -3026919.317 9
  20875282.328     -931464.504 6   -712083.557 9
  22997392.539    -5735537.687 6  -4355599.678 9
  23812721.031    -4323888.425 4  -3313191.534 9
  24025632.563    -2007559.358 5  -1489344.641 9
 92  4 22 19 21 30.0000000  0  6 18 11 19  2  6 16
  20671365.391     1164180.157 7    901590.462 9
  23410404.031    -4049262.488 6  -3069243.483 9
  20873003.648     -943369.612 6   -721360.284 9
  22980449.094    -5824565.380 6  -4424971.835 9
  23799339.117    -4394232.496 4  -3368005.019 9
  24016206.133    -2057110.575 5  -1527955.999 9
 92  4 22 19 22  0.0000000  0  6 18 11 19  2  6 16
  20677409.195     1195942.463 7    926340.228 9
  23400153.133    -4103139.171 6  -3111225.237 9
  20870763.547     -955135.120 6   -730528.238 9
  22963545.461    -5913396.140 6  -4494190.540 9
  23785966.008    -4464527.348 4  -3422780.184 9
  24006867.180    -2106211.399 4  -1566216.378 9
 92  4 22 19 22 30.0000000  0  6 18 11 19  2  6 16
  20683535.914     1228150.246 7    951437.119 9
  23389988.031    -4156561.299 6  -3152852.785 9
  20868554.469     -966744.897 6   -739574.840 9
  22946684.016    -6002007.786 6  -4563238.506 9
  23772597.258    -4534760.755 4  -3477507.400 9
  23997610.141    -2154838.341 5  -1604107.523 9
 92  4 22 19 23  0.0000000  0  6 18 11 19  2  6 16
  20689750.125     1260794.760 7    976874.324 9
  23379902.672    -4209533.458 6  -3194129.703 9
  20866373.289     -978219.784 6   -748516.324 9
  22929866.039    -6090411.465 6  -4632124.437 9
  23759247.031    -4604940.261 5  -3532192.674 9
  23988446.461    -2202979.419 5  -1641620.023 9
 92  4 22 19 23 30.0000000  0  6 18 11 19  2  6 16
  20696047.492     1293879.390 7   1002654.474 9
  23369910.438    -4262051.809 6  -3235053.003 9
  20864216.508     -989544.223 6   -757340.582 9
  22913081.719    -6178606.642 6  -4700847.887 9
  23745901.977    -4675065.060 4  -3586835.305 9
  23979384.063    -2250615.858 5  -1678739.318 9
 92  4 22 19 24  0.0000000  0  6 18 11 19  2  6 16
  20702428.648     1327419.122 7   1028789.228 9
  23360004.727    -4314108.537 6  -3275616.596 9
  20862095.195    -1000707.330 6   -766039.140 9
  22896339.023    -6266587.545 6  -4769404.378 9
  23732565.680    -4745130.055 5  -3641431.300 9
  23970415.148    -2297747.687 5  -1715465.425 9
 92  4 22 19 24 30.0000000  0  6 18 11 19  2  6 16
  20708894.016     1361404.459 7   1055271.208 9
  23350190.570    -4365700.016 6  -3315817.670 9
  20860008.891    -1011717.785 6   -774618.730 9
  22879634.484    -6354351.896 6  -4837792.111 9
  23719246.305    -4815134.298 5  -3695979.990 9
  23961540.547    -2344378.923 5  -1751801.441 9
 92  4 22 19 25  0.0000000  0  6 18 11 19  2  6 16
  20715444.992     1395828.817 7   1082095.283 9
  23340457.336    -4416831.071 6  -3355659.957 9
  20857927.086    -1022586.908 6   -783088.202 9
  22862974.992    -6441909.169 6  -4906018.505 9
  23705937.422    -4885085.489 5  -3750487.342 9
  23952758.453    -2390529.482 5  -1787762.926 9
 92  4 22 19 25 30.0000000  0  6 18 11 19  2  6 16
  20722076.937     1430687.962 7   1109258.160 9
  23330804.414    -4467499.024 6  -3395141.387 9
  20855889.188    -1033302.410 6   -791437.972 9
  22846356.570    -6529246.760 6  -4974073.694 9
  23692638.984    -4954983.671 5  -3804953.414 9
  23944067.320    -2436218.645 5  -1823364.857 9
 92  4 22 19 26  0.0000000  0  6 18 11 19  2  6 16
  20728795.961     1465981.829 7   1136759.776 9
  23321265.195    -4517699.715 6  -3434258.735 9
  20853881.633    -1043870.876 6   -799673.161 9
  22829784.594    -6616346.448 6  -5041943.496 9
  23679346.078    -5024827.420 4  -3859377.015 9
  23935455.195    -2481462.240 5  -1858619.633 9
 92  4 22 19 26 30.0000000  0  6 18 11 19  2  6 16
  20735588.766     1501702.318 7   1164593.820 9
  23311794.930    -4567433.475 6  -3473012.233 9
  20851908.602    -1054303.609 6   -807802.586 9
  22813254.977    -6703202.188 6  -5109623.197 9
  23666062.805    -5094619.917 5  -3913760.686 9
  23926932.547    -2526249.480 5  -1893518.771 9
 92  4 22 19 27  0.0000000  0  6 18 11 19  2  6 16
  20742472.172     1537853.838 7   1192763.746 9
  23302423.508    -4616692.397 6  -3511395.738 9
  20849936.898    -1064586.264 6   -815815.068 9
  22796774.578    -6789811.613 6  -5177110.974 9
  23652792.242    -5164355.753 5  -3968100.241 9
  23918500.195    -2570565.067 5  -1928050.405 9
 92  4 22 19 27 30.0000000  0  6 18 11 19  2  6 16
  20749431.148     1574436.713 7   1221269.796 9
  23293145.492    -4665478.176 6  -3549410.558 9
  20848010.797    -1074725.843 6   -823716.072 9
  22780339.383    -6876178.499 6  -5244409.758 9
  23639529.938    -5234039.772 5  -4022399.407 9
  23910159.602    -2614401.820 5  -1962208.921 9
 92  4 22 19 28  0.0000000  0  6 18 11 19  2  6 16
  20756479.648     1611452.093 7   1250112.849 9
  23283942.023    -4713789.682 6  -3587055.815 9
  20846108.266    -1084735.046 6   -831515.466 9
  22763949.711    -6962302.638 6  -5311519.390 9
  23626280.781    -5303672.992 5  -4076658.970 9
  23901910.273    -2657752.244 5  -1995988.458 9
 92  4 22 19 28 30.0000000  0  6 18 11 19  2  6 16
  20763604.977     1648902.017 7   1279294.508 9
  23274837.453    -4761618.740 6  -3624325.146 9
  20844238.320    -1094604.848 6   -839206.249 9
  22747605.180    -7048182.279 6  -5378438.511 9
  23613036.977    -5373250.145 5  -4130874.852 9
  23893758.828    -2700599.262 5  -2029375.748 9
 92  4 22 19 29  0.0000000  0  6 18 11 19  2  6 16
  20770810.430     1686778.906 7   1308808.875 9
  23265838.453    -4808975.630 6  -3661226.562 9
  20842373.469    -1104335.552 6   -846788.637 9
  22731307.406    -7133831.209 6  -5445177.869 9
  23599804.359    -5442784.045 5  -4185057.059 9
  23885692.789    -2742963.735 5  -2062387.012 9
 92  4 22 19 29 30.0000000  0  6 18 11 19  2  6 16
  20778105.930     1725092.106 7   1338663.237 9
  23256911.898    -4855852.008 6  -3697753.546 9
  20840550.281    -1113927.017 6   -854262.529 9
  22715054.406    -7219231.422 6  -5511723.417 9
  23586584.352    -5512269.014 5  -4239201.128 9
  23877723.891    -2784851.810 5  -2095027.087 9
 92  4 22 19 30  0.0000000  0  6 18 11 19  2  6 16
  20785477.430     1763832.380 7   1368850.370 9
  23248082.063    -4902244.317 6  -3733903.336 9
  20838752.070    -1123372.818 6   -861622.910 9
  22698851.672    -7304379.542 6  -5578072.526 9
  23573377.773    -5581703.916 5  -4293306.168 9
  23869843.852    -2826260.011 5  -2127293.188 9
 92  4 22 19 30 30.0000000  0  6 18 11 19  2  6 16
  20792929.719     1802999.317 7   1399369.971 9
  23239346.961    -4948154.292 6  -3769677.291 9
  20836980.398    -1132666.374 6   -868864.669 9
  22682690.641    -7389301.645 6  -5644245.519 9
  23560167.953    -5651093.172 5  -4347375.679 9
  23862057.031    -2867181.684 5  -2159180.234 9
 92  4 22 19 31  0.0000000  0  6 18 11 19  2  6 16
  20800466.891     1842615.088 7   1430239.297 9
  23230705.680    -4993564.702 6  -3805061.950 9
  20835247.625    -1141800.735 6   -875982.379 9
  22666573.992    -7473999.570 6  -5710243.822 9
  23546973.672    -5720422.179 5  -4401398.201 9
  23854363.508    -2907597.667 5  -2190673.229 9
 92  4 22 19 31 30.0000000  0  6 18 11 19  2  6 16
  20808085.531     1882658.988 7   1461442.243 9
  23222161.172    -5038487.443 6  -3840066.626 9
  20833533.055    -1150801.501 6   -882995.991 9
  22650500.813    -7558492.338 6  -5776082.295 9
  23533794.258    -5789705.087 5  -4455384.853 9
  23846766.344    -2947521.645 5  -2221782.843 9
 92  4 22 19 32  0.0000000  0  6 18 11 19  2  6 16
  20815792.367     1923141.405 7   1492986.888 9
  23213705.906    -5082908.123 6  -3874680.090 9
  20831848.297    -1159651.793 6   -889892.352 9
  22634457.820    -7642782.832 6  -5841763.134 9
  23520619.898    -5858930.109 5  -4509326.373 9
  23839270.609    -2986927.420 5  -2252488.653 9
 92  4 22 19 32 30.0000000  0  6 18 11 19  2  6 16
  20823578.047     1964062.988 7   1524873.731 9
  23205353.313    -5126827.922 6  -3908903.251 9
  20830196.719    -1168352.713 6   -896672.327 9
  22618456.125    -7726865.252 6  -5907281.832 9
  23507457.430    -5928100.773 5  -4563225.566 9
  23831863.531    -3025822.569 5  -2282796.556 9
 92  4 22 19 33  0.0000000  0  6 18 11 19  2  6 16
  20831448.898     2005414.293 7   1557095.421 9
  23197084.297    -5170241.674 6  -3942732.088 9
  20828572.445    -1176903.104 6   -903334.988 9
  22602502.305    -7810700.536 6  -5972607.965 9
  23494300.469    -5997214.383 5  -4617080.264 9
  23824558.828    -3064216.209 5  -2312713.712 9
 92  4 22 19 33 30.0000000  0  6 18 11 19  2  6 16
  20839397.086     2047179.149 7   1589639.374 9
  23188918.906    -5213153.578 6  -3976169.883 9
  20826983.164    -1185294.494 6   -909873.768 9
  22586598.477    -7894282.925 6  -6037737.029 9
  23481162.445    -6066277.530 5  -4670895.674 9
  23817347.891    -3102125.334 5  -2342253.302 9
 92  4 22 19 34  0.0000000  0  6 18 11 19  2  6 16
  20847423.336     2089370.452 7   1622515.614 9
  23180855.453    -5255556.492 6  -4009211.057 9
  20825405.398    -1193512.668 6   -916277.569 9
  22570740.078    -7977614.707 6  -6102670.833 9
  23468030.477    -6135285.466 5  -4724667.984 9
  23810227.945    -3139549.918 5  -2371415.333 9
 92  4 22 19 34 30.0000000  0  6 18 11 19  2  6 16
  20855534.992     2131996.764 7   1655730.828 9
  23172880.953    -5297449.799 6  -4041855.135 9
  20823869.820    -1201560.455 6   -922548.603 9
  22554930.070    -8060688.515 6  -6167403.609 9
  23454906.516    -6204240.029 5  -4778398.805 9
  23803193.563    -3176506.405 5  -2400212.604 9
 92  4 22 19 35  0.0000000  0  6 18 11 19  2  6 16
  20863730.594     2175067.494 7   1689292.323 9
  23165004.133    -5338828.769 6  -4074098.427 9
  20822371.422    -1209436.115 6   -928685.507 9
  22539170.320    -8143513.899 6  -6231942.800 9
  23441801.961    -6273138.544 5  -4832085.857 9
  23796253.133    -3212999.693 5  -2428648.988 9
 92  4 22 19 35 30.0000000  0  6 18 11 19  2  6 16
  20872014.063     2218584.778 7   1723201.791 9
  23157230.078    -5379697.199 6  -4105943.906 9
  20820908.813    -1217144.713 6   -934692.234 9
  22523453.508    -8226121.135 6  -6296312.018 9
  23428694.742    -6341987.501 5  -4885734.361 9
  23789396.609    -3249034.027 5  -2456727.690 9
 92  4 22 19 36  0.0000000  0  6 18 11 19  2  6 16
  20880378.430     2262554.805 7   1757464.040 9
  23149549.063    -5420053.395 6  -4137390.241 9
  20819467.359    -1224698.990 6   -940578.718 9
  22507775.508    -8308498.043 6  -6360501.741 9
  23415601.758    -6410787.203 5  -4939344.496 9
  23782619.195    -3284591.470 5  -2484434.758 9
 92  4 22 19 36 30.0000000  0  6 18 11 19  2  6 16
  20888828.711     2306959.701 7   1792065.150 9
  23141967.836    -5459892.244 6  -4168433.449 9
  20818061.344    -1232102.108 6   -946347.405 9
  22492149.594    -8390619.556 6  -6424492.468 9
  23402520.008    -6479534.880 4  -4992914.014 9
  23775955.563    -3319655.021 5  -2511757.015 9
 92  4 22 19 37  0.0000000  0  6 18 11 19  2  6 16
  20897358.680     2351773.319 7   1826984.755 9
  23134480.453    -5499210.889 6  -4199071.302 9
  20816690.633    -1239350.634 6   -951995.655 9
  22476571.922    -8472482.023 6  -6488281.320 9
  23389443.313    -6548229.842 5  -5046442.500 9
  23769381.906    -3354206.010 5  -2538679.846 9
 92  4 22 19 37 30.0000000  0  6 18 11 19  2  6 16
  20905960.313     2396987.322 7   1862216.352 9
  23127097.727    -5538000.844 6  -4229297.191 9
  20815333.227    -1246440.401 6   -957520.187 9
  22461043.203    -8554071.411 6  -6551857.389 9
  23376388.859    -6616865.763 5  -5099924.998 9
  23762905.008    -3388220.379 5  -2565184.552 9
 92  4 22 19 38  0.0000000  0  6 18 11 19  2  6 16
  20914643.805     2442604.609 7   1897762.183 9
  23119824.672    -5576263.912 6  -4259112.516 9
  20814010.625    -1253378.925 6   -962926.868 9
  22445571.570    -8635374.634 6  -6615210.474 9
  23363334.688    -6685447.062 5  -5153364.855 9
  23756538.836    -3421692.551 5  -2591266.803 9
 92  4 22 19 38 30.0000000  0  6 18 11 19  2  6 16
  20923398.609     2488620.993 7   1933618.996 9
  23112637.266    -5613999.793 6  -4288517.057 9
  20812723.492    -1260159.637 6   -968210.575 9
  22430155.680    -8716395.992 6  -6678343.923 9
  23350297.453    -6753974.701 5  -5206762.994 9
  23750272.164    -3454635.853 5  -2616936.919 9
 92  4 22 19 39  0.0000000  0  6 18 11 19  2  6 16
  20932238.688     2535063.994 7   1969808.247 9
  23105563.508    -5651201.120 6  -4317505.059 9
  20811478.227    -1266774.400 6   -973364.975 9
  22414790.344    -8797141.457 6  -6741262.390 9
  23337264.797    -6822444.210 5  -5260115.759 9
  23744105.234    -3487045.623 5  -2642191.328 9
 92  4 22 19 39 30.0000000  0  6 18 11 19  2  6 16
  20941164.445     2581959.930 7   2006350.427 9
  23098578.289    -5687868.527 6  -4346077.016 9
  20810232.797    -1273229.346 6   -978394.827 9
  22399470.445    -8877623.973 6  -6803975.951 9
  23324248.734    -6890858.186 5  -5313425.308 9
  23738034.914    -3518930.778 5  -2667036.937 9
 92  4 22 19 40  0.0000000  0  6 18 11 19  2  6 16
  20950169.750     2629318.242 7   2043252.901 9
  23091707.625    -5723999.255 6  -4374230.786 9
  20809042.383    -1279520.409 6   -983296.990 9
  22384206.227    -8957846.180 6  -6866486.678 9
  23311240.500    -6959215.897 5  -5366690.995 9
  23732059.734    -3550303.347 5  -2691483.129 9
 92  4 22 19 40 30.0000000  0  6 18 11 19  2  6 16
  20959268.922     2677110.799 7   2080493.747 9
  23084937.828    -5759599.231 6  -4401970.985 9
  20807872.367    -1285644.239 6   -988068.832 9
  22368987.016    -9037835.622 6  -6928816.030 9
  23298243.922    -7027524.860 5  -5419918.687 9
  23726189.672    -3581174.571 5  -2715538.613 9
 92  4 22 19 41  0.0000000  0  6 18 11 19  2  6 16
  20968448.016     2725345.597 7   2118079.207 9
  23078265.781    -5794656.344 6  -4429288.165 9
  20806757.188    -1291584.155 6   -992697.377 9
  22353807.078    -9117596.438 6  -6990967.245 9
  23285252.289    -7095775.352 5  -5473100.860 9
  23720414.391    -3611531.169 5  -2739193.125 9
 92  4 22 19 41 30.0000000  0  6 18 11 19  2  6 16
  20977709.352     2774013.983 7   2156002.518 9
  23071698.297    -5829167.530 6  -4456179.946 9
  20805644.750    -1297334.884 6   -997178.491 9
  22338675.352    -9197121.854 6  -7052935.004 9
  23272278.047    -7163966.212 5  -5526236.473 9
  23714727.695    -3641383.156 5  -2762454.415 9
 92  4 22 19 42  0.0000000  0  6 18 11 19  2  6 16
  20987047.313     2823093.646 7   2194246.304 9
  23065232.570    -5863131.248 6  -4482645.137 9
  20804591.008    -1302899.592 6  -1001514.661 9
  22323589.281    -9276401.488 6  -7114711.268 9
  23259313.531    -7232097.708 5  -5579325.892 9
  23709143.469    -3670736.354 5  -2785327.054 9
 92  4 22 19 42 30.0000000  0  6 18 11 19  2  6 16
  20996463.336     2872573.817 7   2232802.168 9
  23058872.008    -5896547.751 6  -4508683.918 9
  20803567.797    -1308279.887 6  -1005707.128 9
  22308548.219    -9355433.845 6  -7176294.844 9
  23246359.445    -7300172.223 5  -5632370.895 9
  23703653.969    -3699594.901 5  -2807814.310 9
 92  4 22 19 43  0.0000000  0  6 18 11 19  2  6 16
  21005958.719     2922467.734 7   2271680.444 9
  23052617.719    -5929413.487 6  -4534293.540 9
  20802572.359    -1313485.288 6  -1009763.314 9
  22293560.242    -9434197.361 6  -7237668.931 9
  23233412.281    -7368187.811 5  -5685370.014 9
  23698255.500    -3727965.599 5  -2829921.359 9
 92  4 22 19 43 30.0000000  0  6 18 11 19  2  6 16
  21015533.758     2972777.642 7   2310882.860 9
  23046476.578    -5961722.017 6  -4559468.972 9
  20801617.836    -1318521.132 6  -1013687.379 9
  22278624.914    -9512671.879 6  -7298817.828 9
  23220485.289    -7436140.402 5  -5738320.023 9
  23692950.281    -3755847.904 5  -2851647.814 9
 92  4 22 19 44  0.0000000  0  6 18 11 19  2  6 16
  21025179.953     3023484.343 7   2350394.462 9
  23040427.203    -5993480.206 6  -4584215.561 9
  20800688.625    -1323402.009 6  -1017490.692 9
  22263748.070    -9590870.779 6  -7359751.971 9
  23207563.641    -7504038.311 5  -5791227.430 9
  23687739.313    -3783241.930 5  -2872993.821 9
 92  4 22 19 44 30.0000000  0  6 18 11 19  2  6 16
  21034911.695     3074603.995 7   2390227.849 9
  23034487.875    -6024681.511 6  -4608528.216 9
  20799792.000    -1328116.814 6  -1021164.592 9
  22248919.844    -9668790.750 6  -7420468.751 9
  23194652.656    -7571877.079 5  -5844088.781 9
  23682617.719    -3810134.615 5  -2893949.195 9
 92  4 22 19 45  0.0000000  0  6 18 11 19  2  6 16
  21044719.930     3126146.442 7   2430390.689 9
  23028658.445    -6055319.087 6  -4632401.608 9
  20798928.414    -1332660.678 6  -1024705.293 9
  22234145.898    -9746423.930 6  -7480962.069 9
  23181759.437    -7639652.083 5  -5896900.366 9
  23677602.000    -3836505.305 5  -2914497.848 9
 92  4 22 19 45 30.0000000  0  6 18 11 19  2  6 16
  21054607.297     3178110.668 7   2470882.180 9
  23022939.531    -6085390.876 6  -4655834.126 9
  20798103.883    -1337034.935 6  -1028113.833 9
  22219426.930    -9823783.855 6  -7541242.460 9
  23168873.008    -7707362.167 5  -5949661.426 9
  23672681.914    -3862348.877 5  -2934635.711 9
 92  4 22 19 46  0.0000000  0  6 18 11 19  2  6 16
  21064573.688     3230496.059 7   2511701.861 9
  23017321.563    -6114898.235 6  -4678826.828 9
  20797310.266    -1341232.302 6  -1031384.547 9
  22204755.359    -9900873.835 6  -7601312.520 9
  23155998.078    -7775009.453 5  -6002373.564 9
  23667871.148    -3887666.425 5  -2954363.677 9
 92  4 22 19 46 30.0000000  0  6 18 11 19  2  6 16
  21074629.695     3283317.796 7   2552861.551 9
  23011816.195    -6143840.420 6  -4701379.135 9
  20796531.516    -1345244.239 6  -1034510.762 9
  22190139.484    -9977682.516 6  -7661163.372 9
  23143136.164    -7842596.848 5  -6055038.996 9
  23663151.117    -3912457.652 5  -2973681.524 9
 92  4 22 19 47  0.0000000  0  6 18 11 19  2  6 16
  21084761.594     3336580.121 7   2594364.550 9
  23006416.813    -6172211.571 6  -4723486.474 9
  20795800.391    -1349065.712 6  -1037488.564 9
  22175574.914   -10054207.840 6  -7720793.420 9
  23130290.617    -7910119.346 5  -6107653.877 9
  23658525.266    -3936729.065 5  -2992594.365 9
 92  4 22 19 47 30.0000000  0  6 18 11 19  2  6 16
  21094981.500     3390282.791 7   2636210.673 9
  23001131.547    -6200005.606 6  -4745144.118 9
  20795113.742    -1352688.218 6  -1040311.329 9
  22161067.883   -10130448.298 6  -7780201.511 9
  23117449.211    -7977572.521 5  -6160214.752 9
  23654009.336    -3960480.407 5  -3011101.960 9
 92  4 22 19 48  0.0000000  0  6 18 11 19  2  6 16
  21105287.680     3444429.434 7   2678402.763 9
  22995949.273    -6227214.032 6  -4766345.436 9
  20794470.125    -1356089.422 6  -1042961.656 9
  22146615.961   -10206387.694 6  -7839375.005 9
  23104628.273    -8044949.309 5  -6212716.113 9
  23649593.563    -3983692.444 5  -3029189.211 9
 92  4 22 19 48 30.0000000  0  6 18 11 19  2  6 16
  21115671.039     3499019.701 7   2720940.532 9
  22990882.500    -6253838.290 6  -4787091.561 9
  20793859.648    -1359279.664 6  -1045447.590 9
  22132221.984   -10282038.862 6  -7898323.910 9
  23091824.617    -8112253.030 5  -6265160.511 9
  23645279.422    -4006357.379 5  -3046850.232 9
 92  4 22 19 49  0.0000000  0  6 18 11 19  2  6 16
  21126146.844     3554043.299 7   2763815.969 9
  22985930.266    -6279876.617 6  -4807381.121 9
  20793291.281    -1362269.092 6  -1047777.042 9
  22117877.812   -10357411.097 6  -7957055.471 9
  23079029.602    -8179483.277 5  -6317547.633 9
  23641072.875    -4028468.638 5  -3064079.849 9
 92  4 22 19 49 30.0000000  0  6 18 11 19  2  6 16
  21136695.953     3609490.705 7   2807021.638 9
  22981084.102    -6305332.188 6  -4827216.601 9
  20792771.789    -1365059.504 6  -1049951.421 9
  22103592.109   -10432500.913 6  -8015566.957 9
  23066252.836    -8246644.500 5  -6369881.039 9
  23636971.578    -4050018.829 5  -3080872.243 9
 92  4 22 19 50  0.0000000  0  6 18 11 19  2  6 16
  21147328.914     3665373.361 7   2850566.454 9
  22976349.914    -6330198.814 6  -4846593.147 9
  20792265.672    -1367647.697 6  -1051968.226 9
  22089358.336   -10507293.979 6  -8073847.206 9
  23053485.656    -8313732.415 5  -6422157.268 9
  23632980.266    -4071007.232 5  -3097226.860 9
 92  4 22 19 50 30.0000000  0  6 18 11 19  2  6 16
  21158048.195     3721699.132 7   2894456.547 9
  22971739.594    -6354463.973 6  -4865501.028 9
  20791814.586    -1370032.406 6  -1053826.475 9
  22075187.070   -10581774.355 6  -8131883.795 9
  23040732.258    -8380741.004 5  -6474371.651 9
  23629086.687    -4091445.420 5  -3113152.739 9
 92  4 22 19 51  0.0000000  0  6 18 11 19  2  6 16
  21168848.469     3778447.948 7   2938676.300 9
  22967236.789    -6378137.373 6  -4883947.794 9
  20791404.094    -1372214.130 6  -1055526.555 9
  22061071.359   -10655937.369 6  -8189673.103 9
  23027993.523    -8447668.727 5  -6526523.102 9
  23625301.211    -4111359.536 5  -3128670.234 9
 92  4 22 19 51 30.0000000  0  6 18 11 19  2  6 16
  21179731.242     3835621.940 7   2983227.367 9
  22962841.891    -6401211.699 6  -4901927.749 9
  20791041.938    -1374177.102 6  -1057056.173 9
  22047024.281   -10729766.405 6  -8247202.160 9
  23015278.430    -8514518.796 6  -6578614.007 9
  23621607.805    -4130756.707 5  -3143784.973 9
 92  4 22 19 52  0.0000000  0  6 18 11 19  2  6 16
  21190691.828     3893223.982 7   3028111.962 9
  22958565.555    -6423685.383 6  -4919439.668 9
  20790692.063    -1375923.788 6  -1058417.268 9
  22033035.609   -10803268.796 6  -8304476.699 9
  23002569.422    -8581289.707 5  -6630643.236 9
  23618014.938    -4149643.821 5  -3158502.262 9
 92  4 22 19 52 30.0000000  0  6 18 11 19  2  6 16
  21201733.906     3951251.642 7   3073328.191 9
  22954397.352    -6445550.789 6  -4936477.622 9
  20790408.891    -1377443.002 6  -1059601.096 9
  22019107.805   -10876452.610 6  -8361502.985 9
  22989880.875    -8647973.954 5  -6682604.972 9
  23614516.711    -4168008.789 5  -3172812.641 9
 92  4 22 19 53  0.0000000  0  6 18 11 19  2  6 16
  21212854.352     4009693.222 7   3118866.973 9
  22950356.422    -6466819.506 6  -4953050.605 9
  20790159.828    -1378747.163 6  -1060617.352 9
  22005237.742   -10949341.688 6  -8418299.599 9
  22977202.164    -8714585.758 5  -6734510.212 9
  23611128.859    -4185834.005 5  -3186702.444 9
 92  4 22 19 53 30.0000000  0  6 18 11 19  2  6 16
  21224053.359     4068551.296 7   3164730.303 9
  22946424.039    -6487491.971 6  -4969158.990 9
  20789962.586    -1379850.346 6  -1061477.020 9
  21991422.188   -11021948.111 6  -8474875.981 9
  22964539.320    -8781125.519 5  -6786359.257 9
  23607845.852    -4203110.887 5  -3200165.015 9
 92  4 22 19 54  0.0000000  0  6 18 11 19  2  6 16
  21235332.742     4127829.079 7   3210920.664 9
  22942601.133    -6507566.712 6  -4984801.611 9
  20789772.109    -1380757.461 6  -1062183.894 9
  21977655.867   -11094284.996 6  -8531242.330 9
  22951888.750    -8847593.953 5  -6838152.837 9
  23604652.453    -4219838.384 5  -3213199.479 9
 92  4 22 19 54 30.0000000  0  6 18 11 19  2  6 16
  21246688.453     4187499.986 7   3257417.359 9
  22938888.836    -6527058.043 6  -4999989.641 9
  20789638.406    -1381487.890 6  -1062753.088 9
  21963943.969   -11166354.816 6  -8587400.577 9
  22939257.875    -8914006.045 5  -6889902.518 9
  23601572.680    -4236039.374 5  -3225823.630 9
 92  4 22 19 55  0.0000000  0  6 18 11 19  2  6 16
  21258123.031     4247590.780 7   3304241.236 9
  22935293.867    -6545951.636 6  -5014711.908 9
  20789530.461    -1382037.083 6  -1063181.066 9
  21950282.305   -11238132.369 6  -8643331.081 9
  22926631.570    -8980346.786 5  -6941596.540 9
  23598589.898    -4251708.763 5  -3238033.581 9
 92  4 22 19 55 30.0000000  0  6 18 11 19  2  6 16
  21269636.930     4308103.446 7   3351393.859 9
  22931812.883    -6564250.836 6  -5028971.000 9
  20789456.484    -1382406.098 6  -1063468.650 9
  21936680.320   -11309612.602 6  -8699029.917 9
  22914022.398    -9046622.497 5  -6993239.885 9
  23595705.703    -4266871.662 5  -3249848.900 9
 92  4 22 19 56  0.0000000  0  6 18 11 19  2  6 16
  21281234.180     4369031.806 7   3398870.395 9
  22928443.781    -6581960.071 6  -5042770.358 9
  20789425.156    -1382596.505 6  -1063617.054 9
  21923133.906   -11380799.227 6  -8754499.962 9
  22901415.273    -9112840.636 5  -7044838.365 9
  23592907.477    -4281546.114 5  -3261283.579 9
 92  4 22 19 56 30.0000000  0  6 18 11 19  2  6 16
  21292903.359     4430356.529 7   3446655.769 9
  22925183.734    -6599096.526 6  -5056123.416 9
  20789423.672    -1382614.943 6  -1063631.456 9
  21909641.477   -11451703.513 6  -8809750.000 9
  22888826.133    -9179018.064 5  -7096405.144 9
  23590207.375    -4295741.720 5  -3272345.117 9
 92  4 22 19 57  0.0000000  0  6 18 11 19  2  6 16
  21304652.461     4492108.182 7   3494773.813 9
  22922035.586    -6615635.616 6  -5069010.992 9
  20789459.727    -1382427.193 6  -1063485.195 9
  21896208.156   -11522312.939 6  -8864770.283 9
  22876243.961    -9245130.685 5  -7147921.477 9
  23587608.242    -4309416.170 5  -3283000.582 9
 92  4 22 19 57 30.0000000  0  6 18 11 19  2  6 16
  21316480.016     4554255.160 7   3543199.895 9
  22918998.688    -6631586.750 6  -5081440.419 9
  20789533.102    -1382035.077 6  -1063179.686 9
  21882824.625   -11592638.240 7  -8919569.177 9
  22863675.711    -9311188.888 5  -7199395.369 9
  23585104.055    -4322583.624 5  -3293260.989 9
 92  4 22 19 58  0.0000000  0  6 18 11 19  2  6 16
  21328380.102     4616778.986 7   3591919.637 9
  22916072.570    -6646958.999 6  -5093418.765 9
  20789652.078    -1381448.296 6  -1062722.489 9
  21869493.172   -11662688.467 7  -8974153.722 9
  22851114.461    -9377202.890 5  -7250834.737 9
  23582695.656    -4335251.452 5  -3303132.088 9
 92  4 22 19 58 30.0000000  0  6 18 11 19  2  6 16
  21340350.086     4679676.275 7   3640930.372 9
  22913262.141    -6661748.489 6  -5104943.015 9
  20789807.680    -1380654.421 6  -1062103.925 9
  21856218.359   -11732451.098 7  -9028514.166 9
  22838559.000    -9443169.557 5  -7302237.273 9
  23580380.203    -4347398.981 5  -3312597.715 9
 92  4 22 19 59  0.0000000  0  6 18 11 19  2  6 16
  21352383.258     4742948.629 7   3690233.390 9
  22910559.820    -6675948.859 6  -5116008.210 9
  20789981.852    -1379661.454 6  -1061330.221 9
  21843000.367   -11801922.156 7  -9082647.415 9
  22826014.445    -9509083.317 5  -7353598.633 9
  23578162.891    -4359025.272 5  -3321657.236 9
 92  4 22 19 59 30.0000000  0  6 18 11 19  2  6 16
  21364497.844     4806580.170 7   3739816.287 9
  22907969.336    -6689564.324 6  -5126617.627 9
  20790205.273    -1378473.937 6  -1060404.914 9
  21829835.656   -11871097.587 7  -9136550.296 9
  22813479.875    -9574949.547 5  -7404922.963 9
  23576057.602    -4370148.779 5  -3330324.973 9
 92  4 22 19 59 59.9990000  0  6 18 11 19  2  6 16
  21376671.573     4870571.523 7   3789679.557 9
  22905487.440    -6702588.907 6  -5136766.616 9
  20790471.229    -1377084.155 6  -1059322.006 9
  21816727.261   -11939972.219 7  -9190218.789 9
  22800959.628    -9640761.075 6  -7456204.598 9
  23574032.964    -4380747.661 5  -3338583.854 9
 92  4 22 20  0 29.9990000  0  6 18 11 19  2  6 16
  21388917.183     4934911.150 7   3839814.201 9
  22903123.308    -6715029.450 6  -5146460.520 9
  20790776.995    -1375495.443 6  -1058084.082 9
  21803673.862   -12008566.363 7  -9243668.719 9
  22788442.464    -9706529.234 5  -7507452.437 9
  23572118.378    -4390828.640 5  -3346439.240 9
 92  4 22 20  0 59.9990000  0  6 18 11 19  2  6 16
  21401227.120     4999600.875 7   3890221.656 9
  22900864.222    -6726878.239 6  -5155693.310 9
  20791113.534    -1373708.935 6  -1056692.029 9
  21790675.886   -12076884.060 7  -9296903.237 9
  22775936.104    -9772245.159 5  -7558659.644 9
  23570295.878    -4400408.434 5  -3353904.073 9
 92  4 22 20  1 29.9990000  0  6 18 11 19  2  6 16
  21413602.269     5064638.230 7   3940899.995 9
  22898723.401    -6738136.707 6  -5164466.127 9
  20791492.175    -1371720.366 6  -1055142.528 9
  21777727.972   -12144928.012 7  -9349924.443 9
  22763438.972    -9837911.127 5  -7609827.896 9
  23568564.292    -4409491.766 5  -3360982.028 9
 92  4 22 20  1 59.9990000  0  6 18 11 19  2  6 16
  21426048.534     5130022.342 7   3991848.545 9
  22896691.487    -6748813.158 6  -5172785.410 9
  20791918.972    -1369542.710 6  -1053445.687 9
  21764825.417   -12212716.176 6  -9402746.331 9
  22750953.745    -9903535.957 6  -7660964.066 9
  23566928.354    -4418094.100 5  -3367685.262 9
 92  4 22 20  2 29.9990000  0  6 18 11 19  2  6 16
  21438555.214     5195775.988 7   4043085.025 9
  22894771.940    -6758902.375 6  -5180647.112 9
  20792357.698    -1367172.691 6  -1051598.948 9
  21751974.612   -12280243.841 7  -9455365.238 9
  22738475.159    -9969115.188 6  -7712064.726 9
  23565384.979    -4426230.288 5  -3374025.140 9
 92  4 22 20  2 59.9990000  0  6 18 11 19  2  6 16
  21451145.987     5261918.153 7   4094624.245 9
  22892965.128    -6768400.383 6  -5188048.133 9
  20792845.956    -1364614.960 6  -1049605.945 9
  21739175.534   -12347497.229 7  -9507770.427 9
  22726003.979   -10034645.536 5  -7763127.273 9
  23563921.722    -4433890.217 5  -3379993.966 9
 92  4 22 20  3 29.9990000  0  6 18 11 19  2  6 16
  21463805.136     5328453.232 7   4146469.641 9
  22891271.448    -6777306.644 6  -5194988.046 9
  20793372.175    -1361860.797 6  -1047459.884 9
  21726434.644   -12414462.663 7  -9559951.235 9
  22713545.792   -10100126.869 6  -7814151.676 9
  23562560.612    -4441046.171 5  -3385570.119 9
 92  4 22 20  3 59.9990000  0  6 18 11 19  2  6 16
  21476545.706     5395385.213 7   4198624.309 9
  22889686.870    -6785622.510 6  -5201467.921 9
  20793944.839    -1358915.059 6  -1045164.536 9
  21713744.425   -12481137.438 7  -9611905.556 9
  22701089.292   -10165561.103 5  -7865139.356 9
  23561303.386    -4447691.122 5  -3390748.036 9
 92  4 22 20  4 29.9990000  0  6 18 11 19  2  6 16
  21489354.675     5462706.172 7   4251082.067 9
  22888217.831    -6793343.321 6  -5207484.119 9
  20794525.222    -1355783.569 6  -1042724.444 9
  21701118.925   -12547505.000 7  -9663620.495 9
  22688648.589   -10230944.219 5  -7916087.181 9
  23560129.479    -4453804.425 5  -3395511.719 9
 92  4 22 20  4 59.9990000  0  6 18 11 19  2  6 16
  21502232.831     5530388.750 7   4303821.603 9
  22886860.472    -6800476.615 6  -5213042.513 9
  20795157.354    -1352482.781 6  -1040152.445 9
  21688545.987   -12613565.339 7  -9715096.038 9
  22676213.542   -10296284.166 6  -7967001.377 9
  23559074.159    -4459382.613 5  -3399858.432 9
 92  4 22 20  5 29.9990000  0  6 18 11 19  2  6 16
  21515177.597     5598420.501 7   4356833.207 9
  22885618.729    -6807019.511 6  -5218140.850 9
  20795820.628    -1349002.798 6  -1037440.799 9
  21676034.081   -12679322.306 7  -9766335.173 9
  22663790.058   -10361578.542 5  -8017880.068 9
  23558114.854    -4464431.379 5  -3403792.587 9
 92  4 22 20  5 59.9990000  0  6 18 11 19  2  6 16
  21528196.909     5666795.603 7   4410112.382 9
  22884482.276    -6812976.614 6  -5222782.749 9
  20796528.933    -1345351.333 6  -1034595.542 9
  21663577.972   -12744782.214 7  -9817342.849 9
  22651371.386   -10426832.385 6  -8068727.149 9
  23557246.120    -4468968.807 5  -3407328.259 9
 92  4 22 20  6 29.9990000  0  6 18 11 19  2  6 16
  21541268.761     5735507.419 7   4463653.921 9
  22883462.237    -6818344.328 6  -5226965.371 9
  20797241.854    -1341510.267 6  -1031602.540 9
  21651174.979   -12809946.874 7  -9868120.460 9
  22638962.972   -10492042.229 6  -8119540.000 9
  23556480.190    -4472995.868 5  -3410466.342 9
 92  4 22 20  6 59.9990000  0  6 18 11 19  2  6 16
  21554410.378     5804573.886 7   4517471.819 9
  22882552.894    -6823118.013 6  -5230685.110 9
  20798017.698    -1337450.941 6  -1028439.470 9
  21638829.198   -12874827.694 7  -9918676.892 9
  22626564.144   -10557204.096 5  -8170315.444 9
  23555818.097    -4476522.067 5  -3413214.053 9
 92  4 22 20  7 29.9990000  0  6 18 11 19  2  6 16
  21567618.839     5874003.420 7   4571572.615 9
  22881761.862    -6827293.687 6  -5233938.878 9
  20798833.425    -1333154.786 6  -1025091.858 9
  21626538.089   -12939425.611 7  -9969012.874 9
  22614173.542   -10622314.160 6  -8221050.519 9
  23555232.519    -4479553.114 5  -3415575.969 9
 92  4 22 20  7 59.9990000  0  6 18 11 19  2  6 16
  21580898.800     5943794.808 7   4625955.370 9
  22881075.894    -6830875.002 6  -5236729.500 9
  20799692.823    -1328621.089 6  -1021559.150 9
  21614295.800   -13003742.034 7 -10019129.508 9
  22601793.550   -10687376.208 6  -8271748.198 9
  23554745.425    -4482103.324 5  -3417563.202 9
 92  4 22 20  8 29.9990000  0  6 18 11 19  2  6 16
  21594251.573     6013947.011 7   4680619.276 9
  22880507.347    -6833854.543 6  -5239051.213 9
  20800607.347    -1323840.711 6  -1017834.209 9
  21602113.050   -13067782.536 7 -10069031.145 9
  22589422.597   -10752383.351 5  -8322403.054 9
  23554353.675    -4484180.172 5  -3419181.601 9
 92  4 22 20  8 59.9990000  0  6 18 11 19  2  6 16
  21607673.370     6084459.134 7   4735563.660 9
  22880060.862    -6836240.520 6  -5240910.398 9
  20801560.042    -1318830.944 6  -1013930.536 9
  21589980.151   -13131544.128 7 -10118715.454 9
  22577058.589   -10817343.715 6  -8373021.485 9
  23554043.948    -4485797.213 5  -3420441.639 9
 92  4 22 20  9 29.9990000  0  6 18 11 19  2  6 16
  21621158.190     6155325.097 7   4790783.759 9
  22879714.370    -6838033.870 6  -5242307.795 9
  20802557.550    -1313610.331 6  -1009862.566 9
  21577896.612   -13195026.888 7 -10168182.500 9
  22564707.690   -10882258.450 5  -8423604.403 9
  23553819.081    -4486952.584 5  -3421342.047 9
 92  4 22 20  9 59.9990000  0  6 18 11 19  2  6 16
  21634715.401     6226554.177 7   4846286.804 9
  22879487.558    -6839229.851 6  -5243239.728 9
  20803588.698    -1308180.902 6  -1005631.875 9
  21565869.862   -13258231.974 7 -10217433.174 9
  22552362.979   -10947123.455 5  -8474148.517 9
  23553694.394    -4487639.332 5  -3421877.249 9
 92  4 22 20 10 29.9990000  0  6 18 11 19  2  6 16
  21648333.050     6298157.499 7   4902081.461 9
  22879374.987    -6839823.385 6  -5243702.211 9
  20804663.151    -1302553.129 6  -1001246.630 9
  21553895.378   -13321158.588 7 -10266466.835 9
  22540033.987   -11011933.162 6  -8524649.531 9
  23553656.589    -4487846.946 5  -3422039.023 9
 92  4 22 20 10 59.9990000  0  6 18 11 19  2  6 16
  21662033.042     6370111.628 7   4958149.467 9
  22879374.979    -6839833.356 6  -5243709.982 9
  20805773.073    -1296757.507 6   -996730.599 9
  21541971.612   -13383813.555 7 -10315288.830 9
  22527706.175   -11076706.293 5  -8575122.101 9
  23553712.308    -4487586.568 4
 92  4 22 20 11 29.9990000  0  6 18 11 19  2  6 16
  21675782.050     6442410.478 7   5014486.099 9
  22879482.175    -6839243.860 6  -5243250.605 9
  20806896.237    -1290782.546 6   -992074.824 9
  21530104.394   -13446185.689 7 -10363890.442 9
  22515389.480   -11141424.648 6  -8625551.970 9
  23553848.862    -4486849.017 5        -0.61819
 92  4 22 20 11 59.9990000  0  6 18 11 19  2  6 16
  21689612.737     6515042.998 7   5071082.709 9
  22879715.956    -6838055.319 6  -5242324.449 9
  20808068.784    -1284619.993 6   -987272.869 9
  21518292.128   -13508259.026 7 -10412259.222 9
  22503085.956   -11206094.319 6  -8675943.892 9
  23554068.120    -4485636.544 5       944.132 9
 92  4 22 20 12 29.9990000  0  6 18 11 19  2  6 16
  21703486.808     6587983.529 7   5127919.326 9
  22880048.104    -6836273.157 6  -5240935.739 9
  20809279.933    -1278269.194 6   -982324.232 9
  21506538.644   -13570024.883 7 -10460388.411 9
  22490785.706   -11270718.357 6  -8726300.228 9
  23554399.722    -4483951.490 5      2257.055 9
 92  4 22 20 12 59.9990000  0  6 18 11 19  2  6 16
  21717423.597     6661221.566 7   5184987.778 9
  22880501.511    -6833891.241 6  -5239079.688 9
  20810526.894    -1271710.684 6   -977213.751 9
  21494844.690   -13631466.951 7 -10508265.291 9
  22478497.104   -11335291.136 6  -8776616.669 9
  23554814.972    -4481779.562 5      3949.431 9
 92  4 22 20 13 29.9990000  0  6 18 11 19  2  6 16
  21731422.464     6734764.363 7   5242293.700 9
  22881067.058    -6830912.566 6  -5236758.618 9
  20811815.901    -1264933.891 6   -971933.171 9
  21483215.550   -13692588.559 7 -10555892.463 9
  22466219.558   -11399814.635 6  -8826894.698 9
  23555322.409    -4479120.903 5      6021.025 9
 92  4 22 20 13 59.9990000  0  6 18 11 19  2  6 16
  21745482.136     6808638.010 7   5299857.420 9
  22881747.026    -6827332.263 6  -5233968.754 9
  20813150.573    -1257925.831 6   -966472.387 9
  21471645.597   -13753384.644 7 -10603265.983 9
  22453955.229   -11464275.101 6  -8877123.556 9
  23555918.026    -4475953.112 4      8489.395 9
 92  4 22 20 14 29.9990000  0  6 18 11 19  2  6 16
  21759596.659     6882839.590 7   5357676.670 9
  22882545.511    -6823159.632 6  -5230717.334 9
  20814539.003    -1250694.397 6   -960837.533 9
  21460132.901   -13813878.672 7 -10650404.130 9
  22441695.058   -11528693.163 6  -8927319.420 9
  23556616.854    -4472281.987 5     11349.923 9
 92  4 22 20 14 59.9990000  0  6 18 11 19  2  6 16
  21773786.667     6957404.553 7   5415779.079 9
  22883451.026    -6818387.209 6  -5226998.552 9
  20815947.050    -1243229.205 6   -955020.540 9
  21448676.292   -13874076.399 7 -10697311.402 9
  22429450.456   -11593058.252 6  -8977474.015 9
  23557418.972    -4468110.122 5     14600.652 9
 92  4 22 20 15 29.9990000  0  6 18 11 19  2  6 16
  21788046.136     7032340.924 7   5474170.900 9
  22884473.409    -6813018.558 6  -5222815.173 9
  20817413.612    -1235522.346 6   -949015.233 9
  21437275.433   -13933995.776 7 -10744001.769 9
  22417209.519   -11657373.501 6  -9027589.751 9
  23558296.644    -4463447.012 5     18234.168 9
 92  4 22 20 15 59.9990000  0  6 18 11 19  2  6 16
  21802376.339     7107638.606 7   5532844.275 9
  22885609.722    -6807047.864 6  -5218162.679 9
  20818929.198    -1227562.822 6   -942813.043 9
  21425926.519   -13993643.716 7 -10790480.638 9
  22404978.667   -11721635.342 6  -9077663.881 9
  23559277.159    -4458287.773 5     22254.301 9
 92  4 22 20 16 29.9990000  0  6 18 11 19  2  6 16
  21816765.206     7183274.161 6   5591780.920 9
  22886861.042    -6800485.466 6  -5213049.096 9
  20820505.315    -1219366.453 6   -936426.297 9
  21414625.401   -14053030.150 7 -10836755.720 9
  22392760.089   -11785850.147 6  -9127701.391 9
  23560350.698    -4452669.543 5     26632.067 9
 92  4 22 20 16 59.9990000  0  6 18 11 19  2  6 16
  21831226.706     7259237.578 7   5650973.037 9
  22888218.190    -6793330.128 6  -5207473.496 9
  20822087.948    -1210944.469 6   -929863.749 9
  21403374.823   -14112140.133 7 -10882815.404 9
  22380546.222   -11850018.583 6  -9177702.671 9
  23561507.034    -4446598.582 5     31362.625 9
 92  4 22 20 17 29.9990000  0  6 18 11 19  2  6 16
  21845742.323     7335510.159 7   5710406.045 9
  22889694.628    -6785573.399 6  -5201429.280 9
  20823736.753    -1202304.820 6   -923131.596 9
  21392182.495   -14170957.313 7 -10928646.924 9
  22368349.987   -11914130.360 6  -9227659.900 9
  23562750.925    -4440060.806 4     36456.939 9
 92  4 22 20 17 59.9990000  0  6 18 11 19  2  6 16
  21860304.269     7412075.074 6   5770066.858 9
  22891284.159    -6777221.484 6  -5194921.292 9
  20825417.159    -1193473.100 6   -916249.769 9
  21381050.706   -14229473.460 7 -10974243.880 9
  22356155.620   -11978191.423 6  -9277577.574 9
  23564080.956    -4433073.903 5     41901.177 9
 92  4 22 20 18 29.9990000  0  6 18 11 19  2  6 16
  21874935.362     7488935.389 7   5829957.853 9
  22892986.292    -6768277.320 6  -5187951.811 9
  20827146.729    -1184463.492 6   -909229.326 9
  21369973.901   -14287680.458 7 -11019599.926 9
  22343977.839   -12042204.337 6  -9327457.682 9
  23565493.894    -4425641.954 5     47692.268 9
 92  4 22 20 18 59.9990000  0  6 18 11 19  2  6 16
  21889613.362     7566077.136 6   5890068.135 9
  22894803.386    -6758747.505 6  -5180525.969 9
  20828875.933    -1175272.267 6   -902067.367 9
  21358951.979   -14345590.355 7 -11064724.481 9
  22331803.331   -12106175.346 5  -9377305.217 9
  23566999.394    -4417747.810 5     53843.435 9
 92  4 22 20 19 29.9990000  0  6 18 11 19  2  6 16
  21904349.526     7643515.069 6   5950409.215 9
  22896729.558    -6748617.152 6  -5172632.190 9
  20830669.065    -1165864.495 6   -894736.678 9
  21347988.487   -14403202.203 7 -11109616.781 9
  22319643.925   -12170088.612 5  -9427107.713 9
  23568593.206    -4409372.344 5     60369.732 9
 92  4 22 20 19 59.9990000  0  6 18 11 19  2  6 16
  21919143.354     7721249.555 6   6010981.362 9
  22898771.386    -6737888.965 6  -5164272.568 9
  20832505.401    -1156224.577 6   -887225.089 9
  21337084.737   -14460514.756 7 -11154275.852 9
  22307488.394   -12233946.432 5  -9476866.969 9
  23570277.245    -4400521.552 5     67266.370 9
 92  4 22 20 20 29.9990000  0  6 18 11 19  2  6 16
  21933994.784     7799282.280 6   6071785.908 9
  22900927.979    -6726566.143 6  -5155449.595 9
  20834382.636    -1146346.292 6   -879527.757 9
  21326232.706   -14517539.317 7 -11198710.539 9
  22295350.034   -12297751.255 5  -9526585.005 9
  23572054.854    -4391179.335 5     74545.955 9
 92  4 22 20 20 59.9990000  0  6 18 11 19  2  6 16
  21948899.339     7877620.299 6   6132828.342 9
  22903195.198    -6714650.322 6  -5146164.538 9
  20836311.987    -1136228.051 6   -871643.450 9
  21315433.003   -14574278.780 7 -11242923.068 9
  22283214.300   -12361504.427 5  -9576262.762 9
  23573924.065    -4381351.255 5     82204.135 9
 92  4 22 20 21 29.9990000  0  6 18 11 19  2  6 16
  21963871.019     7956287.622 6   6194127.365 9
  22905573.792    -6702138.569 6  -5136415.120 9
  20838280.026    -1125875.474 6   -863576.542 9
  21304693.636   -14630722.138 7 -11286904.851 9
  22271096.104   -12425202.061 6  -9625897.275 9
  23575886.503    -4371046.107 5     90234.064 9
 92  4 22 20 21 59.9990000  0  6 18 11 19  2  6 16
  21978909.425     8035297.579 6   6255693.376 9
  22908066.675    -6689033.171 6  -5126203.124 9
  20840291.745    -1115303.240 6   -855338.471 9
  21294011.487   -14686863.214 7 -11330651.088 9
  22258984.706   -12488845.929 5  -9675489.828 9
  23577939.261    -4360265.664 5     98634.311 9
 92  4 22 20 22 29.9990000  0  6 18 11 19  2  6 16
  21994004.519     8114659.586 6   6317533.716 9
  22910679.354    -6675333.265 6  -5115527.884 9
  20842346.995    -1104513.795 6   -846931.145 9
  21283384.636   -14742703.926 7 -11374163.294 9
  22246886.636   -12552434.213 5  -9725039.117 9
  23580075.339    -4349009.432 5    107405.330 9
 92  4 22 20 22 59.9990000  0  6 18 11 19  2  6 16
  22009177.925     8194364.515 6   6379641.251 9
  22913394.636    -6661043.398 6  -5104392.932 9
  20844445.534    -1093516.394 6   -838361.763 9
  21272815.417   -14798236.548 7 -11417435.416 9
  22234792.604   -12615970.644 5  -9774547.989 9
  23582302.886    -4337301.972 5    116527.933 9
 92  4 22 20 23 29.9990000  0  6 18 11 19  2  6 16
  22024404.878     8274392.910 6   6442000.836 9
  22916228.159    -6646164.712 6  -5092799.165 9
  20846583.948    -1082301.877 6   -829623.211 9
  21262307.933   -14853466.678 7 -11460471.834 9
  22222714.245   -12679455.704 5  -9824016.817 9
  23584619.995    -4325151.011 5    125996.150 9
 92  4 22 20 23 59.9990000  0  6 18 11 19  2  6 16
  22039689.300     8354723.352 6   6504595.781 9
  22919174.636    -6630688.525 6  -5080739.798 9
  20848751.034    -1070850.953 6   -820700.440 9
  21251853.987   -14908388.972 7 -11503268.392 9
  22210643.729   -12742880.043 5  -9873438.354 9
  23587015.425    -4312550.461 5    135814.655 9
 92  4 22 20 24 29.9990000  0  6 18 11 19  2  6 16
  22055031.370     8435330.639 6   6567406.461 9
  22922229.800    -6614624.557 6  -5068222.422 9
  20850968.589    -1059166.889 6   -811596.008 9
  21241459.120   -14963022.140 7 -11545839.641 9
  22198587.229   -12806252.299 5  -9922819.316 9
  23589496.050    -4299519.393 5    145968.686 9
 92  4 22 20 24 59.9990000  0  6 18 11 19  2  6 16
  22070420.886     8516213.244 6   6630431.670 9
  22925404.386    -6597969.298 6  -5055244.316 9
  20853244.409    -1047241.557 7   -802303.565 9
  21231115.917   -15017371.179 7 -11588189.494 9
  22186534.386   -12869568.116 5  -9972156.268 9
  23592060.394    -4286054.799 5    156460.454 9
 92  4 22 20 25 29.9990000  0  6 18 11 19  2  6 16
  22085869.253     8597365.585 6   6693667.053 9
  22928681.370    -6580718.157 6  -5041801.863 9
  20855563.347    -1035054.388 6   -792807.096 9
  21220826.667   -15071445.022 7 -11630324.912 9
  22174498.729   -12932821.876 5 -10021444.895 9
  23594702.800    -4272149.852 5    167295.373 9
 92  4 22 20 25 59.9990000  0  6 18 11 19  2  6 16
  22101361.183     8678797.052 6   6757119.926 9
  22932077.190    -6562870.363 6  -5027894.512 9
  20857927.659    -1022615.005 6   -783114.098 9
  21210591.026   -15125227.144 7 -11672233.013 9
  22162473.761   -12996011.845 5 -10070683.789 9
  23597436.487    -4257801.103 5    178476.187 9
 92  4 22 20 26 29.9990000  0  6 18 11 19  2  6 16
  22116908.409     8760521.560 6   6820801.143 9
  22935585.519    -6544426.125 6  -5013522.393 9
  20860342.956    -1009932.323 6   -773231.519 9
  21200414.901   -15178711.625 7 -11713909.191 9
  22150461.987   -13059137.218 5 -10119872.383 9
  23600252.284    -4243000.621 5    190008.864 9
 92  4 22 20 26 59.9990000  0  6 18 11 19  2  6 16
  22132514.894     8842523.717 6   6884698.724 9
  22939206.909    -6525392.983 6  -4998691.381 9
  20862812.933     -997009.406 6   -763161.741 9
  21190293.354   -15231891.541 7 -11755348.045 9
  22138461.526   -13122204.494 6 -10169015.677 9
  23603157.425    -4227751.061 5    201891.571 9
 92  4 22 20 27 29.9990000  0  6 18 11 19  2  6 16
  22148176.198     8924786.719 6   6948799.553 9
  22942942.839    -6505777.322 6  -4983406.478 9
  20865302.550     -983851.010 6   -752908.461 9
  21180233.347   -15284755.974 7 -11796541.073 9
  22126470.401   -13185218.954 5 -10218117.849 9
  23606142.362    -4212049.983 5    214126.082 9
 92  4 22 20 27 59.9990000  0  6 18 11 19  2  6 16
  22163881.034     9007329.476 6   7013118.362 9
  22946788.800    -6485572.614 6  -4967662.580 9
  20867853.675     -970463.202 6   -742476.434 9
  21170239.190   -15337280.213 7 -11837469.010 9
  22114490.503   -13248172.637 6 -10267172.653 9
  23609219.698    -4195872.266 5    226732.021 9
 92  4 22 20 28 29.9990000  0  6 18 11 19  2  6 16
  22179638.394     9090139.648 6   7077645.555 9
  22950745.714    -6464780.735 6  -4951461.143 9
  20870447.651     -956834.319 6   -731856.553 9
  21160307.456   -15389478.793 7 -11878143.191 9
  22102520.456   -13311066.610 6 -10316180.906 9
  23612389.925    -4179223.666 5    239704.873 9
 92  4 22 20 28 59.9990000  0  6 18 11 19  2  6 16
  22195441.026     9173201.933 6   7142369.206 9
  22954814.550    -6443407.624 6  -4934806.780 9
  20873105.058     -942954.925 6   -721041.473 9
  21150432.245   -15441367.167 7 -11918575.649 9
  22090566.284   -13373905.612 6 -10365146.329 9
  23615645.761    -4162119.435 5    253032.720 9
 92  4 22 20 29 29.9990000  0  6 18 11 19  2  6 16
  22211299.433     9256533.605 6   7207302.752 9
  22958987.956    -6421448.534 6  -4917695.821 9
  20875773.901     -928824.095 6   -710030.468 9
  21140616.636   -15492945.779 7 -11958766.739 9
  22078618.675   -13436683.552 6 -10414064.183 9
  23618985.698    -4144560.563 5    266714.918 9
 92  4 22 20 29 59.9990000  0  6 18 11 19  2  6 16
  22227208.214     9340139.717 6   7272450.155 9
  22963280.472    -6398914.194 6  -4900136.626 9
  20878516.073     -914459.346 6   -698837.190 9
  21130856.378   -15544245.135 7 -11998740.230 9
  22066679.839   -13499410.037 6 -10462941.932 9
  23622410.464    -4126572.472 5    280731.508 9
 92  4 22 20 30 29.9990000  0  6 18 11 19  2  6 16
  22243169.495     9424019.190 6   7337810.559 9
  22967678.964    -6375800.693 6  -4882126.128 9
  20881293.956     -899850.103 6   -687453.401 9
  21121142.190   -15595281.252 7 -12038508.588 9
  22054755.503   -13562079.801 6 -10511775.506 9
  23625906.526    -4108167.941 5    295072.630 9
 92  4 22 20 30 59.9990000  0  6 18 11 19  2  6 16
  22259188.534     9508193.033 6   7403400.351 9
  22972183.542    -6352103.930 6  -4863661.152 9
  20884136.058     -885000.353 6   -675882.203 9
  21111484.628   -15646039.253 7 -12078060.236 9
  22042840.550   -13624687.241 6 -10560560.496 9
  23629492.229    -4089345.959 5    309738.974 9
 92  4 22 20 31 29.9990000  0  6 18 11 19  2  6 16
  22275268.331     9592671.402 6   7469227.433 9
  22976807.823    -6327826.244 6  -4844743.508 9
  20886983.159     -869928.321 6   -664137.798 9
  21101880.823   -15696511.036 7 -12117388.866 9
  22030941.229   -13687233.443 6 -10609297.766 9
  23633154.144    -4070110.999 5    324727.201 9
 92  4 22 20 31 59.9990000  0  6 18 11 19  2  6 16
  22291394.222     9677441.564 6   7535281.886 9
  22981538.269    -6302970.352 6  -4825375.311 9
  20889900.050     -854630.286 6   -652217.288 9
  21092329.651   -15746701.328 7 -12156498.147 9
  22019047.784   -13749719.766 6 -10657988.382 9
  23636890.714    -4050465.881 5    340034.967 9
 92  4 22 20 32 29.9990000  0  6 18 11 19  2  6 16
  22307582.901     9762483.155 6   7601547.856 9
  22986378.081    -6277539.986 6  -4805559.462 9
  20892853.323     -839096.439 6   -640113.032 9
  21082836.878   -15796596.337 7 -12195377.340 9
  22007166.167   -13812148.569 6 -10706634.164 9
  23640708.347    -4030416.876 5    355657.470 9
 92  4 22 20 32 59.9990000  0  6 18 11 19  2  6 16
  22323818.737     9847785.301 6   7668016.826 9
  22991320.698    -6251544.344 6  -4785303.141 9
  20895849.448     -823333.813 6   -627830.515 9
  21073396.589   -15846195.504 7 -12234026.004 9
  21995300.503   -13874527.354 6 -10755240.977 9
  23644602.011    -4009965.719 5    371593.374 9
 92  4 22 20 33 29.9990000  0  6 18 11 19  2  6 16
  22340091.792     9933340.847 6   7734683.265 9
  22996376.550    -6224976.960 6  -4764601.303 9
  20898893.698     -807336.205 6   -615364.894 9
  21064014.675   -15895499.338 7 -12272444.545 9
  21983437.362   -13936848.468 6 -10803802.843 9
  23648568.175    -3989094.840 5    387856.284 9
 92  4 22 20 33 59.9990000  0  6 18 11 19  2  6 16
  22356420.761    10019130.811 6   7801532.363 9
  23001536.675    -6197836.553 6  -4743452.955 9
  20901987.831     -791089.813 6   -602705.413 9
  21054687.370   -15944507.672 7 -12310632.815 9
  21971594.815   -13999108.911 6 -10852317.460 9
  23652622.222    -3967797.267 5    404451.666 9
 92  4 22 20 34 29.9990000  0  6 18 11 19  2  6 16
  22372788.230    10105150.520 6   7868560.476 9
  23006811.886    -6170135.132 6  -4721867.446 9
  20905121.745     -774617.173 6   -589869.636 9
  21045416.011   -15993230.264 7 -12348598.449 9
  21959755.362   -14061319.223 6 -10900792.985 9
  23656752.706    -3946085.220 5    421370.062 9
 92  4 22 20 34 59.9990000  0  6 18 11 19  2  6 16
  22389199.401    10191407.089 6   7935773.157 9
  23012190.425    -6141874.523 6  -4699846.217 9
  20908301.597     -757927.585 6   -576864.810 9
  21036199.761   -16041675.958 7 -12386348.308 9
  21947925.105   -14123479.462 6 -10949229.546 9
  23660964.050    -3923958.334 5    438611.692 9
 92  4 22 20 35 29.9990000  0  6 18 11 19  2  6 16
  22405660.144    10277898.023 6   8003168.452 9
  23017678.901    -6113049.678 6  -4677385.342 9
  20911525.581     -741013.330 6   -563684.923 9
  21027032.909   -16089837.522 7 -12423876.771 9
  21936105.862   -14185583.306 6 -10997622.148 9
  23665256.542    -3901424.116 5    456170.757 9
 92  4 22 20 35 59.9990000  0  6 18 11 19  2  6 16
  22422161.862    10364611.932 6   8070737.493 9
  23023267.854    -6083674.721 6  -4654495.778 9
  20914792.362     -723879.259 6   -550333.745 9
  21017922.026   -16137724.315 7 -12461191.111 9
  21924295.284   -14247642.831 6 -11045980.191 9
  23669612.026    -3878509.996 5    474025.799 9
 92  4 22 20 36 29.9990000  0  6 18 11 19  2  6 16
  22438714.940    10451579.193 6   8138503.946 9
  23028966.979    -6053735.903 6  -4631166.829 9
  20918086.503     -706501.591 6   -536792.744 9
  21008863.558   -16185318.204 7 -12498277.239 9
  21912499.276   -14309642.750 6 -11094291.808 9
  23674044.714    -3855204.563 4    492185.797 9
 92  4 22 20 36 59.9990000  0  6 18 11 19  2  6 16
  22455307.964    10538785.402 6   8206456.584 9
  23034762.573    -6023240.554 6  -4607404.234 9
  20921433.597     -688872.053 6   -523055.491 9
  20999863.440   -16232621.750 7 -12535137.106 9
  21900712.089   -14371588.904 6 -11142561.492 9
  23678560.698    -3831511.836 5    510647.554 9
 92  4 22 20 37 29.9990000  0  6 18 11 19  2  6 16
  22471946.144    10626223.809 6   8274590.159 9
  23040679.175    -5992189.875 6  -4583208.914 9
  20924842.019     -670989.321 6   -509120.918 9
  20990918.769   -16279625.547 7 -12571763.405 9
  21888930.394   -14433480.401 6 -11190788.609 9
  23683133.573    -3807434.381 4    529409.142 9
 92  4 22 20 37 59.9990000  0  6 18 11 19  2  6 16
  22488633.542    10713901.635 6   8342910.290 9
  23046688.995    -5960580.757 6  -4558578.438 9
  20928292.511     -652846.268 6   -494983.528 9
  20982028.729   -16326331.406 7 -12608157.549 9
  21877166.378   -14495312.316 6 -11238969.307 9
  23687797.151    -3782960.828 3    548479.286 9
 92  4 22 20 38 29.9990000  0  6 18 11 19  2  6 16
  22505363.417    10801802.350 6   8411404.094 9
  23052810.159    -5928422.710 6  -4533520.235 9
  20931794.386     -634446.750 6   -480646.269 9
  20973195.511   -16372754.410 7 -12644331.275 9
  21865411.784   -14557092.332 6 -11287109.538 9
  23692528.792    -3758089.554 4    567859.424 9
 92  4 22 20 38 59.9990000  0  6 18 11 19  2  6 16
  22522129.081    10889901.679 6   8480052.654 9
  23059034.901    -5895725.873 6  -4508042.191 9
  20935342.565     -615814.016 6   -466127.300 9
  20964414.636   -16418906.335 7 -12680293.778 9
  21853658.604   -14618828.909 6 -11335215.940 9
  23697336.737    -3732837.680 3    587536.099 9
 92  4 22 20 39 29.9990000  0  6 18 11 19  2  6 16
  22538930.050    10978209.289 6   8548863.525 9
  23065357.948    -5862483.812 6  -4482139.310 9
  20938942.081     -596939.454 6   -451419.889 9
  20955680.706   -16464794.205 7 -12716050.531 9
  21841924.331   -14680513.775 6 -11383282.076 9
  23702208.269    -3707197.961 3    607515.017 9
 92  4 22 20 39 59.9990000  0  6 18 11 19  2  6 16
  22555778.878    11066726.215 6   8617837.490 9
  23071786.636    -5828699.232 6  -4455813.684 9
  20942570.042     -577813.668 6   -436516.721 9
  20946996.823   -16510425.666 7 -12751607.478 9
  21830196.917   -14742147.447 6 -11431308.299 9
  23707172.589    -3681157.685 3    627806.021 9
 92  4 22 20 40 29.9990000  0  6 18 11 19  2  6 16
  22572661.362    11155452.754 6   8686974.788 9
  23078317.628    -5794372.104 6  -4429065.293 9
  20946258.503     -558440.666 6   -421420.914 9
  20938365.675   -16555784.069 7 -12786951.649 9
  21818478.675   -14803728.225 6 -11479293.302 9
  23712202.745    -3654720.129 3    648406.613 9
 92  4 22 20 40 59.9990000  0  6 18 11 19  2  6 16
  22589589.229    11244399.045 6   8756283.311 9
  23084952.401    -5759502.841 6  -4401894.470 9
  20949996.214     -538828.731 6   -406138.930 9
  20929787.003   -16600870.081 7 -12822083.584 9
  21806768.831   -14865254.333 6 -11527235.704 9
  23717305.339    -3627886.530 4    669315.828 9
 92  4 22 20 41 29.9990000  0  6 18 11 19  2  6 16
  22606552.183    11333573.657 6   8825769.764 9
  23091691.659    -5724091.068 6  -4374300.920 9
  20953783.940     -518976.482 6   -390669.687 9
  20921259.097   -16645681.948 7 -12857001.880 9
  21795072.815   -14926723.837 6 -11575133.989 9
  23722489.354    -3600649.628 4    690539.305 9
 92  4 22 20 41 59.9990000  0  6 18 11 19  2  6 16
  22623564.019    11422965.570 6   8895425.525 9
  23098537.222    -5688148.834 6  -4346294.037 9
  20957580.878     -498910.737 6   -375034.084 9
  20912785.034   -16690217.928 7 -12891705.218 9
  21783382.401   -14988146.241 6 -11622995.579 9
  23727745.472    -3573039.448 4    712053.576 9
 92  4 22 20 42 29.9990000  0  6 18 11 19  2  6 16
  22640622.526    11512597.060 6   8965267.976 9
  23105474.292    -5651658.283 6  -4317859.881 9
  20961450.394     -478625.250 6   -359227.258 9
  20904363.839   -16734471.728 7 -12926188.665 9
  21771705.386   -15049501.935 6 -11670805.195 9
  23733066.558    -3545058.677 5    733856.687 9
 92  4 22 20 42 59.9990000  0  6 18 11 19  2  6 16
  22657715.128    11602443.858 6   9035278.199 9
  23112520.940    -5614640.195 6  -4289014.658 9
  20965350.667     -458132.849 6   -343259.195 9
  20895990.394   -16778472.450 7 -12960474.913 9
  21760039.917   -15110809.483 6 -11718577.284 9
  23738459.479    -3516731.782 5    755929.490 9
 92  4 22 20 43 29.9990000  0  6 18 11 19  2  6 16
  22674859.222    11692506.078 6   9105456.275 9
  23119669.112    -5577082.928 6  -4259749.318 9
  20969308.245     -437408.643 6   -327110.508 9
  20887671.159   -16822187.527 7 -12994538.590 9
  21748387.394   -15172054.652 6 -11766300.780 9
  23743913.870    -3488063.499 5    778268.298 9
 92  4 22 20 43 59.9990000  0  6 18 11 19  2  6 16
  22692035.558    11782774.294 6   9175794.858 9
  23126922.284    -5538987.257 6  -4230064.434 9
  20973284.362     -416434.026 6   -310766.695 9
  20879406.120   -16865614.238 7 -13028377.554 9
  21736744.292   -15233236.599 6 -11813975.001 9
  23749436.995    -3459055.893 5    800871.526 9
 92  4 22 20 44 29.9990000  0  6 18 11 19  2  6 16
  22709247.339    11873217.219 6   9246269.579 9
  23134266.370    -5500360.575 6  -4199965.775 9
  20977328.550     -395188.587 6   -294211.863 9
  20871197.292   -16908753.819 7 -13061992.791 9
  21725113.878   -15294360.525 6 -11861604.021 9
  23755021.190    -3429701.076 5    823745.314 9
 92  4 22 20 44 59.9990000  0  6 18 11 19  2  6 16
  22726487.214    11963820.018 6   9316868.874 9
  23141722.183    -5461204.216 6  -4169454.393 9
  20981426.175     -373659.842 6   -277436.273 9
  20863044.339   -16951593.358 7 -13095374.226 9
  21713491.878   -15355425.463 6 -11909187.051 9
  23760671.612    -3399983.703 4    846901.614 9
 92  4 22 20 45 29.9990000  0  6 18 11 19  2  6 16
  22743763.159    12054595.795 6   9387602.962 9
  23149270.440    -5421516.259 6  -4138528.764 9
  20985573.292     -351849.763 6   -260441.461 9
  20854948.534   -16994141.858 7 -13128528.882 9
  21701886.144   -15416427.082 6 -11956720.745 9
  23766403.917    -3369895.274 5    870347.014 9
 92  4 22 20 45 59.9990000  0  6 18 11 19  2  6 16
  22761066.995    12145539.824 6   9458468.160 9
  23156925.534    -5381304.387 6  -4107194.889 9
  20989775.808     -329774.505 6   -243240.019 9
  20846902.690   -17036423.901 7 -13161475.901 9
  21690289.659   -15477370.733 6 -12004209.304 9
  23772197.019    -3339428.554 5    894087.203 9
 92  4 22 20 46 29.9990000  0  6 18 11 19  2  6 16
  22778408.581    12236660.979 5   9529471.385 9
  23164674.050    -5340572.119 6  -4075455.526 9
  20994025.792     -307447.681 6   -225842.540 9
  20838905.464   -17078448.029 7 -13194221.948 9
  21678699.815   -15538257.762 6 -12051653.714 9
  23778066.112    -3308579.604 5    918125.255 9
 92  4 22 20 46 59.9990000  0  6 18 11 19  2  6 16
  22795788.019    12327982.898 6   9600631.036 9
  23172519.800    -5299329.477 6  -4043318.454 9
  20998317.370     -284897.785 6   -208271.252 9
  20830956.480   -17120219.646 7 -13226771.240 9
  21667122.269   -15599096.378 6 -12099060.409 9
  23784010.698    -3277362.808 5    942449.919 9
 92  4 22 20 47 29.9990000  0  6 18 11 19  2  6 16
  22813204.769    12419515.808 6   9671955.084 9
  23180470.612    -5257563.842 6  -4010773.874 9
  21002651.440     -262113.850 6   -190517.585 9
  20823059.769   -17161714.539 7 -13259104.897 9
  21655560.269   -15659869.313 6 -12146415.917 9
  23790017.854    -3245785.860 5    967055.235 9
 92  4 22 20 47 59.9990000  0  6 18 11 19  2  6 16
  22830661.284    12511234.923 6   9743424.245 9
  23188515.847    -5215278.310 6  -3977824.177 9
  21007039.448     -239092.964 6   -172579.296 9
  20815219.925   -17202918.996 7 -13291212.238 9
  21644004.339   -15720580.339 6 -12193723.178 9
  23796093.792    -3213858.311 3    991933.755 9
 92  4 22 20 48 29.9990000  0  6 18 11 19  2  6 16
  22848149.901    12603134.990 6   9815034.403 9
  23196660.339    -5172480.379 6  -3944475.188 9
  21011471.558     -215834.450 6   -154455.822 9
  20807434.597   -17243826.402 7 -13323088.119 9
  21632461.245   -15781232.810 6 -12240984.823 9
  23802229.542    -3181599.573 3   1017070.280 9
 92  4 22 20 48 59.9990000  0  6 18 11 19  2  6 16
  22865669.706    12695197.791 6   9886771.349 9
  23204901.667    -5129171.810 6  -3910728.324 9
  21015924.253     -192338.792 6   -136147.575 9
  20799711.347   -17284425.121 7 -13354723.456 9
  21620930.667   -15841826.725 6 -12288200.838 9
  23808429.433    -3149027.216 4   1042451.224 9
 92  4 22 20 49 29.9990000  0  6 18 11 19  2  6 16
  22883206.526    12787398.390 5   9958615.665 9
  23213245.409    -5085353.478 6  -3876584.205 9
  21020437.269     -168599.137 6   -117649.200 9
  20792039.065   -17324737.029 7 -13386135.308 9
  21609413.237   -15902360.211 6 -12335369.765 9
  23814695.183    -3116142.529 4   1068075.542 9
 92  4 22 20 49 59.9990000  0  6 18 11 19  2  6 16
  22900782.675    12879745.971 5  10030574.517 9
  23221674.589    -5041031.870 6  -3842047.928 9
  21025005.144     -144614.258 6    -98959.742 9
  20784419.612   -17364780.228 7 -13417337.775 9
  21597906.511   -15962834.976 6 -12382492.973 9
  23821012.308    -3082935.561 4   1093950.995 9
 92  4 22 20 50 29.9990000  0  6 18 11 19  2  6 16
  22918386.284    12972260.083 5  10102663.122 9
  23230204.901    -4996201.569 6  -3807115.279 9
  21029623.729     -120379.073 6    -80075.241 9
  20776849.753   -17404553.302 7 -13448329.756 9
  21586411.714   -16023247.845 6 -12429567.906 9
  23827395.354    -3049392.906 3   1120088.038 9
 92  4 22 20 50 59.9990000  0  6 18 11 19  2  6 16
  22936025.065    13064934.226 5  10174876.444 9
  23238836.159    -4950867.271 6  -3771789.904 9
  21034275.151      -95896.760 6    -60998.179 9
  20769328.065   -17444081.458 7 -13479130.885 9
  21574928.237   -16083589.188 6 -12476587.113 9
  23833841.769    -3015511.649 3   1146488.915 9
 92  4 22 20 51 29.9990000  0  6 18 11 19  2  6 16
  22953700.933    13157786.695 6  10247228.706 9
  23247553.769    -4905031.637 6  -3736073.848 9
  21038988.409      -71160.953 6    -41723.585 9
  20761851.065   -17483375.644 7 -13509749.701 9
  21563454.409   -16143874.166 6 -12523562.397 9
  23840348.909    -2981291.666 3   1173153.691 9
 92  4 22 20 51 59.9990000  0  6 18 11 19  2  6 16
  22971405.089    13250831.336 6  10319730.707 9
  23256371.464    -4858697.133 6  -3699969.069 9
  21043751.026      -46169.695 6    -22249.938 9
  20754418.581   -17522416.836 7 -13540171.387 9
  21551997.394   -16204099.115 6 -12570490.918 9
  23846927.425    -2946741.543 3   1200075.747 9
 92  4 22 20 52 29.9990000  0  6 18 11 19  2  6 16
  22989140.222    13344059.005 5  10392375.318 9
  23265284.479    -4811868.770 6  -3663479.489 9
  21048541.198      -20932.512 6     -2584.665 9
  20747041.073   -17561204.769 7 -13570395.715 9
  21540546.776   -16264267.549 6 -12617375.397 9
  23853560.417    -2911879.960 4   1227240.526 9
 92  4 22 20 52 59.9990000  0  6 18 11 19  2  6 16
  23006920.612    13437468.155 5  10465161.349 9
  23274284.667    -4764545.069 6  -3626603.907 9
  21053397.276        4564.939 6     17283.414 9
  20739708.104   -17599731.868 7 -13600416.796 9
  21529109.925   -16324361.713 6 -12664201.979 9
  23860252.300    -2876721.094 4   1254636.899 9
 92  4 22 20 53 29.9990000  0  6 18 11 19  2  6 16
  23024720.479    13531035.484 5  10538070.627 9
  23283384.683    -4716736.194 6  -3589350.298 9
  21058305.761       30324.853 6     37356.021 9
  20732427.933   -17637989.919 7 -13630228.235 9
  21517683.526   -16384405.588 6 -12710989.413 9
  23866991.261    -2841286.317 4   1282248.298 9
 92  4 22 20 53 59.9990000  0  6 18 11 19  2  6 16
  23042554.073    13624751.215 5  10611095.555 9
  23292577.933    -4668435.463 6  -3551713.393 9
  21063269.214       56361.159 6     57643.995 9
  20725202.276   -17675966.999 7 -13659820.746 9
  21506269.128   -16444382.851 6 -12757724.914 9
  23873789.214    -2805565.293 5   1310082.754 9
 92  4 22 20 54 29.9990000  0  6 18 11 19  2  6 16
  23060419.136    13718597.144 5  10684221.926 9
  23301862.042    -4619642.951 6  -3513693.293 9
  21068259.815       82677.814 6     78150.418 9
  20718026.862   -17713668.982 7 -13689198.889 9
  21494870.581   -16504290.939 6 -12804406.531 9
  23880648.972    -2769553.409 5   1338143.852 9
 92  4 22 20 54 59.9990000  0  6 18 11 19  2  6 16
  23078297.573    13812562.816 5  10757441.612 9
  23311237.667    -4570363.384 6  -3475293.678 9
  21073323.714      109270.724 6     98872.104 9
  20710903.300   -17751103.850 7 -13718368.887 9
  21483481.245   -16564132.110 6 -12851036.006 9
  23887551.979    -2733243.806 4   1366436.926 9
 92  4 22 20 55 29.9990000  0  6 18 11 19  2  6 16
  23096202.401    13906646.915 5  10830753.546 9
  23320705.370    -4520601.771 6  -3436518.424 9
  21078435.683      136120.283 6    119793.787 9
  20703829.956   -17788274.159 7 -13747332.728 9
  21472107.847   -16623908.374 6 -12897614.878 9
  23894523.597    -2696623.690 5   1394971.921 9
 92  4 22 20 55 59.9990000  0  6 18 11 19  2  6 16
  23114133.362    14000868.860 5  10904172.897 9
  23330279.886    -4470362.710 6  -3397371.153 9
  21083599.589      163197.696 6    140893.014 9
  20696807.214   -17825181.428 7 -13776091.627 9
  21460747.026   -16683620.820 6 -12944144.022 9
  23901549.729    -2659681.998 4   1423757.540 9
 92  4 22 20 56 29.9990000  0  6 18 11 19  2  6 16
  23132095.308    14095227.953 5  10977699.117 9
  23339923.776    -4419648.468 6  -3357853.620 9
  21088776.722      190482.740 6    162154.035 9
  20689831.964   -17861835.177 7 -13804652.955 9
  21449397.620   -16743270.079 6 -12990623.960 9
  23908641.378    -2622422.439 5   1452790.851 9
 92  4 22 20 56 59.9990000  0  5 18 11 19  2  6
  23150073.011    14189731.738 5  11051338.083 9
  23349664.198    -4368461.213 6  -3317967.486 9
  21094007.644      217970.395 6    183572.936 9
  20682905.745   -17898239.562 7 -13833019.974 9
  21438058.159   -16802854.765 6 -13037053.568 9
 92  4 22 20 57 29.9990000  0  6 18 11 19  2  6 16
  23168077.073    14284379.783 5  11125089.459 9
  23359494.104    -4316804.310 6  -3277715.377 9
  21099276.839      245668.650 6    205155.939 9
  20676023.628   -17934393.179 7 -13861191.598 9
  21426728.800   -16862375.804 6 -13083433.563 9
  23923012.401       37900.625 4        -0.53419
 92  4 22 20 57 59.9990000  0  6 18 11 19  2  6 16
  23186114.065    14379156.659 5  11198941.215 9
  23369408.839    -4264685.716 6  -3237103.539 9
  21104586.237      273586.986 6    226910.444 9
  20669190.948   -17970304.068 7 -13889174.089 9
  21415413.690   -16921837.597 6 -13129767.395 9
  23930269.253       76102.337 3     29766.899 9
 92  4 22 20 58 29.9990000  0  6 18 11 19  2  6 16
  23204175.776    14474048.438 5  11272882.502 9
  23379417.487    -4212097.342 6  -3196125.618 9
  21109952.636      301764.525 6    248866.913 9
  20662406.167   -18005963.105 7 -13916960.325 9
  21404111.753   -16981233.269 6 -13176049.742 9
  23937599.050      114596.355 3     59762.115 9
 92  4 22 20 58 59.9990000  0  6 18 11 19  2  6 16
  23222257.425    14569045.704 5  11346905.975 9
  23389511.784    -4159051.663 6  -3154791.380 9
  21115366.417      330209.077 6    271031.452 9
  20655669.597   -18041368.637 7 -13944549.024 9
  21392822.659   -17040558.781 6 -13222277.368 9
  23944980.620      153362.865 4     89969.659 9
 92  4 22 20 59 29.9990000  0  6 18 11 19  2  6 16
  23240352.425    14664153.269 5  11421015.391 9
  23399690.675    -4105535.522 6  -3113090.524 9
  21120837.331      358947.587 6    293425.052 9
  20648983.011   -18076497.062 7 -13971921.801 9
  21381546.925   -17099813.038 6 -13268449.494 9
  23952403.800      192394.151 3    120383.529 9
 92  4 22 20 59 59.9990000  0  6 18 11 19  2  6 16
  23258461.675    14759351.820 5  11495195.712 9
  23409964.026    -4051559.317 6  -3071031.182 9
  21126360.097      387974.856 6    316043.648 9
  20642349.558   -18111357.670 7 -13999085.886 9
  21370282.831   -17159001.576 6 -13314570.416 9
  23959876.581      231664.347 4    150983.545 9
 92  4 22 21  0 29.9990000  0  6 18 11 19  2  6 16
  23276597.972    14854635.075 5  11569442.031 9
  23420325.269    -3997128.928 6  -3028617.939 9
  21131940.269      417283.095 6    338881.189 9
  20635764.839   -18145961.476 7 -14026049.876 9
  21359036.909   -17218111.261 6 -13360629.887 9
  23967394.354      271169.569 3    181766.678 9
 92  4 22 21  0 59.9990000  0  6 18 11 19  2  6 16
  23294756.058    14950019.358 5  11643767.075 9
  23430761.769    -3942240.192 5  -2985847.547 9
  21137576.144      446863.021 6    361930.445 9
  20629229.401   -18180306.538 7 -14052812.241 9
  21347801.144   -17277153.510 7 -13406636.824 9
  23974964.456      310924.979 3    212744.784 9
 92  4 22 21  1 29.9980000  0  6 18 11 19  2  6 16
  23312923.225    15045501.460 5  11718168.339 9
  23441301.779    -3886901.007 6  -2942726.149 9
  21143237.584      476704.858 6    385183.771 9
  20622741.201   -18214401.478 7 -14079379.703 9
  21336577.889   -17336126.925 6 -13452590.105 9
  23982574.725      350933.853 4    243920.437 9
 92  4 22 21  1 59.9980000  0  6 18 11 19  2  6 16
  23331113.287    15141100.723 5  11792660.885 9
  23451914.248    -3831106.626 6  -2899250.099 9
  21148963.764      506795.829 6    408631.232 9
  20616298.412   -18248245.261 7 -14105751.466 9
  21325368.717   -17395025.041 7 -13498484.720 9
  23990245.756      391213.653 3    275307.143 9
 92  4 22 21  2 29.9980000  0  6 18 11 19  2  6 16
  23349334.092    15236828.320 5  11867253.435 9
  23462618.553    -3774861.749 6  -2855422.977 9
  21154741.115      537119.250 6    432259.817 9
  20609906.818   -18281849.862 7 -14131936.854 9
  21314175.873   -17453846.459 6 -13544319.598 9
  23997958.146      431768.436 3    306908.146 9
 92  4 22 21  2 59.9980000  0  6 18 11 19  2  6 16
  23367570.045    15332694.728 5  11941954.141 9
  23473412.561    -3718170.533 6  -2811248.091 9
  21160552.896      567668.157 6    456064.112 9
  20603555.607   -18315211.156 7 -14157932.652 9
  21302998.256   -17512593.397 7 -13590096.388 9
  24005727.459      472590.551 3    338717.434 9
 92  4 22 21  3 29.9980000  0  6 18 11 19  2  6 16
  23385837.607    15428682.999 5  12016749.797 9
  23484278.732    -3661037.944 6  -2766729.263 9
  21166409.732      598451.860 6    480051.360 9
  20597254.592   -18348328.895 7 -14183738.659 9
  21291832.850   -17571267.601 6 -13635816.540 9
  24013549.561      513672.033 4    370728.805 9
 92  4 22 21  3 59.9980000  0  6 18 11 19  2  6 16
  23404128.022    15524779.798 5  12091630.037 9
  23495237.787    -3603463.335 6  -2721866.001 9
  21172313.756      629481.632 6    504230.352 9
  20591000.381   -18381200.789 7 -14209353.112 9
  21280681.717   -17629864.676 6 -13681476.599 9
  24021405.850      555016.531 3    402945.146 9
 92  4 22 21  4 29.9980000  0  6 18 11 19  2  6 16
  23422426.373    15620970.823 5  12166583.668 9
  23506276.373    -3545457.591 5  -2676666.780 9
  21178282.037      660763.939 6    528606.121 9
  20584789.404   -18413831.783 7 -14234779.831 9
  21269544.529   -17688392.274 7 -13727082.483 9
  24029328.865      596614.173 3    435358.770 9
 92  4 22 21  4 59.9980000  0  6 18 11 19  2  6 16
  23440756.326    15717242.867 5  12241600.461 9
  23517389.592    -3487021.712 5  -2631132.378 9
  21184267.881      692318.980 6    553194.407 9
  20578633.475   -18446194.465 7 -14259997.492 9
  21258421.061   -17746848.546 7 -13772632.827 9
  24037300.326      638475.613 4    467977.917 9
 92  4 22 21  5 29.9980000  0  6 18 11 19  2  6 16
  23459084.607    15813583.320 5  12316670.556 9
  23528595.006    -3428151.183 5  -2585259.320 9
  21190334.326      724167.150 6    578011.106 9
  20572525.381   -18478280.730 7 -14284999.760 9
  21247310.623   -17805226.210 6 -13818121.894 9
  24045309.568      680603.096 4    500804.385 9
 92  4 22 21  5 59.9980000  0  6 18 11 19  2  6 16
  23477423.545    15910002.482 5  12391801.958 9
  23539881.248    -3368852.834 5  -2539052.855 9
  21196452.771      756295.567 6    603046.178 9
  20566470.537   -18510102.166 7 -14309795.660 9
  21236215.693   -17863527.250 7 -13863551.249 9
  24053372.045      722989.198 3    533832.357 9
 92  4 22 21  6 29.9980000  0  6 18 11 19  2  6 16
  23495796.615    16006506.617 5  12466999.580 9
  23551244.209    -3309129.911 6  -2492515.576 9
  21202630.576      788698.801 6    628295.396 9
  20560464.990   -18541662.882 7 -14334388.407 9
  21225137.725   -17921753.420 6 -13908922.284 9
  24061489.209      765620.132 3    567051.131 9
 92  4 22 21  6 59.9980000  0  6 18 11 19  2  6 16
  23514174.975    16103086.513 5  12542256.220 9
  23562688.506    -3248983.153 5  -2445648.020 9
  21208829.029      821373.314 6    653755.985 9
  20554502.420   -18572981.690 7 -14358792.652 9
  21214072.998   -17979900.345 7 -13954231.548 9
  24069646.123      808484.678 4    600451.903 9
 92  4 22 21  7 29.9980000  0  6 18 11 19  2  6 16
  23532567.857    16199745.166 5  12617574.236 9
  23574216.467    -3188415.085 5  -2398452.211 9
  21215106.459      854309.425 6    679420.421 9
  20548587.537   -18604080.529 7 -14383025.486 9
  21203020.803   -18037967.525 7 -13999478.692 9
  24077840.256      851564.966 5    634020.830 9
 92  4 22 21  7 59.9980000  0  6 18 11 19  2  6 16
  23550980.967    16296486.529 5  12692956.693 9
  23585824.092    -3127431.766 5  -2350932.794 9
  21221413.201      887488.261 6    705273.994 9
  20542709.568   -18634972.825 7 -14407097.391 9
  21191987.928   -18095957.638 7 -14044665.761 9
  24086082.045      894862.320 5    667758.841 9
 92  4 22 21  8 29.9980000  0  6 18 11 19  2  6 16
  23569402.701    16393302.663 5  12768397.427 9
  23597510.240    -3066028.549 6  -2303086.191 9
  21227792.248      920910.389 6    731317.140 9
  20536871.381   -18665644.011 7 -14430996.987 9
  21180969.396   -18153862.998 7 -14089786.808 9
  24094363.100      938372.975 5    701663.112 9
 92  4 22 21  8 59.9980000  0  6 18 11 19  2  6 16
  23587842.615    16490182.067 5  12843887.443 9
  23609274.850    -3004213.945 5  -2254919.031 9
  21234177.287      954565.867 6    757542.109 9
  20531076.420   -18696097.764 7 -14454727.162 9
  21169963.436   -18211688.183 6 -14134845.375 9
  24102678.397      982088.190 5    735726.770 9
 92  4 22 21  9 29.9980000  0  6 18 11 19  2  6 16
  23606290.834    16587135.626 5  12919435.247 9
  23621112.943    -2941985.315 5  -2206429.263 9
  21240626.967      988458.163 6    783951.613 9
  20525326.607   -18726320.606 7 -14478277.415 9
  21158975.381   -18269427.362 7 -14179836.923 9
  24111043.576     1026022.804 5    769961.354 9
 92  4 22 21  9 59.9980000  0  6 18 11 19  2  6 16
  23624755.029    16684151.786 5  12995031.824 9
  23633029.326    -2879347.407 5  -2157620.570 9
  21247123.803     1022584.383 6    810543.406 9
  20519619.498   -18756307.811 7 -14501644.042 9
  21148003.170   -18327081.685 7 -14224762.359 9
  24119449.818     1070181.075 5    804370.208 9
 92  4 22 21 10 29.9980000  0  6 18 11 19  2  6 16
  23643216.459    16781206.905 5  13070658.749 9
  23645026.498    -2816317.160 5  -2108506.184 9
  21253659.936     1056941.031 6    837314.740 9
  20513958.154   -18786060.317 7 -14524827.801 9
  21137046.162   -18384664.578 6 -14269632.119 9
  24127885.256     1114528.063 4    838926.113 9
 92  4 22 21 10 59.9980000  0  7 18 11 19  2  6 16 15
  23661703.795    16878312.998 5  13146325.378 9
  23657100.295    -2752886.816 5  -2059079.999 9
  21260244.529     1091552.890 6    864284.942 9
  20508339.670   -18815579.330 7 -14547829.616 9
  21126105.514   -18442164.529 7 -14314437.257 9
  24136363.248     1159084.558 3    873645.270 9
  24369990.076          -0.23113
 92  4 22 21 11 29.9980000  0  7 18 11 19  2  6 16 15
  23680189.967    16975471.435 5  13222032.812 9
  23669242.193    -2689056.801 5  -2009342.409 9
  21266878.967     1126422.985 6    891456.376 9
  20502767.287   -18844861.638 7 -14570646.974 9
  21115181.209   -18499578.637 7 -14359175.514 9
  24144885.037     1203859.150 4    908534.380 9
  24356112.482      -72973.213 3
 92  4 22 21 11 59.9980000  0  7 18 11 19  2  6 16 15
  23698691.436    17072677.271 5  13297777.176 9
  23681463.154    -2624830.420 5  -1959295.943 9
  21273571.303     1161567.119 6    918841.343 9
  20497245.428   -18873893.329 7 -14593269.066 9
  21104268.928   -18556906.390 6 -14403846.475 9
  24153444.686     1248836.723 3    943581.630 9
  24342258.287     -145737.183 3    -28329.45819
 92  4 22 21 12 29.9980000  0  7 18 11 19  2  6 16 15
  23717198.693    17169945.782 5  13373570.362 9
  23693763.623    -2560210.670 5  -1908942.974 9
  21280309.779     1196989.272 6    946442.950 9
  20491765.787   -18902679.520 7 -14615699.836 9
  21093377.256   -18614147.475 6 -14448449.892 9
  24162036.459     1294013.010 3    978783.768 9
  24328453.873     -218285.780 3    -84860.551 9
 92  4 22 21 12 59.9980000  0  7 18 11 19  2  6 16 15
  23735714.912    17267287.286 4  13449420.435 9
  23706132.990    -2495196.214 5  -1858282.473 9
  21287111.943     1232688.486 6    974260.454 9
  20486335.326   -18931220.051 7 -14637939.199 9
  21082502.662   -18671296.882 7 -14492981.887 9
  24170686.592     1339408.474 4   1014156.688 9
  24314702.873     -290608.939 3   -141215.981 9
 92  4 22 21 13 29.9980000  0  7 18 11 19  2  6 16 15
  23754260.193    17364696.105 4  13525322.964 9
  23718582.639    -2429787.951 5  -1807315.075 9
  21293963.654     1268666.503 6   1002295.199 9
  20480954.373   -18959491.795 7 -14659969.113 9
  21071646.678   -18728351.534 7 -14537440.035 9
  24179363.389     1385006.308 3   1049687.250 9
  24300976.615     -362710.727 3   -197398.936 9
 92  4 22 21 13 59.9980000  0  7 18 11 19  2  6 16 15
  23772807.092    17462161.045 4  13601269.209 9
  23731103.584    -2363998.038 5  -1756050.249 9
  21300848.045     1304920.382 6   1030544.919 9
  20475626.178   -18987505.250 7 -14681797.764 9
  21060805.428   -18785320.084 7 -14581831.100 9
  24188065.334     1430785.189 3   1085358.976 9
  24287300.795     -434591.536 4   -253409.669 9
 92  4 22 21 14 29.9980000  0  7 18 11 19  2  6 16 15
  23791367.029    17559674.676 5  13677253.394 9
  23743692.623    -2297824.669 5  -1704486.670 9
  21307792.045     1341429.328 6   1058993.370 9
  20470339.365   -19015273.004 7 -14703434.962 9
  21049982.029   -18842197.067 6 -14626150.829 9
  24196819.615     1476749.984 3   1121175.527 9
  24273667.420     -506228.870 4   -309230.684 9
 92  4 22 21 14 59.9980000  0  7 18 11 19  2  6 16 15
  23809918.990    17657203.827 4  13753249.696 9
  23756354.951    -2231275.877 5  -1652630.523 9
  21314792.279     1378186.169 6   1087635.004 9
  20465101.990   -19042796.267 7 -14724881.646 9
  21039174.912   -18898986.760 7 -14670402.508 9
  24205591.303     1522888.182 3   1157127.184 9
  24260080.365     -577619.533 4   -364859.494 9
 92  4 22 21 15 29.9980000  0  7 18 11 19  2  6 16 15
  23828474.740    17754744.668 4  13829255.071 9
  23769081.068    -2164345.877 5  -1600477.399 9
  21321841.115     1415197.491 6   1116474.925 9
  20459911.170   -19070077.605 7 -14746139.816 9
  21028389.154   -18955679.539 7 -14714578.693 9
  24214404.357     1569203.850 3   1193217.085 9
  24246540.693     -648746.721 4   -420283.000 9
 92  4 22 21 15 59.9980000  0  7 18 11 19  2  6 16 15
  23847021.967    17852281.499 4  13905257.346 9
  23781902.975    -2097048.197 5  -1548037.754 9
  21328918.475     1452430.308 6   1145487.436 9
  20454758.373   -19097151.180 7 -14767236.093 9
  21017616.912   -19012285.077 7 -14758686.886 9
  24223260.076     1615697.512 2   1229445.689 9
  24233055.076     -719608.410 4   -475499.642 9
 92  4 22 21 16 29.9980000  0  7 18 11 19  2  6 16 15
  23865609.389    17949820.696 5  13981261.444 9
  23794776.264    -2029377.711 5  -1495307.580 9
  21336048.701     1489883.072 6   1174671.345 9
  20449650.123   -19124007.481 7 -14788163.058 9
  21006859.436   -19068794.811 7 -14802720.428 9
  24232133.240     1662383.333 2   1265823.998 9
  24219626.811     -790201.580 4   -530507.072 9
 92  4 22 21 16 59.9980000  0  6 18 11 19  2  6 15
  23884168.365    18047364.164 5  14057268.898 9
  23807726.201    -1961342.318 5  -1442293.072 9
  21343227.146     1527560.296 6   1204030.145 9
  20444578.576   -19150644.668 7 -14808919.296 9
  20996125.857   -19125212.699 6 -14846682.396 9
  24206240.568     -860544.610 5   -585319.572 9
 92  4 22 21 17 29.9980000  0  6 18 11 19  2  6 15
  23902732.264    18144925.764 5  14133290.433 9
  23820736.045    -1892947.043 5  -1388998.157 9
  21350428.709     1565458.822 6   1233561.400 9
  20439550.725   -19177072.323 7 -14829512.260 9
  20985406.436   -19181539.924 7 -14890573.738 9
  24192901.756     -930649.559 5   -639946.596 9
 92  4 22 21 17 59.9980000  0  7 18 11 19  2  6 16 15
  23921302.740    18242517.464 5  14209335.449 9
  23833822.857    -1824187.501 5  -1335419.401 9
  21357685.225     1603594.595 6   1263277.522 9
  20434563.709   -19203279.236 7 -14849933.220 9
  20974706.850   -19237768.399 6 -14934388.114 9
  24259007.787       23644.71713
  24179606.154    -1000510.989 5   -694383.875 9
 92  4 22 21 18 29.9980000  0  7 18 11 19  2  6 16 15
  23939878.662    18340153.930 4  14285415.344 9
  23846980.365    -1755060.894 5  -1281554.638 9
  21364996.889     1641993.886 6   1293198.988 9
  20429620.803   -19229260.145 7 -14870178.064 9
  20964026.482   -19293891.359 7 -14978120.273 9
  24268032.584       71071.250 3     18494.67119
  24166350.256    -1070125.104 4   -748628.440 9
 92  4 22 21 18 59.9980000  0  7 18 11 19  2  6 16 15
  23958474.475    18437829.976 4  14361526.053 9
  23860196.029    -1685576.648 5  -1227411.214 9
  21372366.428     1680669.191 6   1323335.517 9
  20424714.553   -19255032.555 7 -14890260.444 9
  20953369.529   -19349914.190 6 -15021774.410 9
  24277087.396      118660.358 3     55576.820 9
  24153157.826    -1139500.034 5   -802686.642 9
 92  4 22 21 19 29.9980000  0  6 18 11 19  2  6 15
  23977064.232    18535546.645 4  14437668.460 9
  23873488.998    -1615737.643 5  -1172991.326 9
  21379763.131     1719630.372 6   1353694.816 9
  20419849.803   -19280598.298 7 -14910181.781 9
  20942723.592   -19405836.363 7 -15065350.108 9
  24139992.107    -1208622.426 5   -856548.076 9
 92  4 22 21 19 59.9980000  0  6 18 11 19  2  6 15
  23995668.420    18633292.138 4  14513833.323 9
  23886846.037    -1545555.234 5  -1118303.812 9
  21387234.264     1758869.902 6   1384271.008 9
  20415024.842   -19305957.338 7 -14929942.052 9
  20932099.521   -19461665.038 7 -15108852.951 9
  24126898.576    -1277485.804 5   -910207.661 9
 92  4 22 21 20 29.9980000  0  6 18 11 19  2  6 15
  24014270.678    18731071.598 4  14590024.646 9
  23900260.959    -1475034.459 5  -1063352.670 9
  21394757.029     1798386.064 6   1415062.757 9
  20410240.029   -19331107.314 7 -14949539.423 9
  20921493.014   -19517401.392 7 -15152283.863 9
  24113846.459    -1346096.269 5   -963670.196 9
 92  4 22 21 20 59.9980000  0  6 18 11 19  2  6 15
  24032884.100    18828895.054 4  14666250.234 9
  23913748.631    -1404163.911 5  -1008128.954 9
  21402340.248     1838190.185 6   1446078.890 9
  20405498.646   -19356018.471 7 -14968950.702 9
  20910909.709   -19573029.933 7 -15195630.744 9
  24100832.092    -1414437.320 5  -1016922.752 9
 92  4 22 21 21 29.9980000  0  6 18 11 19  2  6 15
  24051509.506    18926746.249 4  14742497.461 9
  23927302.982    -1332952.302 5   -952639.480 9
  21409951.256     1878252.667 6   1477296.336 9
  20400802.193   -19380694.076 7 -14988178.433 9
  20900344.381   -19628555.704 7 -15238897.558 9
  24087876.467    -1482511.114 5  -1069967.096 9
 92  4 22 21 21 59.9980000  0  6 18 11 19  2  6 15
  24070137.100    19024611.422 4  14818755.561 9
  23940921.475    -1261403.217 5   -896887.050 9
  21417629.029     1918566.474 6   1508709.626 9
  20396151.037   -19405142.028 7 -15007228.776 9
  20889795.037   -19683978.243 7 -15282083.935 9
  24074978.717    -1550319.922 5  -1122804.938 9
 92  4 22 21 22 29.9980000  0  6 18 11 19  2  6 15
  24088761.771    19122477.351 4  14895014.263 9
  23954593.842    -1189519.047 5   -840873.497 9
  21425344.873     1959139.372 6   1540324.796 9
  20391540.334   -19429369.848 8 -15026107.589 9
  20879269.287   -19739295.940 7 -15325188.604 9
  24062116.920    -1617852.522 5  -1175427.536 9
 92  4 22 21 22 59.9980000  0  6 18 11 19  2  6 15
  24107374.990    19220320.654 4  14971255.287 9
  23968337.107    -1117303.667 5   -784601.847 9
  21433115.529     1999965.969 6   1572137.670 9
  20386972.295   -19453377.415 7 -15044814.769 9
  20868762.561   -19794508.554 7 -15368211.393 9
  24049326.686    -1685093.439 5  -1227822.862 9
 92  4 22 21 23 29.9980000  0  6 18 11 19  2  6 15
  24125984.639    19318128.153 4  15047468.453 9
  23982138.186    -1044763.789 5   -728077.388 9
  21440925.146     2041043.272 6   1604145.872 9
  20382444.100   -19477173.883 7 -15063357.457 9
  20858274.998   -19849618.709 7 -15411154.354 9
  24036590.873    -1752037.069 5  -1279986.549 9
 92  4 22 21 23 59.9980000  0  6 18 11 19  2  6 15
  24144592.873    19415899.438 4  15123653.415 9
  23996010.592     -971899.344 5   -671299.987 9
  21448799.709     2082384.083 6   1636359.421 9
  20377958.014   -19500749.677 7 -15081728.199 9
  20847806.764   -19904622.690 7 -15454014.569 9
  24023902.146    -1818672.179 4  -1331909.774 9
 92  4 22 21 24 29.9980000  0  6 18 11 19  2  6 15
  24163198.240    19513643.719 4  15199817.295 9
  24009934.342     -898709.166 5   -614268.741 9
  21456713.365     2123987.501 6   1668777.594 9
  20373514.029   -19524095.511 7 -15099919.734 9
  20837362.740   -19959514.918 7 -15496787.705 9
  24011288.623    -1884995.624 5  -1383590.186 9
 92  4 22 21 24 59.9980000  0  6 18 11 19  2  6 15
  24181795.639    19611368.068 4  15275965.650 9
  24023928.850     -825193.131 5   -556983.627 9
  21464681.584     2165841.692 6   1701391.177 9
  20369116.889   -19547209.644 7 -15117930.740 9
  20826939.639   -20014291.514 7 -15539470.735 9
  23998732.381    -1951022.008 5  -1435039.111 9
 92  4 22 21 25 29.9980000  0  6 18 11 19  2  6 15
  24200378.740    19709072.160 4  15352098.249 9
  24037978.365     -751355.940 5   -499448.257 9
  21472695.490     2207942.905 6   1734197.230 9
  20364760.365   -19570103.524 7 -15135770.124 9
  20816537.186   -20068952.870 7 -15582063.971 9
  23986222.443    -2016761.079 5  -1486264.159 9
 92  4 22 21 25 59.9980000  0  6 18 11 19  2  6 15
  24218966.342    19806743.951 4  15428205.606 9
  24052085.373     -677203.070 5   -441666.905 9
  21480761.232     2250285.366 6   1767191.283 9
  20360443.412   -19592784.113 7 -15153443.290 9
  20806156.936   -20123500.247 7 -15624568.408 9
  23973767.107    -2082219.220 5  -1537270.296 9
 92  4 22 21 26 29.9980000  0  6 18 11 19  2  6 15
  24237545.240    19904388.819 4  15504292.053 9
  24066252.146     -602734.891 5   -383639.874 9
  21488847.576     2292873.109 6   1800376.449 9
  20356169.436   -19615244.510 7 -15170944.877 9
  20795799.912   -20177930.498 7 -15666981.566 9
  23961361.123    -2147394.985 5  -1588056.423 9
 92  4 22 21 26 59.9980000  0  6 18 11 19  2  6 15
  24256132.686    20002006.337 4  15580357.164 9
  24080494.123     -527956.241 5   -325370.893 9
  21497001.006     2335715.309 6   1833759.894 9
  20351938.717   -19637483.477 7 -15188273.930 9
  20785463.295   -20232244.133 7 -15709303.849 9
  23949016.459    -2212279.315 5  -1638615.445 9
 92  4 22 21 27 29.9980000  0  6 18 11 19  2  6 15
  24274702.201    20099591.139 4  15656396.775 9
  24094784.357     -452873.385 5   -266864.845 9
  21505204.607     2378821.695 6   1867349.193 9
  20347749.412   -19659495.267 7 -15205425.969 9
  20775149.607   -20286443.125 7 -15751536.807 9
  23936725.873    -2276861.997 5  -1688939.453 9
 92  4 22 21 27 59.9980000  0  6 18 11 19  2  6 15
  24293266.467    20197155.220 4  15732420.220 9
  24109120.842     -377487.652 5   -208122.784 9
  21513463.709     2422196.637 6   1901147.762 9
  20343604.920   -19681271.773 7 -15222394.660 9
  20764860.139   -20340524.777 7 -15793678.328 9
  23924489.896    -2341131.921 5  -1739019.742 9
 92  4 22 21 28 29.9980000  0  6 18 11 19  2  6 15
  24311824.912    20294723.274 3  15808446.816 9
  24123525.787     -301796.724 5   -149142.987 9
  21521765.264     2465851.729 6   1935164.629 9
  20339505.232   -19702816.140 7 -15239182.458 9
  20754591.225   -20394482.376 7 -15835723.195 9
  23912318.967    -2405080.723 5  -1788849.828 9
 92  4 22 21 28 59.9980000  0  6 18 11 19  2  6 15
  24330397.451    20392296.088 3  15884477.064 9
  24137985.139     -225798.701 5    -89923.840 9
  21530133.600     2509791.304 6   1969403.168 9
  20335445.873   -19724145.076 7 -15255802.399 9
  20744348.350   -20448310.102 7 -15877666.844 9
  23900223.178    -2468696.063 5  -1838420.110 9
 92  4 22 21 29 29.9980000  0  6 18 11 19  2  6 15
  24348969.920    20489863.944 3  15960503.452 8
  24152501.967     -149493.805 5    -30465.618 9
  21538554.287     2554011.475 6   2003860.348 9
  20331426.803   -19745267.958 7 -15272261.760 9
  20734130.084   -20502003.936 7 -15919506.178 9
  23888178.068    -2531978.073 5  -1887730.621 9
 92  4 22 21 29 59.9980000  0  6 18 11 19  2  6 15
  24367529.951    20587421.332 3  16036521.693 9
  24167083.373      -72891.049 5     29224.730 9
  21547007.561     2598501.492 6   2038527.812 9
  20327441.373   -19766203.423 7 -15288575.099 9
  20723938.529   -20555568.561 7 -15961244.822 9
  23876194.850    -2594930.873 5  -1936784.663 9
 92  4 22 21 30 29.9980000  0  6 18 11 19  2  6 15
  24386094.209    20684967.448 3  16112531.167 9
  24181719.154        4015.029 5     89151.420 9
  21555532.662     2643260.420 6   2073404.792 9
  20323496.021   -19786946.521 7 -15304738.541 9
  20713772.670   -20608994.656 7 -16002875.531 9
  23864272.295    -2657547.469 5  -1985576.682 9
 92  4 22 21 30 59.9980000  0  6 18 11 19  2  6 15
  24404656.232    20782483.219 3  16188516.987 9
  24196415.045       81219.406 5    149310.523 9
  21564096.428     2688277.858 6   2108483.219 9
  20319584.975   -19807488.289 7 -15320745.103 9
  20703630.389   -20662282.734 7 -16044398.688 9
  23852422.139    -2719831.309 5  -2034109.388 9
 92  4 22 21 31 29.9980000  0  5 11 19  2  6 15
  24211155.646      158714.003 5    209695.792 9
  21572725.248     2733538.674 6   2143751.288 9
  20315718.537   -19827816.886 7 -15336585.555 9
  20693516.920   -20715436.734 7 -16085817.360 9
  23840635.318    -2781791.250 5  -2082389.791 9
 92  4 22 21 31 59.9980000  0  5 11 19  2  6 15
  24225964.428      236497.553 5    270306.253 9
  21581364.467     2779042.860 6   2179208.998 9
  20311891.342   -19847918.661 7 -15352249.263 9
  20683427.631   -20768453.846 7 -16127129.386 9
  23828910.514    -2843422.073 5  -2130413.746 9
 92  4 22 21 32 29.9980000  0  5 11 19  2  6 15
  24240814.467      314571.534 4    331142.979 9
  21590079.740     2824796.440 6   2214861.034 9
  20308111.475   -19867786.984 7 -15367731.063 9
  20673365.568   -20821328.076 7 -16168330.063 9
  23817240.998    -2904724.243 5  -2178181.572 9
 92  4 22 21 32 59.9980000  0  5 11 19  2  6 15
  24255733.990      392928.996 5    392200.590 9
  21598829.381     2870805.616 6   2250712.230 9
  20304374.303   -19887431.382 7 -15383038.360 9
  20663332.537   -20874062.282 7 -16209421.627 9
  23805636.990    -2965693.831 5  -2225690.242 9
 92  4 22 21 33 29.9980000  0  5 11 19  2  6 15
  24270694.100      471571.088 5    453480.060 9
  21607650.482     2917083.517 6   2286772.826 9
  20300677.764   -19906853.723 7 -15398172.653 9
  20653321.826   -20926650.989 7 -16250399.829 9
  23794106.092    -3026307.066 5  -2272921.241 9
 92  4 22 21 33 59.9980000  0  5 11 19  2  6 15
  24285711.537      550485.290 5    514971.516 9
  21616489.326     2963632.283 6   2323044.491 9
  20297019.295   -19926076.254 7 -15413151.232 9
  20643341.482   -20979102.400 7 -16291271.035 9
  23782641.272    -3086571.405 5  -2319880.415 9
 92  4 22 21 34 29.9980000  0  5 11 19  2  6 15
  24300775.053      629672.713 5    576675.874 9
  21625406.467     3010460.132 6   2359533.623 9
  20293398.576   -19945106.702 7 -15427980.140 9
  20633389.178   -21031411.250 7 -16332031.155 9
  23771241.373    -3146478.178 5  -2366560.899 9
 92  4 22 21 34 59.9980000  0  5 11 19  2  6 15
  24315897.740      709129.064 5    638589.766 9
  21634370.232     3057566.704 6   2396239.935 9
  20289814.607   -19963943.650 7 -15442658.275 9
  20623461.670   -21083577.288 7 -16372679.999 9
  23759910.779    -3206014.162 5  -2412952.483 9
 92  4 22 21 35 29.9980000  0  5 11 19  2  6 15
  24331068.912      788848.108 5    700708.408 9
  21643379.795     3104942.787 6   2433156.253 9
  20286264.959   -19982581.178 7 -15457181.008 9
  20613562.412   -21135602.584 7 -16413219.169 9
  23748644.490    -3265181.575 5  -2459056.867 9
 92  4 22 21 35 59.9980000  0  5 11 19  2  6 15
  24346286.561      868829.989 5    763031.832 9
  21652453.865     3152586.606 6   2470281.202 9
  20282759.826   -20001011.458 7 -15471542.262 9
  20603688.303   -21187482.753 7 -16453645.258 9
  23737462.959    -3323990.884 5  -2504882.220 9
 92  4 22 21 36 29.9980000  0  5 11 19  2  6 15
  24361554.022      949064.556 5    825552.149 9
  21661567.967     3200483.422 6   2507603.294 9
  20279293.068   -20019232.915 7 -15485740.787 9
  20593842.279   -21239223.515 7 -16493962.728 9
  23726330.873    -3382440.865 5  -2550427.553 9
 92  4 22 21 36 59.9980000  0  4 19  2  6 15
  21670731.537     3248637.069 6   2545125.504 9
  20275866.943   -20037230.820 7 -15499765.125 9
  20584023.686   -21290815.554 7 -16534164.292 9
  23715281.123    -3440514.033 5  -2595679.253 9
 92  4 22 21 37 29.9980000  0  4 19  2  6 15
  21679940.584     3297028.628 6   2582833.106 9
  20272483.920   -20055013.634 7 -15513621.858 9
  20574232.584   -21342268.019 7 -16574257.110 9
  23704300.631    -3498227.137 5  -2640650.391 9
 92  4 22 21 37 59.9980000  0  4 19  2  6 15
  21689199.889     3345653.965 6   2620722.873 9
  20269138.990   -20072590.787 7 -15527318.340 9
  20564470.475   -21393580.251 7 -16614240.660 9
  23693384.607    -3555589.318 5  -2685348.053 9
 92  4 22 21 38 29.9980000  0  4 19  2  6 15
  21698504.373     3394535.779 6   2658812.485 9
  20265835.178   -20089956.403 7 -15540849.986 9
  20554735.670   -21444737.155 7 -16654103.176 9
  23682546.225    -3612583.503 5  -2729758.956 9
 92  4 22 21 38 59.9980000  0  5 13 19  2  6 15
  23957296.357          -0.39313
  21707842.436     3443678.880 6   2697105.700 9
  20262566.967   -20107123.170 7 -15554226.687 9
  20545029.037   -21495741.709 7 -16693846.975 9
  23671762.107    -3669219.701 5  -2773890.928 9
 92  4 22 21 39 29.9980000  0  5 13 19  2  6 15
  23931472.904     -135722.465 3
  21717241.271     3493082.748 6   2735602.077 9
  20259335.498   -20124104.527 7 -15567458.955 9
  20535352.240   -21546600.775 7 -16733477.428 9
  23661048.170    -3725521.916 5  -2817762.645 9
 92  4 22 21 39 59.9980000  0  5 13 19  2  6 15
  23905650.600     -271421.215 3
  21726696.037     3542767.695 6   2774317.560 9
  20256140.732   -20140899.846 8 -15580546.154 9
  20525700.436   -21597307.457 7 -16772989.075 9
  23650391.631    -3781482.240 5  -2861367.910 9
 92  4 22 21 40 29.9980000  0  5 13 19  2  6 15
  23879830.873     -407083.668 3
  21736213.357     3592743.993 6   2813260.003 9
  20252982.029   -20157493.410 7 -15593476.218 9
  20516083.412   -21647851.134 7 -16812373.749 9
  23639822.342    -3837068.252 5  -2904681.511 9
 92  4 22 21 40 59.9980000  0  5 13 19  2  6 15
  23854004.607     -542713.391 3    -52838.74611
  21745770.178     3642982.875 6   2852407.082 9
  20249864.021   -20173881.941 7 -15606246.500 9
  20506495.318   -21698236.258 7 -16851634.861 9
  23629311.428    -3892270.866 5  -2947696.377 9
 92  4 22 21 41 29.9980000  0  5 13 19  2  6 15
  23828210.561                      -67795.60313
  21755377.186     3693463.034 6   2891742.163 9
  20246781.162   -20190072.443 7 -15618862.470 9
  20496937.514   -21748466.748 7 -16890775.490 9
  23618881.990    -3947082.105 5  -2990406.279 9
 92  4 22 21 41 59.9980000  0  5 13 19  2  6 15
  23802409.561                     -203369.460 3
  21765037.467     3744167.814 6   2931252.267 9
  20243738.709   -20206073.949 7 -15631331.174 9
  20487405.029   -21798549.789 7 -16929801.233 9
  23608537.139    -4001492.101 5  -3032803.511 9
 92  4 22 21 42 29.9980000  0  4 19  2  6 15
  21774712.412     3795094.626 6   2970935.387 9
  20240730.896   -20221879.279 7 -15643647.007 9
  20477904.623   -21848478.100 7 -16968706.390 9
  23598259.896    -4055486.396 5  -3074876.839 9
 92  4 22 21 42 59.9980000  0  4 19  2  6 15
  21784453.326     3846251.418 6   3010797.717 9
  20237760.834   -20237491.837 7 -15655812.634 9
  20468433.693   -21898246.771 7 -17007487.157 9
  23588058.779    -4109079.109 5  -3116637.246 9
 92  4 22 21 43 29.9980000  0  5 13 19  2  6 15
  23725061.404      -67721.09913
  21794240.061     3897672.244 6   3050865.774 9
  20234826.334   -20252915.325 7 -15667830.935 9
  20458995.256   -21947847.748 7 -17046137.258 9
  23577932.936    -4162277.117 5  -3158090.089 9
 92  4 22 21 43 59.9980000  0  5 13 19  2  6 15
  23699295.482     -203131.939 3
  21804090.318     3949358.935 6   3091141.011 9
  20231923.045   -20268157.509 7 -15679707.953 9
  20449587.709   -21997294.253 7 -17084666.989 9
  23567885.318    -4215098.502 5  -3199249.468 9
 92  4 22 21 44 29.9980000  0  5 13 19  2  6 15
  23673526.373     -338501.876 3
  21813957.490     4001311.446 6   3131623.373 9
  20229058.740   -20283216.909 7 -15691442.550 9
  20440206.756   -22046584.902 7 -17123075.279 9
  23557893.740    -4267553.141 5  -3240123.091 9
 92  4 22 21 44 59.9980000  0  5 13 19  2  6 15
  23647783.686     -473818.704 3    -52715.74011
  21823899.873     4053539.228 6   3172320.232 9
  20226226.287   -20298091.881 7 -15703033.429 9
  20430860.537   -22095708.911 7 -17161353.713 9
  23547984.193    -4319634.766 5  -3280706.062 9
 92  4 22 21 45 29.9980000  0  5 13 19  2  6 15
  23622052.998     -609077.338 3   -158111.374 1
  21833890.826     4106039.561 6   3213229.468 9
  20223431.928   -20312785.643 7 -15714483.111 9
  20421544.045   -22144663.059 7 -17199499.791 9
  23538149.248    -4371333.874 5  -3320990.963 9
 92  4 22 21 45 59.9980000  0  5 13 19  2  6 15
  23596308.256     -744265.833 3   -263452.344 1
  21843941.553     4158807.254 5   3254347.038 9
  20220672.217   -20327283.627 7 -15725780.234 9
  20412261.482   -22193437.019 7 -17237505.464 9
  23528386.225    -4422627.784 5  -3360960.145 9
 92  4 22 21 46 29.9980000  0  5 13 19  2  6 15
  23570610.795     -879391.296 3
  21854014.342     4211819.939 6   3295655.519 9
  20217947.279   -20341603.122 7 -15736938.279 9
  20403012.725   -22242039.145 7 -17275377.239 9
  23518709.475    -4473526.840 5  -3400621.655 9
 92  4 22 21 46 59.9980000  0  5 13 19  2  6 15
  23544902.334    -1014457.682 3    -52616.98511
  21864154.467     4265070.225 6   3337149.134 9
  20215256.412   -20355757.319 7 -15747967.520 9
  20393795.420   -22290474.748 7 -17313119.262 9
  23509088.381    -4524021.218 5  -3439967.819 9
 92  4 22 21 47 29.9980000  0  5 13 19  2  6 15
  23519218.662    -1149457.357 4   -157810.804 1
  21874332.623     4318562.558 6   3378831.344 9
  20212595.295   -20369731.328 7 -15758856.351 9
  20384612.475   -22338737.583 7 -17350726.648 9
  23499561.881    -4574101.089 5  -3478991.008 9
 92  4 22 21 47 59.9980000  0  5 13 19  2  6 15
  23493534.904    -1284379.424 3   -262944.188 1
  21884554.709     4372299.282 6   3420704.008 9
  20209974.014   -20383499.630 7 -15769584.906 9
  20375464.232   -22386819.126 7 -17388192.784 9
  23490109.225    -4623756.088 5  -3517683.115 9
 92  4 22 21 48 29.9980000  0  5 13 19  2  6 15
  23467873.139    -1419227.901 3   -368020.205 1
  21894824.693     4426265.727 6   3462755.652 9
  20207393.389   -20397069.869 7 -15780159.110 9
  20366347.295   -22434724.085 7 -17425521.305 9
  23480743.654    -4672994.736 5  -3556050.791 9
 92  4 22 21 48 59.9980000  0  5 13 19  2  6 15
  23442250.264    -1554007.796 4   -473042.823 1
  21905139.475     4480460.617 5   3504985.312 9
  20204848.779   -20410440.929 7 -15790578.128 9
  20357260.764   -22482458.881 7 -17462717.234 9
  23471448.795    -4721813.642 5  -3594091.384 9
 92  4 22 21 49 29.9980000  0  5 13 19  2  6 15
  23416600.482    -1688712.093 3   -578006.521 1
  21915499.115     4534892.446 6   3547399.596 9
  20202344.318   -20423602.460 7 -15800833.867 9
  20348213.881   -22530017.808 7 -17499776.119 9
  23462246.584    -4770216.743 5  -3631807.975 9
 92  4 22 21 49 59.9980000  0  5 13 19  2  6 15
  23390965.061    -1823334.004 3
  21925901.592     4589564.902 5   3590001.380 9
  20199879.162   -20436558.969 7 -15810929.842 9
  20339196.865   -22577395.318 7 -17536693.653 9
  23453113.295    -4818196.905 5  -3669194.993 9
 92  4 22 21 50 29.9980000  0  5 13 19  2  6 15
  23365367.467    -1957867.584 4        -0.26011
  21936359.443     4644492.770 5   3632802.185 9
  20197451.232   -20449319.243 8 -15820872.917 9
  20330216.990   -22624587.316 7 -17573466.638 9
  23444068.287    -4865748.257 5  -3706247.870 9
 92  4 22 21 50 59.9980000  0  5 13 19  2  6 15
  23339794.623    -2092310.953 4   -104760.689 1
  21946874.326     4699688.394 5   3675811.632 9
  20195057.998   -20461891.137 8 -15830669.195 9
  20321271.295   -22671593.867 7 -17610095.102 9
  23435102.287    -4912877.596 5  -3742971.947 9
 92  4 22 21 51 29.9980000  0  5 13 19  2  6 15
  23314213.857    -2226669.745 3   -209455.216 1
  21957406.045     4755142.397 5   3719022.416 9
  20192699.146   -20474288.305 8 -15840329.335 9
  20312360.537   -22718421.369 7 -17646584.054 9
  23426202.209    -4959606.191 5  -3779383.719 9
 92  4 22 21 51 59.9980000  0  5 13 19  2  6 15
  23288661.295    -2360942.492 3   -314082.703 1
  21968007.154     4810850.020 6   3762430.818 9
  20190372.334   -20486515.102 7 -15849856.712 9
  20303484.053   -22765069.771 7 -17682933.456 9
  23417387.420    -5005931.381 5  -3815481.177 9
 92  4 22 21 52 29.9980000  0  5 13 19  2  6 15
  23263130.967    -2495111.089 3        -0.53619
  21978664.240     4866829.464 6   3806051.031 9
  20188078.701   -20498566.310 8 -15859247.276 9
  20294643.342   -22811522.991 7 -17719130.762 9
  23408657.334    -5051840.753 5  -3851254.620 9
 92  4 22 21 52 59.9980000  0  5 13 19  2  6 15
  23237617.420    -2629178.196 3   -104467.785 9
  21989362.943     4923060.555 5   3849867.320 9
  20185816.029   -20510457.842 8 -15868513.397 9
  20285841.951   -22857784.500 7 -17755178.683 9
  23399989.686    -5097344.037 5  -3886711.633 9
 92  4 22 21 53 29.9980000  0  5 13 19  2  6 15
  23212132.803    -2763140.652 3   -208853.536 9
  22000102.959     4979536.923 5   3893874.737 9
  20183584.842   -20522187.199 7 -15877653.165 9
  20277073.975   -22903852.822 7 -17791076.076 9
  23391416.553    -5142424.174 5  -3921838.933 9
 92  4 22 21 53 59.9980000  0  5 13 19  2  6 15
  23186656.732    -2896996.898 3   -313156.501 9
  22010900.725     5036248.354 6   3938065.333 9
  20181382.076   -20533757.828 8 -15886669.245 9
  20268343.725   -22949727.607 7 -17826822.655 9
  23382920.615    -5187072.969 5  -3956630.101 9
 92  4 22 21 54 29.9980000  0  5 13 19  2  6 15
  23161209.701    -3030742.158 4   -417372.994 9
  22021752.193     5093192.256 5   3982437.082 9
  20179209.959   -20545169.984 7 -15895561.841 9
  20259651.951   -22995405.979 7 -17862416.186 9
  23374508.568    -5231279.503 5  -3991076.666 9
 92  4 22 21 54 59.9980000  0  5 13 19  2  6 15
  23135779.209    -3164363.640 4   -521493.045 9
  22032616.170     5150376.920 5   4026996.429 9
  20177073.576   -20556397.742 7 -15904310.749 9
  20250998.240   -23040876.321 7 -17897847.615 9
  23366188.607    -5275015.114 5  -4025156.262 9
 92  4 22 21 55 29.9980000  0  5 13 19  2  6 15
  23110369.818    -3297875.951 4   -625527.973 9
  22043548.842     5207793.504 5   4071736.497 9
  20174972.975   -20567444.031 7 -15912918.253 9
  20242385.725   -23086154.681 7 -17933129.456 9
  23357949.654    -5318289.336 5  -4058876.346 9
 92  4 22 21 55 59.9980000  0  5 13 19  2  6 15
  23084983.998    -3431274.774 4   -729474.547 9
  22054520.584     5265456.250 5   4116668.371 9
  20172904.115   -20578309.670 7 -15921384.996 9
  20233804.998   -23131237.510 7 -17968258.924 9
  23349807.107    -5361106.817 5  -4092240.539 9
 92  4 22 21 56 29.9970000  0  5 13 19  2  6 15
  23059624.759    -3564540.115 4   -833317.122 9
  22065552.376     5323378.695 5   4161802.615 9
  20170873.946   -20588982.092 8 -15929701.181 9
  20225266.798   -23176109.798 7 -18003224.338 9
  23341743.290    -5403447.866 5  -4125233.459 9
 92  4 22 21 56 59.9970000  0  5 13 19  2  6 15
  23034292.993    -3697669.752 5   -937053.919 9
  22076612.501     5381565.584 5   4207142.915 9
  20168882.782   -20599443.953 8 -15937853.290 9
  20216766.329   -23220764.735 7 -18038020.386 9
  23333774.110    -5445322.993 5  -4157863.338 9
 92  4 22 21 57 29.9970000  0  5 13 19  2  6 15
  23008976.970    -3830672.689 5  -1040692.027 9
  22087739.438     5439997.650 5   4252674.258 9
  20166930.149   -20609711.237 8 -15945853.783 9
  20208309.196   -23265215.056 7 -18072656.991 9
  23325891.853    -5486764.255 5  -4190155.132 9
 92  4 22 21 57 59.9970000  0  5 13 19  2  6 15
  22983698.392    -3963549.155 4  -1144231.601 9
  22098900.220     5498664.188 5   4298388.309 9
  20165010.813   -20619800.982 7 -15953715.941 9
  20199890.884   -23309462.929 7 -18107135.846 9
  23318082.142    -5527768.069 5  -4222106.053 9
 92  4 22 21 58 29.9970000  0  5 13 19  2  6 15
  22958437.017    -4096302.757 5  -1247675.425 9
  22110117.478     5557536.375 5   4344262.598 9
  20163122.165   -20629715.971 7 -15961441.904 9
  20191506.321   -23353512.894 7 -18141460.487 9
  23310367.313    -5568339.485 5  -4253720.048 9
 92  4 22 21 58 59.9970000  0  5 13 19  2  6 15
  22933193.884    -4228916.631 4  -1351010.425 9
  22121340.821     5616635.190 5   4390313.480 9
  20161269.712   -20639443.190 7 -15969021.565 9
  20183167.493   -23397349.705 7 -18175619.029 9
  23302732.189    -5608475.693 5  -4284994.946 9
 92  4 22 21 59 29.9970000  0  5 13 19  2  6 15
  22907982.290    -4361383.572 4  -1454230.898 9
  22132638.610     5675974.251 5   4436551.570 9
  20159453.728   -20648994.565 8 -15976464.210 9
  20174864.931   -23440967.360 7 -18209606.807 9
  23295180.274    -5648163.026 5  -4315920.064 9
 92  4 22 21 59 59.9970000  0  5 13 19  2  6 15
  22882801.126    -4493705.600 4  -1557338.517 9
  22143982.845     5735545.526 5   4482970.606 9
  20157664.931   -20658384.786 7 -15983781.272 9
  20166607.032   -23484369.389 7 -18243426.567 9
  23287709.923    -5687406.129 5  -4346499.027 9
 92  4 22 22  0 29.9970000  0  5 13 19  2  6 15
  22857663.321    -4625875.639 5  -1660327.654 9
  22155360.782     5795351.156 5   4529572.251 9
  20155912.399   -20667604.171 7 -15990965.223 9
  20158387.314   -23527550.311 7 -18277074.027 9
  23280315.720    -5726215.512 5  -4376740.021 9
 92  4 22 22  0 59.9970000  0  5 13 19  2  6 15
  22832540.603    -4757895.631 5  -1763199.903 9
  22166787.454     5855400.361 5   4576363.704 9
  20154187.337   -20676658.773 8 -15998020.758 9
  20150213.853   -23570513.286 7 -18310551.672 9
  23273016.751    -5764590.557 5  -4406642.578 9
 92  4 22 22  1 29.9970000  0  5 13 19  2  6 15
  22807446.946    -4889760.984 5  -1865951.649 9
  22178260.993     5915684.993 5   4623338.602 9
  20152495.743   -20685553.868 8 -16004952.006 9
  20142080.728   -23613255.078 7 -18343856.954 9
  23265791.985    -5802506.206 5  -4436187.186 9
 92  4 22 22  1 59.9970000  0  5 13 19  2  6 15
  22782378.782    -5021479.498 5  -1968588.976 9
  22189773.954     5976189.935 5   4670485.159 9
  20150833.556   -20694297.525 7 -16011765.248 9
  20133984.767   -23655784.110 7 -18376996.458 9
  23258677.845    -5839974.869 5  -4465383.450 9
 92  4 22 22  2 29.9970000  0  5 13 19  2  6 15
  22757350.321    -5153037.194 5  -2071101.014 9
  22201330.204     6036926.485 5   4717812.175 9
  20149199.884   -20702871.184 8 -16018446.032 9
  20125934.259   -23698087.981 7 -18409960.505 9
  23251628.024    -5876970.017 5  -4494210.761 9
 92  4 22 22  2 59.9970000  0  5 13 19  2  6 15
  22732329.009    -5284432.760 5  -2173486.739 9
  22212937.259     6097895.420 5   4765320.294 9
  20147601.220   -20711275.419 7 -16024994.787 9
  20117929.228   -23740167.402 7 -18442749.657 9
  23244682.228    -5913479.487 5  -4522659.625 9
 92  4 22 22  3 29.9970000  0  5 13 19  2  6 15
  22707362.267    -5415668.614 5  -2275747.985 9
  22224584.884     6159090.446 5   4813004.575 9
  20146033.954   -20719508.035 8 -16031409.819 9
  20109963.165   -23782025.376 7 -18475366.262 9
  23237829.579    -5949518.931 5  -4550742.231 9
 92  4 22 22  3 59.9970000  0  5 13 19  2  6 15
  22682422.642    -5546738.309 5  -2377879.795 9
  22236259.759     6220526.307 5   4860876.521 9
  20144506.196   -20727545.651 8 -16037672.901 9
  20102041.532   -23823656.892 7 -18507806.392 9
  23231056.743    -5985095.468 5  -4578464.136 9
 92  4 22 22  4 29.9970000  0  5 13 19  2  6 15
  22657517.470    -5677634.697 5  -2479876.523 9
  22247999.603     6282212.323 5   4908943.379 9
  20143014.454   -20735385.291 8 -16043781.716 9
  20094164.353   -23865055.786 7 -18540065.262 9
  23224385.860    -6020190.698 5  -4605811.002 9
 92  4 22 22  4 59.9970000  0  5 13 19  2  6 15
  22632631.626    -5808362.836 5  -2581742.186 9
  22259791.532     6344145.744 5   4957203.025 9
  20141553.767   -20743045.643 8 -16049750.828 9
  20086328.079   -23906229.119 7 -18572148.370 9
  23217792.251    -6054818.613 5  -4632793.734 9
 92  4 22 22  5 29.9970000  0  5 13 19  2  6 15
  22607796.251    -5938917.660 5  -2683472.801 9
  22271627.681     6406331.162 5   5005659.035 9
  20140129.501   -20750544.635 8 -16055594.211 9
  20078535.946   -23947172.710 7 -18604052.462 9
  23211295.196    -6088974.710 5  -4659408.817 9
 92  4 22 22  5 59.9970000  0  5 13 19  2  6 15
  22582977.220    -6069287.997 5  -2785059.674 9
  22283507.649     6468770.750 5   5054313.092 9
  20138731.649   -20757895.020 8 -16061321.790 9
  20070793.720   -23987877.124 7 -18635770.176 9
  23204891.485    -6122624.571 5  -4685629.433 9
 92  4 22 22  6 29.9970000  0  5 13 19  2  6 15
  22558211.462    -6199478.847 5  -2886506.684 9
  22295435.673     6531450.161 5   5103154.018 9
  20137354.149   -20765124.892 8 -16066955.459 9
  20063089.813   -24028348.234 7 -18667306.104 9
  23198581.985    -6155765.072 5  -4711453.134 9
 92  4 22 22  6 59.9970000  0  5 13 19  2  6 15
  22533465.220    -6329483.885 5  -2987808.883 9
  22307422.306     6594370.595 5   5152182.763 9
  20136004.798   -20772223.914 8 -16072487.169 9
  20055433.376   -24068581.290 7 -18698656.529 9
  23192376.220    -6188402.893 5  -4736885.144 9
 92  4 22 22  7 29.9970000  0  5 13 19  2  6 15
  22508764.110    -6459294.638 5  -3088959.735 9
  22319427.235     6657527.172 5   5201395.523 9
  20134680.439   -20779171.562 8 -16077900.924 9
  20047822.813   -24108568.600 7 -18729815.459 9
  23186253.540    -6220532.828 5  -4761921.401 9
 92  4 22 22  7 59.9970000  0  5 13 19  2  6 15
  22484102.493    -6588911.636 5  -3189959.601 9
  22331481.579     6720903.039 5   5250779.149 9
  20133394.399   -20785943.014 8 -16083177.396 9
  20040260.548   -24148311.636 7 -18760784.057 9
  23180240.103    -6252163.410 5  -4786568.563 9
 92  4 22 22  8 29.9970000  0  5 13 19  2  6 15
  22459471.970    -6718337.725 5  -3290810.695 9
  22343588.782     6784493.119 5   5300329.684 9
  20132138.774   -20792533.336 7 -16088312.722 9
  20032746.595   -24187814.668 7 -18791565.630 9
  23174299.938    -6283324.001 5  -4810849.503 9
 92  4 22 22  8 59.9970000  0  5 13 19  2  6 15
  22434880.501    -6847562.947 5  -3391505.276 9
  22355738.290     6848287.459 5   5350039.389 9
  20130920.376   -20798929.628 7 -16093296.854 9
  20025273.681   -24227069.413 7 -18822153.741 9
  23168465.001    -6314027.564 5  -4834774.318 9
 92  4 22 22  9 29.9970000  0  5 13 19  2  6 15
  22410334.337    -6976589.351 5  -3492044.946 9
  22367899.142     6912279.788 5   5399903.366 9
  20129739.837   -20805141.739 7 -16098137.468 9
  20017850.462   -24266079.115 7 -18852550.908 9
  23162698.571    -6344266.712 5  -4858337.244 9
 92  4 22 22  9 59.9970000  0  5 13 19  2  6 15
  22385818.696    -7105417.676 5  -3592430.275 9
  22380118.095     6976474.361 5   5449924.935 9
  20128589.329   -20811187.908 8 -16102848.787 9
  20010474.688   -24304845.670 7 -18882758.609 9
  23157041.985    -6374044.364 5  -4881540.590 9
 92  4 22 22 10 29.9970000  0  5 13 19  2  6 15
  22361337.876    -7234033.396 5  -3692649.949 9
  22392379.532     7040898.458 5   5500125.363 9
  20127469.985   -20817064.428 8 -16107427.896 9
  20003148.306   -24343355.964 7 -18912766.626 9
  23151463.056    -6403343.330 5  -4904370.892 9
 92  4 22 22 10 59.9970000  0  5 13 19  2  6 15
  22336905.243    -7362444.905 5  -3792710.482 9
  22404694.478     7105546.849 5   5550500.561 9
  20126380.438   -20822783.173 7 -16111884.080 9
  19995865.118   -24381619.128 7 -18942582.078 9
  23145978.587    -6432159.620 5  -4926825.077 9
 92  4 22 22 11 29.9970000  0  5 13 19  2  6 15
  22312506.243    -7490645.324 5  -3892606.522 9
  22417021.517     7170436.834 5   5601064.007 9
  20125325.938   -20828340.957 8 -16116214.827 9
  19988630.423   -24419629.615 7 -18972200.646 9
  23140593.384    -6460473.406 5  -4948887.703 9
 92  4 22 22 11 59.9970000  0  5 13 19  2  6 15
  22288149.478    -7618633.792 5  -3992337.456 9
  22429427.649     7235559.056 5   5651808.407 9
  20124296.142   -20833743.578 7 -16120424.676 9
  19981446.313   -24457388.076 7 -19001622.813 9
  23135303.915    -6488298.804 5  -4970569.765 9
 92  4 22 22 12 29.9970000  0  5 13 19  2  6 15
  22263836.798    -7746393.963 5  -4091890.471 9
  22441856.243     7300925.735 5   5702743.297 9
  20123301.806   -20838978.753 8 -16124504.043 9
  19974311.024   -24494878.822 7 -19030836.380 9
  23130105.001    -6515620.483 5  -4991859.304 9
 92  4 22 22 12 59.9970000  0  5 13 19  2  6 15
  22239567.743    -7873939.956 5  -4191276.586 9
  22454337.970     7366504.007 5   5753843.081 9
  20122330.938   -20844074.263 8 -16128474.583 9
  19967227.759   -24532117.783 7 -19059853.745 9
  23124997.071    -6542459.725 5  -5012772.938 9
 92  4 22 22 13 29.9970000  0  5 13 19  2  6 15
  22215338.548    -8001250.637 5  -4290479.339 9
  22466859.329     7432302.423 5   5805114.384 9
  20121391.642   -20849011.701 7 -16132321.949 9
  19960192.962   -24569085.001 7 -19088659.375 9
  23119988.587    -6568799.543 5  -5033297.382 9
 92  4 22 22 13 59.9970000  0  5 13 19  2  6 15
  22191155.337    -8128337.645 5  -4389507.802 9
  22479426.462     7498308.235 5   5856547.291 9
  20120480.649   -20853800.941 8 -16136053.833 9
  19953205.704   -24605792.908 7 -19117262.941 9
  23115061.821    -6594648.848 5  -5053439.608 9
 92  4 22 22 14 29.9970000  0  5 13 19  2  6 15
  22167007.868    -8255199.273 5  -4488360.671 9
  22492026.735     7564517.680 5   5908138.882 9
  20119598.110   -20858432.581 8 -16139662.909 9
  19946269.673   -24642241.359 7 -19145664.334 9
  23110249.774    -6619992.708 5  -5073188.011 9
 92  4 22 22 14 59.9970000  0  5 13 19  2  6 15
  22142915.118    -8381823.512 5  -4587028.574 9
  22504668.876     7630936.167 5   5959893.346 9
  20118750.282   -20862886.871 8 -16143133.799 9
  19939384.696   -24678419.260 7 -19173854.888 9
  23105522.657    -6644811.816 5  -5092527.510 9
 92  4 22 22 15 29.9970000  0  5 13 19  2  6 15
  22118870.064    -8508216.983 5  -4685516.674 9
  22517355.048     7697571.339 5   6011816.661 9
  20117937.642   -20867159.120 7 -16146462.835 9
  19932550.142   -24714334.441 7 -19201840.742 9
  23100902.071    -6669114.073 5  -5111464.278 9
 92  4 22 22 15 59.9970000  0  5 13 19  2  6 15
  22094858.095    -8634384.037 5  -4783828.331 9
  22530076.892     7764423.344 5   6063908.934 9
  20117158.774   -20871260.371 7 -16149658.624 9
  19925766.556   -24749992.682 7 -19229626.385 9
  23096367.126    -6692912.272 5  -5130008.276 9
 92  4 22 22 16 29.9970000  0  5 13 19  2  6 15
  22070897.603    -8760307.213 5  -4881949.992 9
  22542830.478     7831498.938 5   6116175.443 9
  20116411.142   -20875185.036 7 -16152716.818 9
  19919031.743   -24785377.293 7 -19257198.807 9
  23091938.204    -6716199.382 5  -5148154.008 9
 92  4 22 22 16 59.9970000  0  5 13 19  2  6 15
  22046982.087    -8885974.350 6  -4979872.141 9
  22555631.970     7898812.563 5   6168627.402 9
  20115699.368   -20878935.086 7 -16155638.944 9
  19912352.337   -24820477.696 7 -19284549.765 9
  23087595.626    -6738981.493 5  -5165906.251 9
 92  4 22 22 17 29.9970000  0  5 13 19  2  6 15
  22023116.673    -9011393.073 6  -5077600.710 9
  22568485.939     7966341.831 5   6221247.416 9
  20115013.931   -20882531.817 7 -16158441.606 9
  19905726.321   -24855301.902 7 -19311685.510 9
  23083359.329    -6761278.135 5  -5183280.209 9
 92  4 22 22 17 59.9970000  0  5 13 19  2  6 15
  21999292.665    -9136562.820 6  -5175135.311 9
  22581375.415     8034066.016 5   6274019.306 9
  20114351.860   -20885996.725 7 -16161141.541 9
  19899153.126   -24889851.053 7 -19338606.930 9
  23079206.540    -6783072.971 5  -5200263.169 9
 92  4 22 22 18 29.9970000  0  5 13 19  2  6 15
  21975517.087    -9261473.669 5  -5272468.187 9
  22594301.618     8101988.297 5   6326945.552 9
  20113722.149   -20889325.631 8 -16163735.509 9
  19892631.134   -24924116.529 7 -19365307.296 9
  23075156.142    -6804339.035 5  -5216834.108 9
 92  4 22 22 18 59.9970000  0  5 13 19  2  6 15
  21951802.360    -9386129.155 5  -5369602.098 9
  22607263.626     8170116.482 5   6380032.231 9
  20113112.196   -20892517.066 7 -16166222.355 9
  19886166.282   -24958102.646 7 -19391789.982 9
  23071215.704    -6825080.884 5  -5232996.563 9
 92  4 22 22 19 29.9970000  0  5 13 19  2  6 15
  21928132.845    -9510525.070 5  -5466533.723 9
  22620281.540     8238450.969 5   6433279.677 9
  20112533.228   -20895561.082 8 -16168594.330 9
  19879751.704   -24991806.123 7 -19418052.433 9
  23067370.032    -6845280.796 5  -5248736.737 9
 92  4 22 22 19 59.9970000  0  5 13 19  2  6 15
  21904506.032    -9634655.667 5  -5563258.593 9
  22633312.876     8307014.345 5   6486705.465 9
  20111985.056   -20898441.249 8 -16170838.631 9
  19873390.024   -25025222.543 7 -19444091.200 9
  23063627.892    -6864937.961 5  -5264053.990 9
 92  4 22 22 20 29.9970000  0  5 13 19  2  6 15
  21880940.837    -9758517.113 5  -5659773.774 9
  22646404.696     8375824.489 5   6540323.540 9
  20111473.564   -20901137.883 8 -16172939.914 9
  19867086.103   -25058349.612 7 -19469904.494 9
  23059983.368    -6884088.027 5  -5278976.111 9
 92  4 22 22 20 59.9970000  0  5 13 19  2  6 15
  21857419.189    -9882116.029 5  -5756084.397 9
  22659549.954     8444872.853 5   6594127.236 9
  20110991.681   -20903661.071 8 -16174906.059 9
  19860839.095   -25091194.600 7 -19495498.000 9
  23056417.595    -6902770.104 5  -5293533.545 9
 92  4 22 22 21 29.9970000  0  5 13 19  2  6 15
  21833950.368   -10005438.227 6  -5852179.394 9
  22672746.798     8514161.404 4   6648118.106 9
  20110544.603   -20906009.060 7 -16176735.667 9
  19854642.595   -25123744.857 7 -19520861.835 9
  23052960.806    -6920973.454 5  -5307717.967 9
 92  4 22 22 21 59.9970000  0  5 13 19  2  6 15
  21810541.064   -10128485.849 6  -5948060.410 9
  22685960.446     8583680.634 5   6702288.714 9
  20110129.993   -20908200.775 8 -16178443.512 9
  19848499.376   -25156003.165 7 -19545998.177 9
  23049584.587    -6938714.436 5  -5321542.070 9
 92  4 22 22 22 29.9970000  0  5 13 19  2  6 15
  21787171.728   -10251253.334 6  -6043723.146 9
  22699235.649     8653417.778 5   6756629.113 9
  20109737.517   -20910247.070 8 -16180038.043 9
  19842423.407   -25187965.129 7 -19570903.603 9
  23046309.446    -6955977.976 5  -5334994.181 9
 92  4 22 22 22 59.9970000  0  5 13 19  2  6 15
  21763865.392   -10373748.435 6  -6139173.647 9
  22712549.938     8723333.480 5   6811108.647 9
  20109373.899   -20912172.119 8 -16181538.094 9
  19836392.376   -25219639.651 7 -19595585.049 9
  23043113.806    -6972736.422 5  -5348052.666 9
 92  4 22 22 23 29.9970000  0  5 13 19  2  6 15
  21740604.282   -10495960.534 6  -6234403.645 9
  22725898.220     8793424.897 4   6865725.116 9
  20109033.946   -20913958.828 8 -16182930.351 9
  19830424.306   -25251017.094 7 -19620035.006 9
  23040020.407    -6988955.323 5  -5360690.745 9
 92  4 22 22 23 59.9970000  0  5 13 19  2  6 15
  21717409.056   -10617880.408 6  -6329405.920 9
  22739246.962     8863692.810 5   6920479.108 9
  20108721.829   -20915590.488 8 -16184201.788 9
  19824511.470   -25282089.493 7 -19644247.267 9
  23037042.337    -7004625.021 5  -5372900.847 9
 92  4 22 22 24 29.9970000  0  5 13 19  2  6 15
  21694260.767   -10739509.946 6  -6424181.957 9
  22752650.079     8934140.811 4   6975373.432 9
  20108445.149   -20917059.642 8 -16185346.592 9
  19818654.782   -25312859.802 7 -19668224.131 9
  23034172.454    -7019741.193 5  -5384679.667 9
 92  4 22 22 24 59.9970000  0  5 13 19  2  6 15
  21671173.876   -10860841.943 6  -6518726.154 9
  22766101.626     9004775.185 5   7030412.972 9
  20108195.993   -20918351.643 8 -16186353.353 9
  19812855.517   -25343321.923 7 -19691960.847 9
  23031403.017    -7034311.383 5  -5396033.023 9
 92  4 22 22 25 29.9970000  0  5 13 19  2  6 15
  21648138.298   -10981882.935 6  -6613043.568 9
  22779570.392     9075610.114 5   7085608.793 9
  20107987.774   -20919466.911 8 -16187222.411 9
  19807117.649   -25373483.705 7 -19715463.523 9
  23028720.564    -7048373.169 5  -5406990.217 9
 92  4 22 22 25 59.9970000  0  5 13 19  2  6 15
  21625160.204   -11102623.692 6  -6707127.044 9
  22793102.376     9146656.557 4   7140969.430 9
  20107803.220   -20920412.326 8 -16187959.099 9
  19801438.501   -25403336.535 7 -19738725.465 9
  23026145.579    -7061923.691 5  -5417549.039 9
 92  4 22 22 26 29.9970000  0  5 13 19  2  6 15
  21602242.001   -11223066.843 6  -6800978.646 9
  22806660.829     9217910.934 5   7196492.088 9
  20107652.212   -20921204.948 8 -16188576.739 9
  19795816.009   -25432883.971 7 -19761749.443 9
  23023657.235    -7074968.237 5  -5427713.570 9
 92  4 22 22 26 59.9970000  0  5 13 19  2  6 15
  21579380.470   -11343206.179 6  -6894593.488 9
  22820255.493     9289366.060 5   7252171.157 9
  20107531.321   -20921843.295 8 -16189074.163 9
  19790251.579   -25462121.004 7 -19784531.549 9
  23021272.845    -7087508.606 5  -5437485.260 9
 92  4 22 22 27 29.9970000  0  5 13 19  2  6 15
  21556575.360   -11463043.361 6  -6987972.858 9
  22833890.173     9361011.584 5   7307998.589 9
  20107435.446   -20922342.547 8 -16189463.193 9
  19784747.267   -25491050.276 7 -19807073.833 9
  23018983.595    -7099536.453 5  -5446857.566 9
 92  4 22 22 27 59.9970000  0  5 13 19  2  6 15
  21533833.978   -11582574.649 6  -7081113.873 9
  22847564.235     9432841.449 4   7363969.691 9
  20107365.634   -20922713.870 8 -16189752.550 9
  19779298.173   -25519669.351 7 -19829374.416 9
  23016793.204    -7111032.940 5  -5455815.840 9
 92  4 22 22 28 29.9970000  0  5 13 19  2  6 15
  21511139.610   -11701789.321 6  -7174008.190 9
  22861276.704     9504864.257 4   7420091.127 9
  20107322.556   -20922936.776 8 -16189926.245 9
  19773914.704   -25547968.349 7 -19851425.578 9
  23014713.634    -7121997.206 5  -5464359.411 9
 92  4 22 22 28 59.9970000  0  5 13 19  2  6 15
  21488516.829   -11820690.804 6  -7266658.487 9
  22874998.376     9577063.647 4   7476350.152 9
  20107310.001   -20923009.854 8 -16189983.193 9
  19768590.298   -25575951.776 7 -19873230.856 9
  23012723.915    -7132436.357 5  -5472493.817 9
 92  4 22 22 29 29.9970000  0  5 13 19  2  6 15
  21465956.001   -11939268.200 6  -7359056.207 9
  22888770.868     9649450.524 4   7532755.272 9
  20107326.142   -20922930.400 8 -16189921.295 9
  19763329.228   -25603609.214 7 -19894782.106 9
  23010842.915    -7142337.567 5  -5480209.026 9
 92  4 22 22 29 59.9970000  0  5 13 19  2  6 15
  21443446.189   -12057522.064 6  -7451201.809 9
  22902584.618     9722023.795 4   7589305.629 9
  20107374.431   -20922690.194 8 -16189734.137 9
  19758124.181   -25630942.664 7 -19916080.898 9
  23009060.274    -7151704.444 5  -5487507.871 9
 92  4 22 22 30 29.9970000  0  5 13 19  2  6 15
  21421006.571   -12175452.719 6  -7543095.610 9
  22916429.118     9794765.409 4   7645987.162 9
  20107447.696   -20922285.141 8 -16189418.537 9
  19752985.243   -25657953.419 7 -19937128.248 9
  23007376.360    -7160544.904 5  -5494396.517 9
 92  4 22 22 30 59.9970000  0  5 13 19  2  6 15
  21398626.431   -12293058.202 6  -7634736.019 9
  22930303.204     9867686.152 4   7702808.279 9
  20107553.657   -20921720.969 8 -16188978.929 9
  19747907.087   -25684640.696 7 -19957923.537 9
  23005793.790    -7168847.982 5  -5500866.442 9
 92  4 22 22 31 29.9970000  0  5 13 19  2  6 15
  21376312.235   -12410330.100 6  -7726116.478 9
  22944221.907     9940814.387 4   7759791.051 9
  20107695.040   -20920994.100 8 -16188412.554 9
  19742890.892   -25710997.045 7 -19978460.953 9
  23004319.970    -7176600.700 5  -5506907.481 9
 92  4 22 22 31 59.9970000  0  5 13 19  2  6 15
  21354054.251   -12527265.037 6  -7817234.381 9
  22958187.142    10014156.256 3   7816940.285 9
  20107862.095   -20920111.672 8 -16187724.968 9
  19737942.040   -25737020.172 7 -19998738.720 9
  23002951.134    -7183800.809 5  -5512517.920 9
 92  4 22 22 32 29.9970000  0  5 13 19  2  6 15
  21331874.970   -12643864.830 6  -7908091.143 9
  22972177.462    10087718.097 4   7874260.936 9
  20108057.853   -20919082.485 8 -16186923.015 9
  19733051.743   -25762712.409 7 -20018758.655 9
  23001680.595    -7190456.827 5  -5517704.404 9
 92  4 22 22 32 59.9970000  0  5 13 19  2  6 15
  21309749.876   -12760126.364 6  -7998684.317 9
  22986228.509    10161510.709 3   7931761.426 9
  20108283.978   -20917905.934 8 -16186006.238 9
  19728228.384   -25788071.703 7 -20038519.140 9
  23000521.001    -7196563.098 5  -5522462.502 9
 92  4 22 22 33 29.9970000  0  5 13 19  2  6 15
  21287689.274   -12876042.269 6  -8089008.179 9
  23000302.446    10235508.720 3   7989421.939 9
  20108533.220   -20916580.633 8 -16184973.554 9
  19723464.196   -25813091.825 7 -20058015.352 9
  22999460.470    -7202133.664 5  -5526803.157 9
 92  4 22 22 33 59.9970000  0  5 13 19  2  6 15
  21265695.345   -12991611.700 6  -8179062.084 9
  23014430.899    10309687.346 3   8047223.191 9
  20108815.134   -20915104.153 8 -16183823.068 9
  19718767.446   -25837773.057 7 -20077247.480 9
  22998504.157    -7207182.067 5  -5530736.947 9
 92  4 22 22 34 29.9970000  0  5 13 19  2  6 15
  21243771.798   -13106833.760 6  -8268845.305 9
  23028559.376    10384030.296 3   8105152.496 9
  20109131.368   -20913458.500 8 -16182540.762 9
  19714136.501   -25862115.124 7 -20096215.328 9
  22997630.142    -7211718.073 5  -5534271.464 9
 92  4 22 22 34 59.9970000  0  5 13 19  2  6 15
  21221914.126   -13221700.759 6  -8358351.842 9
  23042739.642    10458525.453 3   8163200.407 9
  20109472.392   -20911647.451 8 -16181129.567 9
  19709568.048   -25886111.213 7 -20114913.580 9
  22996869.790    -7215747.000 5  -5537410.832 9
 92  4 22 22 35 29.9970000  0  5 13 19  2  6 15
  21200120.938   -13336219.809 6  -8447587.267 9
  23056938.454    10533164.165 3   8221360.171 9
  20109845.657   -20909684.354 8 -16179599.897 9
  19705067.649   -25909769.393 7 -20133348.526 9
  22996195.993    -7219281.133 5  -5540164.646 9
 92  4 22 22 35 59.9970000  0  5 13 19  2  6 15
  21178396.259   -13450400.062 6  -8536558.722 9
  23071190.634    10607959.709 3   8279642.103 9
  20110249.868   -20907575.893 8 -16177956.959 9
  19700624.524   -25933100.187 7 -20151528.368 9
  22995620.728    -7222322.308 5  -5542534.403 9
 92  4 22 22 36 29.9970000  0  5 13 19  2  6 15
  21156731.462   -13564221.096 6  -8625250.233 9
  23085443.040    10682930.546 3   8338060.679 9
  20110679.884   -20905309.395 7 -16176190.873 9
  19696253.712   -25956083.731 7 -20169437.618 9
  22995142.954    -7224849.232 5  -5544503.414 9
 92  4 22 22 36 59.9970000  0  5 13 19  2  6 15
  21135142.470   -13677685.814 6  -8713664.099 9
  23099741.751    10758079.998 3   8396618.402 9
  20111140.267   -20902894.394 8 -16174309.076 9
  19691946.321   -25978723.701 7 -20187079.156 9
  22994757.751    -7226857.633 5  -5546068.402 9
 92  4 22 22 37 29.9970000  0  5 13 19  2  6 15
  21113613.368   -13790790.242 6  -8801797.254 9
  23114077.439    10833420.967 3   8455325.367 9
  20111631.251   -20900315.326 8 -16172299.427 9
  19687701.931   -26001017.791 7 -20204451.174 9
  22994478.985    -7228337.954 5  -5547221.888 9
 92  4 22 22 37 59.9970000  0  5 13 19  2  6 15
  21092171.728   -13903528.337 6  -8889644.963 9
  23128449.392    10908952.637 3   8514180.933 9
  20112153.579   -20897563.296 8 -16170155.002 9
  19683526.681   -26022960.370 7 -20221549.292 9
  22994301.743    -7229288.842 5  -5547962.837 9
 92  4 22 22 38 29.9970000  0  5 13 19  2  6 15
  21070781.376   -14015901.407 6  -8977208.206 9
  23142860.860    10984661.934 3   8573174.901 9
  20112703.509   -20894649.056 7 -16167884.184 9
  19679419.743   -26044553.369 7 -20238375.006 9
  22994214.845    -7229703.428 5  -5548285.902 9
 92  4 22 22 38 59.9970000  0  5 13 19  2  6 15
  21049469.501   -14127906.264 6  -9064484.521 9
  23157297.157    11060557.693 3   8632314.154 9
  20113291.173   -20891577.651 7 -16165490.893 9
  19675376.431   -26065795.185 7 -20254927.068 9
  22994242.485    -7229569.517 5  -5548181.545 9
 92  4 22 22 39 29.9970000  0  5 13 19  2  6 15
  21028221.806   -14239538.645 6  -9151470.643 9
  23171784.884    11136647.936 3   8691604.951 9
  20113905.696   -20888359.819 7 -16162983.508 9
  19671404.173   -26086682.052 7 -20271202.549 9
  22994373.235    -7228893.272 5  -5547654.626 9
 92  4 22 22 39 59.9970000  0  5 13 19  2  6 15
  21007054.767   -14350785.428 6  -9238156.287 9
  23186304.774    11212930.113 3   8751045.304 9
  20114542.720   -20885005.475 7 -16160369.745 9
  19667498.493   -26107201.343 7 -20287191.605 9
  22994604.634    -7227656.717 5  -5546691.063 9
 92  4 22 22 40 29.9970000  0  5 13 19  2  6 15
  20985956.056   -14461656.389 6  -9324549.065 9
  23200852.274    11289387.859 3   8810622.454 9
  20115203.689   -20881536.407 7 -16157666.593 9
  19663657.353   -26127364.397 7 -20302903.080 9
  22994955.509    -7225867.884 5  -5545297.178 9
 92  4 22 22 40 59.9970000  0  5 13 19  2  6 15
  20964929.657   -14572147.221 6  -9410645.682 9
  23215445.595    11366023.777 3   8870338.441 9
  20115883.618   -20877952.660 7 -16154874.072 9
  19659891.548   -26147167.941 7 -20318334.431 9
  22995394.603    -7223539.581 5  -5543482.928 9
 92  4 22 22 41 29.9970000  0  5 13 19  2  6 15
  20943974.376   -14682261.035 6  -9496448.493 9
  23230047.392    11442818.178 3   8930177.921 9
  20116588.462   -20874246.186 7 -16151985.925 9
  19656191.782   -26166614.724 7 -20333487.764 9
  22995937.306    -7220683.657 5  -5541257.540 9
 92  4 22 22 41 59.9970000  0  5 13 19  2  6 15
  20923092.915   -14791992.343 6  -9581953.264 9
  23244670.899    11519752.576 3   8990126.493 9
  20117319.353   -20870403.555 7 -16148991.680 9
  19652561.204   -26185700.786 7 -20348360.030 9
  22996576.962    -7217287.434 5  -5538611.127 9
 92  4 22 22 42 29.9970000  0  5 13 19  2  6 15
  20902287.064   -14901340.479 6  -9667159.458 9
  23259361.649    11596843.065 3   9050196.699 9
  20118082.759   -20866401.022 7 -16145872.836 9
  19648994.274   -26204426.845 7 -20362951.768 9
  22997326.571    -7213359.980 5  -5535550.788 9
 92  4 22 22 42 59.9970000  0  5 13 19  2  6 15
  20881549.337   -15010301.720 6  -9752064.180 9
  23274054.774    11674085.885 3   9110385.600 9
  20118880.907   -20862216.432 7 -16142612.129 9
  19645501.423   -26222789.621 7 -20377260.427 9
  22998179.634    -7208903.268 5  -5532078.031 9
 92  4 22 22 43 29.9970000  0  5 13 19  2  6 15
  20860893.079   -15118870.680 6  -9836663.232 9
  23288780.376    11751472.741 3   9170686.743 9
  20119715.517   -20857837.645 7 -16139200.097 9
  19642077.626   -26240784.491 7 -20391282.415 9
  22999131.001    -7203911.180 5  -5528188.076 9
 92  4 22 22 43 59.9970000  0  5 13 19  2  6 15
  20840305.243   -15227041.269 6  -9920951.849 9
  23303537.345    11829022.221 3   9231114.607 9
  20120578.642   -20853269.142 7 -16135640.237 9
  19638722.978   -26258406.442 7 -20405013.816 9
  23000178.837    -7198388.397 5  -5523884.603 9
 92  4 22 22 44 29.9970000  0  5 13 19  2  6 15
  20819797.688   -15334821.124 6 -10004936.009 9
  23318332.228    11906721.137 3   9291658.890 9
  20121485.970   -20848528.782 7 -16131946.465 9
  19635438.048   -26275663.527 7 -20418460.897 9
  23001325.798    -7192352.398 5  -5519181.215 9
 92  4 22 22 44 59.9960000  0  5 13 19  2  6 15
  20799364.926   -15442200.499 6 -10088608.090 9
  23333138.090    11984548.331 3   9352303.145 9
  20122414.223   -20843636.886 8 -16128134.620 9
  19632227.574   -26292550.045 7 -20431619.237 9
  23002577.895    -7185799.388 5  -5514074.948 9
 92  4 22 22 45 29.9960000  0  5 13 19  2  6 15
  20779004.332   -15549178.748 6 -10171967.612 9
  23347973.129    12062525.833 3   9413064.546 9
  20123370.481   -20838613.244 8 -16124220.109 9
  19629083.754   -26309060.636 7 -20444484.635 9
  23003914.621    -7178725.112 5  -5508562.530 9
 92  4 22 22 45 59.9960000  0  5 13 19  2  6 15
  20758723.723   -15655754.056 6 -10255013.150 9
  23362845.934    12140648.463 3   9473939.014 9
  20124349.332   -20833467.883 7 -16120210.754 9
  19626013.582   -26325196.835 7 -20457058.309 9
  23005364.145    -7171132.008 5  -5502645.830 9
 92  4 22 22 46 29.9960000  0  5 13 19  2  6 15
  20738521.934   -15761923.093 6 -10337742.115 9
  23377740.426    12218905.743 3   9534918.406 9
  20125352.902   -20828196.154 8 -16116102.934 9
  19623016.629   -26340956.533 7 -20469338.607 9
  23006912.801    -7163010.015 5  -5496316.985 9
 92  4 22 22 46 59.9960000  0  5 13 19  2  6 15
  20718395.559   -15867681.801 6 -10420151.343 9
  23392660.082    12297315.743 3   9596016.801 9
  20126382.082   -20822795.408 7 -16111894.578 9
  19620088.551   -26356336.320 7 -20481322.868 9
  23008549.754    -7154358.653 5  -5489575.661 9
 92  4 22 22 47 29.9960000  0  5 13 19  2  6 15
  20698349.691   -15973022.606 6 -10502234.944 9
  23407615.809    12375895.040 3   9657247.103 9
  20127437.512   -20817249.535 8 -16107573.146 9
  19617237.645   -26371329.172 7 -20493005.629 9
  23010291.902    -7145177.583 5  -5482421.557 9
 92  4 22 22 47 59.9960000  0  5 13 19  2  6 15
  20678382.535   -16077948.576 6 -10583995.294 9
  23422588.223    12454630.659 3   9718599.240 9
  20128522.738   -20811547.746 7 -16103130.218 9
  19614455.684   -26385938.665 7 -20504389.668 9
  23012152.465    -7135475.144 5  -5474861.240 9
 92  4 22 22 48 29.9960000  0  5 13 19  2  6 15
  20658489.785   -16182466.988 7 -10665438.054 9
  23437634.449    12533528.118 3   9780077.483 9
  20129632.934   -20805696.843 7 -16098571.094 9
  19611750.957   -26400173.018 7 -20515481.394 9
  23014100.223    -7125259.367 5  -5466900.908 9
 92  4 22 22 48 59.9960000  0  5 13 19  2  6 15
  20638683.629   -16286583.284 7 -10746567.496 9
  23452646.629    12612586.391 3   9841680.983 9
  20130774.668   -20799704.620 7 -16093901.865 9
  19609108.410   -26414038.800 7 -20526285.903 9
  23016139.871    -7114544.908 5  -5458552.009 9
 92  4 22 22 49 29.9960000  0  5 13 19  2  6 15
  20618951.512   -16390271.531 7 -10827363.399 9
  23467739.777    12691832.287 3   9903430.703 9
  20131950.785   -20793532.155 7 -16089092.170 9
  19606546.418   -26427510.754 7 -20536783.550 9
  23018273.785    -7103305.383 5  -5449793.937 9
 92  4 22 22 49 59.9960000  0  5 13 19  2  6 15
  20599298.395   -16493539.162 6 -10907831.538 9
  23482836.191    12771251.124 3   9965315.191 9
  20133159.738   -20787184.415 8 -16084145.906 9
  19604053.160   -26440596.898 7 -20546980.559 9
  23020512.121    -7091539.760 5  -5440625.941 9
 92  4 22 22 50 29.9960000  0  5 13 19  2  6 15
  20579727.738   -16596382.303 7 -10987968.918 9
  23497995.035    12850840.388 3  10027332.489 9
  20134400.152   -20780660.396 7 -16079062.289 9
  19601638.613   -26453294.557 7 -20556874.866 9
  23022846.793    -7079245.254 5  -5431045.815 9
 92  4 22 22 50 59.9960000  0  5 13 19  2  6 15
  20560242.160   -16698800.442 7 -11067775.139 9
  23513164.215    12930582.352 3  10089468.741 9
  20135671.262   -20773966.021 7 -16073845.920 9
  19599297.504   -26465603.642 7 -20566466.383 9
  23025290.605    -7066430.489 5  -5421060.291 9
 92  4 22 22 51 29.9960000  0  5 13 19  2  6 15
  20540831.496   -16800781.017 7 -11147240.390 9
  23528379.855          -0.03313
  20136980.941   -20767098.938 8 -16068494.967 9
  19597031.582   -26477512.664 7 -20575746.149 9
  23027825.973    -7053082.679 5  -5410659.411 9
 92  4 22 22 51 59.9960000  0  5 13 19  2  6 15
  20521508.684   -16902330.500 6 -11226369.720 9
  23543594.973       40021.03113
  20138314.168   -20760095.154 8 -16063037.511 9
  19594839.816   -26489028.736 7 -20584719.738 9
  23030464.535    -7039208.942 5  -5399848.708 9
 92  4 22 22 52 29.9960000  0  4 13  2  6 15
  20502265.496   -17003440.645 6 -11305156.731 9
  20139670.356   -20752961.642 8 -16057478.959 9
  19592726.074   -26500144.333 7 -20593381.257 9
  23033212.215    -7024806.104 5  -5388625.744 9
 92  4 22 22 52 59.9960000  0  5 13 19  2  6 15
  20483113.035   -17104118.677 7 -11383607.013 9
  23574120.918          -0.11413
  20141052.207   -20745709.559 8 -16051828.015 9
  19590686.934   -26510867.139 7 -20601736.712 9
  23036058.832    -7009880.324 5  -5376995.284 9
 92  4 22 22 53 29.9960000  0  4 13  2  6 15
  20464030.801   -17204354.915 6 -11461713.040 9
  20142454.582   -20738324.067 8 -16046073.114 9
  19588718.043   -26521188.237 7 -20609779.154 9
  23038990.309    -6994426.102 5  -5364953.067 9
 92  4 22 22 53 59.9960000  0  5 13 19  2  6 15
  20445043.418   -17304154.513 6 -11539478.837 9
  23604736.551          -0.30713
  20143890.988   -20730795.483 8 -16040206.728 9
  19586828.887   -26531113.096 7 -20617512.831 9
  23042023.566    -6978453.363 5  -5352506.774 9
 92  4 22 22 54 29.9960000  0  4 13  2  6 15
  20426134.848   -17403513.942 6 -11616901.651 9
  20145352.520   -20723093.097 8 -16034204.881 9
  19585020.566   -26540639.612 7 -20624936.107 9
  23045165.871    -6961961.802 5  -5339656.216 9
 92  4 22 22 54 59.9960000  0  4 13  2  6 15
  20407314.777   -17502418.315 7 -11693969.870 9
  20146857.637   -20715191.186 8 -16028047.585 9
  19583284.520   -26549753.631 7 -20632037.964 9
  23048409.926    -6944939.481 5  -5326392.071 9
 92  4 22 22 55 29.9960000  0  4 13  2  6 15
  20388581.137   -17600877.902 7 -11770691.503 9
  20148398.012   -20707105.604 8 -16021747.155 9
  19581626.012   -26558465.755 7 -20638826.648 9
  23051746.934    -6927403.210 5  -5312727.443 9
 92  4 22 22 55 59.9960000  0  4 13  2  6 15
  20369927.941   -17698887.413 7 -11847062.427 9
  20149970.074   -20698839.083 8 -16015305.742 9
  19580044.043   -26566771.619 7 -20645298.771 9
  23055177.441    -6909329.873 5  -5298644.331 9
 92  4 22 22 56 29.9960000  0  4 13  2  6 15
  20351363.949   -17796442.387 7 -11923079.183 9
  20151573.285   -20690410.033 8 -16008737.681 9
  19578543.152   -26574667.334 7 -20651451.290 9
  23058721.871    -6890720.859 5  -5284143.804 9
 92  4 22 22 56 59.9960000  0  4 13  2  6 15
  20332888.371   -17893542.187 7 -11998741.239 9
  20153202.910   -20681844.879 8 -16002063.563 9
  19577115.621   -26582152.901 7 -20657284.225 9
  23062363.660    -6871585.692 5  -5269233.299 9
 92  4 22 22 57 29.9960000  0  5 13 19  2  6 15
  20314495.621   -17990185.827 7 -12074047.860 9
  23712562.106          -0.17912
  20154857.637   -20673152.750 8 -15995290.495 9
  19575771.910   -26589228.200 7 -20662797.465 9
  23066101.832    -6851928.154 5  -5253915.746 9
 92  4 22 22 57 59.9960000  0  4 13  2  6 15
  20296193.371   -18086370.687 7 -12148996.991 9
  20156539.762   -20664325.828 8 -15988412.403 9
  19574503.848   -26595891.419 7 -20667989.600 9
  23069949.801    -6831746.241 5  -5238189.592 9
 92  4 22 22 58 29.9960000  0  4 13  2  6 15
  20277978.410   -18182080.601 7 -12223576.021 9
  20158249.027   -20655345.429 8 -15981414.712 9
  19573318.582   -26602126.587 7 -20672848.188 9
  23073885.168    -6811052.286 5  -5222064.434 9
 92  4 22 22 58 59.9960000  0  4 13  2  6 15
  20259854.996   -18277327.808 7 -12297794.512 9
  20159984.363   -20646216.725 7 -15974301.456 9
  19572207.285   -26607947.086 7 -20677383.678 9
  23077917.356    -6789857.917 5  -5205549.349 9
 92  4 22 22 59 29.9960000  0  4 13  2  6 15
  20241818.480   -18372106.741 7 -12371648.129 9
  20161752.527   -20636925.033 8 -15967061.196 9
  19571182.465   -26613347.679 7 -20681591.968 9
  23082046.051    -6768155.211 5  -5188638.164 9
 92  4 22 22 59 59.9960000  0  4 13  2  6 15
  20223872.121   -18466413.050 7 -12445133.452 9
  20163550.332   -20627474.638 8 -15959697.279 9
  19570232.902   -26618324.754 7 -20685470.230 9
  23086262.613    -6745955.210 5  -5171339.477 9
 92  4 22 23  0 29.9960000  0  4 13  2  6 15
  20206015.465   -18560237.950 7 -12518243.657 9
  20165378.684   -20617872.110 8 -15952214.805 9
  19569372.199   -26622870.357 7 -20689012.294 9
  23090592.996    -6723255.501 5  -5153651.408 9
 92  4 22 23  0 59.9960000  0  4 13  2  6 15
  20188251.676   -18653595.637 7 -12590989.804 9
  20167230.262   -20608139.508 7 -15944630.976 9
  19568583.723   -26626999.113 7 -20692229.534 9
  23095005.949    -6700067.718 5  -5135583.022 9
 92  4 22 23  1 29.9960000  0  4 13  2  6 15
  20170574.777   -18746481.628 7 -12663368.390 9
  20169107.434   -20598271.002 8 -15936941.248 9
  19567875.559   -26630707.143 7 -20695118.954 9
  23099510.527    -6676385.068 5  -5117129.041 9
 92  4 22 23  1 59.9960000  0  4 13  2  6 15
  20152992.590   -18838882.732 7 -12735369.144 9
  20171015.981   -20588251.702 8 -15929134.030 9
  19567252.434   -26633982.528 7 -20697671.234 9
  23104110.090    -6652190.759 5  -5098276.329 9
 92  4 22 23  2 29.9960000  0  4 13  2  6 15
  20135501.066   -18930812.732 7 -12807002.800 9
  20172948.301   -20578078.148 7 -15921206.602 9
  19566706.566   -26636838.875 7 -20699896.984 9
  23108812.707    -6627486.323 5  -5079026.146 9
 92  4 22 23  2 59.9960000  0  4 13  2  6 15
  20118098.285   -19022252.983 7 -12878254.841 9
  20174919.176   -20567722.170 7 -15913137.037 9
  19566251.645   -26639258.447 7 -20701782.400 9
  23113623.121    -6602240.638 5  -5059354.176 9
 92  4 22 23  3 29.9960000  0  4 13  2  6 15
  20100789.457   -19113211.970 7 -12949131.877 9
  20176926.801   -20557190.293 8 -15904930.392 9
  19565872.684   -26641250.227 7 -20703334.468 9
  23118529.246    -6576451.979 5  -5039259.120 9
 92  4 22 23  3 59.9960000  0  4 13  2  6 15
  20083571.988   -19203688.688 7 -13019633.110 9
  20178962.660   -20546487.154 7 -15896590.312 9
  19565574.441   -26642814.229 7 -20704553.204 9
  23123532.809    -6550136.164 5  -5018753.317 9
 92  4 22 23  4 29.9960000  0  4 13  2  6 15
  20066447.418   -19293682.096 7 -13089757.733 9
  20181030.535   -20535617.861 7 -15888120.754 9
  19565358.535   -26643949.530 7 -20705437.882 9
  23128641.348    -6523308.155 5  -4997848.383 9
 92  4 22 23  4 59.9960000  0  4 13  2  6 15
  20049414.980   -19383183.552 7 -13159499.021 9
  20183126.965   -20524587.160 7 -15879525.424 9
  19565220.949   -26644647.796 7 -20705982.009 9
  23133845.418    -6495969.982 5  -4976545.949 9
 92  4 22 23  5 29.9960000  0  4 13  2  6 15
  20032475.512   -19472196.161 7 -13228859.388 9
  20185261.629   -20513391.520 7 -15870801.568 9
  19565176.152   -26644913.095 7 -20706188.764 9
  23139134.871    -6468154.801 5  -4954871.818 9
 92  4 22 23  5 59.9960000  0  4 13  2  6 15
  20015630.895   -19560726.137 7 -13297843.685 9
  20187421.496   -20502036.493 7 -15861953.522 9
  19565207.316   -26644752.083 7 -20706063.311 9
  23144517.512    -6439880.134 5  -4932839.617 9
 92  4 22 23  6 29.9960000  0  4 13  2  6 15
  19998877.691   -19648767.361 7 -13366447.140 9
  20189610.176   -20490517.844 7 -15852977.983 9
  19565318.004   -26644159.319 7 -20705601.442 9
  23149986.988    -6411123.302 5  -4910431.709 9
 92  4 22 23  6 59.9960000  0  4 13  2  6 15
  19982215.254   -19736316.086 7 -13434666.824 9
  20191833.535   -20478834.696 7 -15843874.265 9
  19565518.106   -26643131.616 7 -20704800.656 9
  23155556.191    -6381866.260 5  -4887634.046 9
 92  4 22 23  7 29.9960000  0  4 13  2  6 15
  19965647.910   -19823380.038 7 -13502508.770 9
  20194087.746   -20466995.476 7 -15834648.919 9
  19565791.856   -26641677.456 7 -20703667.570 9
  23161217.996    -6352113.865 5  -4864450.386 9
 92  4 22 23  7 59.9960000  0  4 13  2  6 15
  19949177.957   -19909944.299 7 -13569961.344 9
  20196366.762   -20455007.500 7 -15825307.672 9
  19566151.449   -26639781.950 7 -20702190.577 9
  23166978.606    -6321838.053 5  -4840858.866 9
 92  4 22 23  8 29.9960000  0  4 13  2  6 15
  19932800.887   -19996006.495 7 -13637022.701 9
  20198680.520   -20442866.358 7 -15815847.072 9
  19566595.051   -26637443.777 7 -20700368.650 9
  23172844.152    -6291041.351 5  -4816861.482 9
 92  4 22 23  8 59.9960000  0  4 13  2  6 15
  19916518.020   -20081569.883 7 -13703695.376 9
  20201019.496   -20430574.842 7 -15806269.301 9
  19567126.246   -26634666.854 7 -20698204.849 9
  23178785.238    -6259749.590 5  -4792478.305 9
 92  4 22 23  9 29.9960000  0  4 13  2  6 15
  19900332.066   -20166627.563 7 -13769973.990 9
  20203388.606   -20418127.381 7 -15796570.010 9
  19567739.699   -26631444.434 7 -20695693.908 9
  23184844.738    -6227973.928 5  -4767718.086 9
 92  4 22 23  9 59.9960000  0  4 13  2  6 15
  19884241.645   -20251183.846 7 -13835861.908 9
  20205792.566   -20405518.470 7 -15786744.930 9
  19568433.590   -26627781.909 7 -20692840.028 9
  23190975.184    -6195714.654 5  -4742580.986 9
 92  4 22 23 10 29.9960000  0  4 13  2  6 15
  19868245.754   -20335231.740 7 -13901353.683 9
  20208222.270   -20392724.791 7 -15776775.864 9
  19569216.066   -26623672.367 7 -20689637.832 9
  23197216.145    -6162958.584 5  -4717056.827 9
 92  4 22 23 10 59.9960000  0  4 13  2  6 15
  19852352.645   -20418752.987 7 -13966435.084 9
  20210695.770   -20379732.937 7 -15766652.379 9
  19570086.762   -26619097.755 7 -20686073.225 9
  23203548.059    -6129686.532 5  -4691130.574 9
 92  4 22 23 11 29.9960000  0  4 13  2  6 15
  19836557.934   -20501757.691 7 -14031113.992 9
  20213204.520   -20366547.012 7 -15756377.669 9
  19571045.606   -26614069.446 7 -20682155.098 9
  23209973.301    -6095902.722 5  -4664805.555 9
 92  4 22 23 11 59.9960000  0  4 13  2  6 15
  19820862.207   -20584232.620 7 -14095380.082 9
  20215753.496   -20353142.470 7 -15745932.605 9
  19572091.934   -26608573.888 7 -20677872.876 9
  23216495.535    -6061600.924 5  -4638076.945 9
 92  4 22 23 12 29.9960000  0  4 13  2  6 15
  19805274.020   -20666163.136 7 -14159221.954 9
  20218346.285   -20339523.550 7 -15735320.504 9
  19573229.707   -26602597.649 7 -20673216.098 9
  23223126.676    -6026791.583 5  -4610952.795 9
 92  4 22 23 12 59.9960000  0  4 13  2  6 15
  19789781.231   -20747568.932 7 -14222654.959 9
  20220973.262   -20325721.319 7 -15724565.550 9
  19574452.535   -26596160.679 7 -20668200.314 9
  23229832.277    -5991518.679 5  -4583467.415 9
 92  4 22 23 13 29.9960000  0  4 13  2  6 15
  19774392.512   -20828441.914 7 -14285672.769 9
  20223631.629   -20311738.758 7 -15713670.090 9
  19575762.605   -26589254.982 7 -20662819.292 9
  23236646.254    -5955769.745 5  -4555611.186 9
 92  4 22 23 13 59.9960000  0  4 13  2  6 15
  19759102.590   -20908781.594 7 -14348275.035 9
  20226324.387   -20297599.149 7 -15702652.245 9
  19577173.395   -26581880.745 7 -20657073.168 9
  23243536.113    -5919541.985 5  -4527381.765 9
 92  4 22 23 14 29.9960000  0  4 13  2  6 15
  19743914.262   -20988590.634 7 -14410463.812 9
  20229042.160   -20283327.551 7 -15691531.559 9
  19578658.566   -26574041.462 7 -20650964.666 9
  23250516.715    -5882818.092 5  -4498765.786 9
 92  4 22 23 14 59.9960000  0  4 13  2  6 15
  19728831.277   -21067868.302 7 -14472238.525 9
  20231781.270   -20268918.291 7 -15680303.602 9
  19580240.746   -26565737.034 7 -20644493.736 9
  23257606.941    -5845573.385 5  -4469743.972 9
 92  4 22 23 15 29.9960000  0  4 13  2  6 15
  19713844.332   -21146614.141 7 -14533598.837 9
  20234552.988   -20254363.072 7 -15668961.893 9
  19581912.777   -26556967.358 7 -20637660.273 9
  23264800.457    -5807802.936 5  -4440312.481 9
 92  4 22 23 15 59.9960000  0  4 13  2  6 15
  19698963.676   -21224826.686 7 -14594543.590 9
  20237350.129   -20239645.602 7 -15657493.767 9
  19583668.098   -26547731.184 7 -20630463.284 9
  23272078.965    -5769527.467 5  -4410487.463 9
 92  4 22 23 16 29.9960000  0  4 13  2  6 15
  19684178.043   -21302511.348 7 -14655077.004 9
  20240186.824   -20224749.231 7 -15645886.241 9
  19585514.004   -26538034.196 7 -20622907.239 9
  23279454.191    -5730766.017 5  -4380283.790 9
 92  4 22 23 16 59.9960000  0  4 13  2  6 15
  19669493.621   -21379673.134 7 -14715202.989 9
  20243059.566   -20209660.999 7 -15634129.208 9
  19587447.793   -26527881.892 7 -20614996.398 9
  23286921.785    -5691550.733 5  -4349726.449 9
 92  4 22 23 17 29.9960000  0  4 13  2  6 15
  19654911.816   -21456308.916 7 -14774919.099 9
  20245965.504   -20194381.225 7 -15622222.923 9
  19589468.191   -26517272.172 7 -20606729.126 9
  23294469.699    -5651900.377 5  -4318830.124 9
 92  4 22 23 17 59.9960000  0  4 13  2  6 15
  19640430.059   -21532412.748 7 -14834220.701 9
  20248910.637   -20178910.595 7 -15610167.918 9
  19591574.043   -26506198.842 7 -20598100.592 9
  23302088.637    -5611807.396 4  -4287588.905 9
 92  4 22 23 18 29.9960000  0  4 13  2  6 15
  19626045.566   -21607990.008 7 -14893111.989 9
  20251887.098   -20163263.707 7 -15597975.569 9
  19593764.895   -26494667.380 7 -20589115.078 9
  23309811.863    -5571262.569 5  -4255995.577 9
 92  4 22 23 18 59.9960000  0  4 13  2  6 15
  19611765.832   -21683033.902 7 -14951587.669 9
  20254894.652   -20147449.666 7 -15585652.980 9
  19596051.730   -26482671.988 7 -20579768.058 9
  23317612.426    -5530257.338 5  -4224043.502 9
 92  4 22 23 19 29.9960000  0  4 13  2  6 15
  19597584.941   -21757557.314 7 -15009657.769 9
  20257933.332   -20131491.762 7 -15573218.278 9
  19598416.566   -26470226.317 7 -20570070.178 9
  23325498.121    -5488793.962 5  -4191734.406 9
 92  4 22 23 19 59.9960000  0  4 13  2  6 15
  19583502.035   -21831566.206 7 -15067326.959 9
  20260995.809   -20115387.166 7 -15560669.288 9
  19600870.145   -26457336.133 7 -20560025.916 9
  23333474.731    -5446877.153 4  -4159072.022 9
 92  4 22 23 20 29.9960000  0  4 13  2  6 15
  19569519.996   -21905046.010 7 -15124583.858 9
  20264092.770   -20099120.306 7 -15547993.850 9
  19603409.379   -26443987.079 7 -20549624.108 9
  23341546.434    -5404489.243 5  -4126042.570 9
 92  4 22 23 20 59.9960000  0  4 13  2  6 15
  19555639.137   -21977985.911 7 -15181420.069 9
  20267222.934   -20082679.882 7 -15535183.178 9
  19606039.434   -26430169.673 7 -20538857.337 9
  23349697.941    -5361629.146 4  -4092645.129 9
 92  4 22 23 21 29.9960000  0  4 13  2  6 15
  19541861.496   -22050385.903 7 -15237835.566 9
  20270386.254   -20066057.462 7 -15522230.687 9
  19608758.512   -26415883.928 7 -20527725.635 9
  23357945.379    -5318309.022 5  -4058889.230 9
 92  4 22 23 21 59.9960000  0  4 13  2  6 15
  19528185.902   -22122249.437 7 -15293833.041 9
  20273580.770   -20049260.875 7 -15509142.478 9
  19611566.105   -26401133.384 7 -20516231.734 9
  23366280.113    -5274535.454 4  -4024779.987 9
 92  4 22 23 22 29.9960000  0  3 13  2  6
  19514616.145   -22193571.700 7 -15349408.757 9
  20276810.676   -20032289.461 7 -15495918.046 9
  19614461.176   -26385913.914 7 -20504372.453 9
 92  4 22 23 22 59.9960000  0  3 13  2  6
  19501143.605   -22264357.055 7 -15404566.094 9
  20280073.395   -20015150.286 7 -15482562.877 9
  19617446.691   -26370229.936 7 -20492151.211 9
 92  4 22 23 23 29.9960000  0  3 13  2  6
  19487776.113   -22334602.776 7 -15459302.944 9
  20283369.270   -19997840.799 7 -15469075.004 9
  19620518.887   -26354079.578 7 -20479566.556 9
 92  4 22 23 23 59.9960000  0  3 13  2  6
  19474512.051   -22404311.016 7 -15513620.975 9
  20286693.676   -19980360.248 7 -15455453.841 9
  19623686.824   -26337464.820 7 -20466620.040 9
 92  4 22 23 24 29.9960000  0  3 13  2  6
  19461348.754   -22473476.650 7 -15567516.204 9
  20290055.387   -19962686.983 7 -15441682.504 9
  19626934.363   -26320380.714 7 -20453307.787 9
 92  4 22 23 24 59.9960000  0  3 13  2  6
  19448290.074   -22542107.308 7 -15620994.574 9
  20293457.840   -19944825.996 7 -15427764.890 9
  19630273.637   -26302835.679 7 -20439636.377 9
 92  4 22 23 25 29.9960000  0  3 13  2  6
  19435333.738   -22610193.153 7 -15674048.407 9
  20296890.887   -19926761.934 7 -15413689.052 9
  19633702.379   -26284820.054 7 -20425598.265 9
 92  4 22 23 25 59.9960000  0  3 13  2  6
  19422478.082   -22677736.758 7 -15726679.715 9
  20300366.676   -19908504.043 7 -15399462.158 9
  19637219.145   -26266336.757 7 -20411195.754 9
 92  4 22 23 26 29.9960000  0  3 13  2  6
  19409730.652   -22744737.434 7 -15778887.966 9
  20303876.621   -19890058.680 7 -15385089.194 9
  19640819.176   -26247385.742 7 -20396428.781 9
 92  4 22 23 26 59.9960000  0  3 13  2  6
  19397082.481   -22811199.307 7 -15830676.370 9
  20307417.395   -19871456.777 7 -15370594.242 9
  19644518.824   -26227971.506 7 -20381300.850 9
 92  4 22 23 27 29.9960000  0  3 13  2  6
  19384542.566   -22877101.093 7 -15882028.344 9
  20310986.496   -19852685.590 7 -15355967.386 9
  19648301.699   -26208072.579 7 -20365795.237 9
 92  4 22 23 27 59.9960000  0  3 13  2  6
  19372104.879   -22942451.979 7 -15932951.039 9
  20314589.871   -19833762.587 7 -15341222.225 9
  19652179.465   -26187698.776 7 -20349919.593 9
 92  4 22 23 28 29.9960000  0  3 13  2  6
  19359775.559   -23007251.047 7 -15983443.755 9
  20318219.707   -19814690.196 7 -15326360.663 9
  19656151.949   -26166849.559 7 -20333673.501 9
 92  4 22 23 28 59.9960000  0  3 13  2  6
  19347546.418   -23071513.765 7 -16033518.539 9
  20321873.527   -19795484.937 7 -15311395.559 9
  19660204.785   -26145540.815 7 -20317069.332 9
 92  4 22 23 29 29.9950000  0  3 13  2  6
  19335424.718   -23135218.608 7 -16083158.611 9
  20325561.007   -19776108.632 7 -15296297.175 9
  19664351.249   -26123753.840 7 -20300092.519 9
 92  4 22 23 29 59.9950000  0  3 13  2  6
  19323405.874   -23198377.600 7 -16132373.347 9
  20329281.030   -19756563.603 7 -15281067.317 9
  19668587.491   -26101495.573 7 -20282748.470 9
 92  4 22 23 30 29.9950000  0  3 13  2  6
  19311489.015   -23260991.054 7 -16181162.988 9
  20333031.523   -19736842.077 7 -15265699.931 9
  19672909.983   -26078769.225 7 -20265039.679 9
 92  4 22 23 30 59.9950000  0  3 13  2  6
  19299680.523   -23323050.654 7 -16229521.057 9
  20336821.585   -19716926.082 7 -15250181.014 9
  19677322.226   -26055566.669 7 -20246959.825 9
 92  4 22 23 31 29.9950000  0  3 13  2  6
  19287973.890   -23384558.464 7 -16277449.158 9
  20340651.608   -19696817.759 7 -15234512.226 9
  19681831.101   -26031890.477 7 -20228510.898 9
 92  4 22 23 31 59.9950000  0  4 13 12  2  6
  19276377.366   -23445508.793 7 -16324942.855 9
  23248337.421      -56726.66414
  20344512.483   -19676517.104 7 -15218693.565 9
  19686424.351   -26007734.941 7 -20209688.453 9
 92  4 22 23 32 29.9950000  0  4 13 12  2  6
  19264884.194   -23505894.626 7 -16371996.687 9
  23226747.585     -170184.320 3        -0.30119
  20348415.835   -19656019.536 7 -15202721.477 9
  19691112.194   -25983093.530 7 -20190487.411 9
 92  4 22 23 32 59.9950000  0  4 13 12  2  6
  19253616.179   -23565131.479 7 -16418155.219 9
  23205265.765     -283069.397 3    -87962.628 9
  20352462.523   -19634748.067 7 -15186146.349 9
  19696009.952   -25957382.246 7 -20170452.693 9
 92  4 22 23 33 29.9950000  0  4 13 12  2  6
  19242446.382   -23623816.496 7 -16463883.745 9
  23183779.491     -395977.583 3   -175942.914 9
  20356540.827   -19613304.226 7 -15169436.905 9
  19700995.718   -25931198.160 7 -20150049.559 9
 92  4 22 23 33 59.9950000  0  4 13 12  2  6
  19231385.429   -23681949.062 7 -16509181.784 9
  23162291.921     -508906.676 3   -263939.498 9
  20360660.335   -19591687.866 7 -15152593.032 9
  19706065.726   -25904540.998 7 -20129277.814 9
 92  4 22 23 34 29.9950000  0  4 13 12  2  6
  19220430.483   -23739510.467 7 -16554034.765 9
  23140796.796     -621836.763 2   -351936.878 9
  20364804.429   -19569877.821 7 -15135598.250 9
  19711228.983   -25877392.167 7 -20108122.928 9
 92  4 22 23 34 59.9950000  0  4 13 12  2  6
  19209584.968   -23796516.755 7 -16598455.195 9
  23119314.319     -734781.893 3   -439946.024 9
  20368990.437   -19547882.604 7 -15118459.176 9
  19716486.147   -25849767.868 7 -20086597.571 9
 92  4 22 23 35 29.9950000  0  4 13 12  2  6
  19198841.101   -23852971.669 7 -16642445.967 9
  23097806.226     -847745.010 3   -527969.164 9
  20373214.679   -19525702.530 7 -15101176.052 9
  19721831.921   -25821672.388 7 -20064705.046 9
 92  4 22 23 35 59.9950000  0  4 13 12  2  6
  19188204.132   -23908866.837 7 -16686000.586 9
  23076312.093     -960715.726 3   -615998.169 9
  20377469.304   -19503319.333 7 -15083734.647 9
  19727271.718   -25793097.183 7 -20042438.708 9
 92  4 22 23 36 29.9950000  0  4 13 12  2  6
  19177673.882   -23964200.483 7 -16729117.659 9
  23054816.444    -1073690.730 3   -704030.605 9
  20381773.960   -19480720.091 7 -15066124.893 9
  19732800.312   -25764040.710 7 -20019797.362 9
 92  4 22 23 36 59.9950000  0  4 13 12  2  6
  19167249.929   -24018975.476 7 -16771799.418 9
  23033322.280    -1186671.829 3   -792067.754 9
  20386113.358   -19457909.400 7 -15048350.372 9
  19738422.671   -25734506.597 7 -19996783.824 9
 92  4 22 23 37 29.9950000  0  4 13 12  2  6
  19156931.187   -24073197.066 7 -16814049.945 9
  23011814.015    -1299662.482 3   -880112.372 9
  20390489.343   -19434905.694 7 -15030425.452 9
  19744133.429   -25704500.309 7 -19973402.371 9
 92  4 22 23 37 59.9950000  0  4 13 12  2  6
  19146723.483   -24126843.147 7 -16855852.033 9
  22990324.765    -1412638.552 3   -968145.581 9
  20394911.210   -19411692.156 7 -15012337.031 9
  19749932.890   -25673999.304 7 -19949635.412 9
 92  4 22 23 38 29.9950000  0  4 13 12  2  6
  19136620.640   -24179938.231 7 -16897224.779 9
  22968826.694    -1525623.216 2  -1056185.481 9
  20399356.038   -19388308.100 7 -14994115.738 9
  19755831.929   -25643028.781 7 -19925502.599 9
 92  4 22 23 38 59.9950000  0  4 13 12  2  6
  19126621.226   -24232476.150 7 -16938163.357 9
  22947312.132    -1638608.425 3  -1144225.814 9
  20403837.390   -19364770.345 7 -14975774.676 9
  19761812.577   -25611582.749 7 -19900999.261 9
 92  4 22 23 39 29.9950000  0  4 13 12  2  6
  19116732.679   -24284445.295 7 -16978658.747 9
  22925818.132    -1751581.111 3  -1232256.364 9
  20408347.796   -19341066.149 7 -14957303.918 9
  19767890.687   -25579649.761 7 -19876116.481 9
 92  4 22 23 39 59.9950000  0  4 13 12  2  6
  19106950.585   -24335849.219 7 -17018713.695 9
  22904324.335    -1864542.798 4  -1320278.419 9
  20412889.921   -19317185.203 7 -14938695.431 9
  19774059.976   -25547233.670 7 -19850857.256 9
 92  4 22 23 40 29.9950000  0  4 13 12  2  6
  19097275.476   -24386700.859 7 -17058338.304 9
  22882825.687    -1977504.477 4  -1408300.409 9
  20417471.054   -19293126.612 7 -14919948.521 9
  19780316.804   -25514347.417 7 -19825231.674 9
 92  4 22 23 40 59.9950000  0  4 13 12  2  6
  19087702.812   -24437001.129 7 -17097533.268 9
  22861329.077    -2090465.327 5  -1496321.790 9
  20422087.515   -19268876.796 7 -14901052.609 9
  19786659.069   -25480992.033 7 -19799240.519 9
 92  4 22 23 41 29.9950000  0  4 13 12  2  6
  19078236.038   -24486744.676 7 -17136294.451 9
  22839837.249    -2203417.468 5  -1584336.368 9
  20426739.898   -19244407.211 7 -14881985.469 9
  19793102.280   -25447161.906 7 -19772879.465 9
 92  4 22 23 41 59.9950000  0  4 13 12  2  6
  19068875.437   -24535934.129 7 -17174623.823 9
  22818342.304    -2316361.970 5  -1672344.996 9
  20431438.819   -19219731.091 7 -14862757.353 9
  19799630.437   -25412860.180 7 -19746150.892 9
 92  4 22 23 42 29.9950000  0  4 13 12  2  6
  19059623.101   -24584562.022 7 -17212515.670 9
  22796852.483    -2429289.230 5  -1760340.226 9
  20436169.429   -19194853.450 7 -14843372.260 9
  19806243.726   -25378079.439 7 -19719049.113 9
 92  4 22 23 42 59.9950000  0  4 13 12  2  6
  19050474.624   -24632633.096 7 -17249973.572 9
  22775366.038    -2542202.270 5  -1848324.336 9
  20440939.733   -19169799.412 7 -14823849.653 9
  19812952.179   -25342824.724 6 -19691577.928 9
 92  4 22 23 43 29.9950000  0  4 13 12  2  6
  19041434.241   -24680148.077 7 -17286998.191 9
  22753890.944    -2655100.247 5  -1936296.710 9
  20445740.398   -19144585.847 7 -14804202.780 9
  19819754.780   -25307097.336 7 -19663738.478 9
 92  4 22 23 43 59.9950000  0  4 13 12  2  6
  19032497.093   -24727112.551 7 -17323593.838 9
  22732397.468    -2767986.225 5  -2024259.719 9
  20450562.866   -19119226.389 7 -14784442.223 9
  19826643.851   -25270902.699 7 -19635534.933 9
 92  4 22 23 44 29.9950000  0  4 13 12  2  6
  19023666.296   -24773513.351 7 -17359750.259 9
  22710926.944    -2880844.578 5  -2112201.214 9
  20455422.577   -19093684.243 7 -14764539.317 9
  19833624.054   -25234227.631 7 -19606957.039 9
 92  4 22 23 44 59.9950000  0  4 13 12  2  6
  19014941.397   -24819359.823 7 -17395474.732 9
  22689448.241    -2993682.835 5  -2200127.027 9
  20460315.804   -19067964.050 7 -14744497.666 9
  19840687.483   -25197081.764 7 -19578012.275 9
 92  4 22 23 45 29.9950000  0  4 13 12  2  6
  19006324.421   -24864643.930 7 -17430761.011 9
  22667988.015    -3106490.493 5  -2288029.029 9
  20465253.241   -19042041.820 7 -14724298.585 9
  19847853.483   -25159457.126 7 -19548694.459 9
 92  4 22 23 45 59.9950000  0  4 13 12  2  6
  18997811.077   -24909379.098 7 -17465619.569 9
  22646521.038    -3219279.047 5  -2375916.165 9
  20470220.991   -19015915.496 7 -14703940.498 9
  19855101.015   -25121367.254 7 -19519014.143 9
 92  4 22 23 46 29.9950000  0  4 13 12  2  6
  18989404.608   -24953555.443 7 -17500042.607 9
  22625071.741    -3332036.360 5  -2463778.918 9
  20475235.577   -18989568.070 7 -14683410.060 9
  19862439.679   -25082802.545 7 -19488963.763 9
 92  4 22 23 46 59.9950000  0  4 13 12  2  6
  18981105.546   -24997175.863 7 -17534032.503 9
  22603619.218    -3444762.360 5  -2551617.284 9
  20480288.280   -18963020.348 7 -14662723.583 9
  19869867.483   -25043765.509 7 -19458545.376 9
 92  4 22 23 47 29.9950000  0  4 13 12  2  6
  18972908.233   -25040233.781 7 -17567584.107 9
  22582172.335    -3557449.177 5  -2639425.159 9
  20485381.155   -18936261.209 7 -14641872.391 9
  19877381.647   -25004250.538 7 -19427754.614 9
 92  4 22 23 47 59.9950000  0  4 13 12  2  6
  18964820.749   -25082739.098 7 -17600705.055 9
  22560737.905    -3670103.848 5  -2727207.921 9
  20490508.858   -18909305.897 7 -14620868.271 9
  19884999.601   -24964267.274 7 -19396598.876 9
 92  4 22 23 48 29.9950000  0  4 13 12  2  6
  18956838.155   -25124690.149 7 -17633394.156 9
  22539305.663    -3782722.542 5  -2814962.675 9
  20495674.062   -18882166.651 7 -14599720.868 9
  19892687.866   -24923814.040 7 -19365076.969 9
 92  4 22 23 48 59.9950000  0  4 13 12  2  6
  18948961.382   -25166086.621 7 -17665651.096 9
  22517883.616    -3895302.013 5  -2902686.870 9
  20500869.921   -18854854.210 7 -14578438.498 9
  19900478.101   -24882890.547 7 -19333188.615 9
 92  4 22 23 49 29.9950000  0  5 13 12 24  2  6
  18941190.913   -25206924.990 7 -17697473.157 9
  22496465.851    -4007836.661 5  -2990376.132 9
  23330283.405     -125236.315 4        -0.05211
  20506105.898   -18827357.774 7 -14557012.757 9
  19908354.413   -24841493.352 6 -19300931.159 9
 92  4 22 23 49 59.9950000  0  5 13 12 24  2  6
  18933521.585   -25247215.382 7 -17728868.216 9
  22475059.312    -4120333.351 5  -3078035.837 9
  23306431.710     -250506.216 3    -48806.42519
  20511368.374   -18799686.695 7 -14535450.923 9
  19916317.718   -24799632.211 7 -19268312.163 9
 92  4 22 23 50 29.9950000  0  5 13 12 24  2  6
  18925964.007   -25286938.322 7 -17759821.116 9
  22453656.460    -4232770.866 5  -3165649.399 9
  23282594.351     -375797.940 3   -146435.811 9
  20516674.241   -18771816.403 7 -14513733.866 9
  19924380.757   -24757288.300 7 -19235316.984 9
 92  4 22 23 50 59.9950000  0  5 13 12 24  2  6
  18918508.749   -25326105.226 7 -17790340.767 9
  22432279.827    -4345158.157 5  -3253223.846 9
  23258763.101     -501121.725 4   -244090.198 9
  20522011.077   -18743745.205 7 -14491860.290 9
  19932530.444   -24714473.585 6 -19201954.999 9
 92  4 22 23 51 29.9950000  0  5 13 12 24  2  6
  18911165.148   -25364710.773 7 -17820422.932 9
  22410902.757    -4457487.218 5  -3340752.870 9
  23234896.273     -626480.770 3   -341772.002 9
  20527398.171   -18715467.381 7 -14469825.635 9
  19940767.062   -24671182.596 7 -19168221.822 9
 92  4 22 23 51 59.9950000  0  5 13 12 24  2  6
  18903922.952   -25402762.352 7 -17850073.517 9
  22389541.132    -4569762.461 5  -3428240.060 9
  23211039.679     -751878.474 4   -439483.968 9
  20532816.046   -18686986.214 7 -14447632.605 9
  19949094.687   -24627422.534 6 -19134123.198 9
 92  4 22 23 52 29.9950000  0  5 13 12 24  2  6
  18896786.937   -25440258.552 7 -17879291.243 9
  22368181.233    -4681980.205 5  -3515682.328 9
  23187165.280     -877327.735 4   -537236.076 9
  20538274.874   -18658298.919 7 -14425278.872 9
  19957510.577   -24583192.208 7 -19099658.043 9
 92  4 22 23 52 59.9950000  0  5 13 12 24  2  6
  18889758.632   -25477199.338 7 -17908076.240 9
  22346838.976    -4794137.386 5  -3603077.465 9
  23163284.499    -1002820.118 4   -635021.812 9
  20543771.585   -18629415.050 7 -14402772.026 9
  19966016.054   -24538491.513 6 -19064826.441 9
 92  4 22 23 53 29.9950000  0  5 13 12 24  2  6
  18882833.304   -25513587.191 7 -17936430.366 9
  22325504.507    -4906233.660 6  -3690425.129 9
  23139394.843    -1128352.141 4   -732838.441 9
  20549303.718   -18600338.707 7 -14380115.180 9
  19974610.163   -24493322.790 6 -19029630.130 9
 92  4 22 23 53 59.9950000  0  5 13 12 24  2  6
  18876011.710   -25549439.481 7 -17964367.170 9
  22304181.523    -5018283.967 6  -3777736.994 9
  23115505.812    -1253935.266 4   -830694.845 9
  20554872.077   -18571080.450 7 -14357316.579 9
  19983290.819   -24447703.922 6 -18994083.050 9
 92  4 22 23 54 29.9950000  0  5 13 12 24  2  6
  18869291.663   -25584740.292 7 -17991874.267 9
  22282876.648    -5130269.013 6  -3864997.997 9
  23091598.390    -1379549.740 4    -48941.75011
  20560471.366   -18541639.221 7 -14334375.426 9
  19992061.655   -24401618.368 6 -18958172.334 9
 92  4 22 23 54 59.9950000  0  5 13 12 24  2  6
  18862680.874   -25619490.102 7 -18018952.002 9
  22261577.530    -5242186.762 6  -3952206.562 9
  23067694.327    -1505175.722 4   -146831.542 1
  20566108.796   -18512020.508 7 -14311295.961 9
  20000916.640   -24355067.172 6 -18921898.775 9
 92  4 22 23 55 29.9950000  0  5 13 12 24  2  6
  18856173.741   -25653688.319 7 -18045599.927 9
  22240292.749    -5354033.466 6  -4039359.781 9
  23043787.155    -1630810.708 4   -244728.364 1
  20571785.655   -18482207.582 7 -14288065.166 9
  20009868.007   -24308049.576 6 -18885261.788 9
 92  4 22 23 55 59.9950000  0  5 13 12 24  2  6
  18849769.382   -25687335.370 7 -18071818.363 9
  22219022.905    -5465806.947 6  -4126455.923 9
  23019873.108    -1756455.671 4    -48952.96919
  20577491.726   -18452199.804 7 -14264682.549 9
  20018906.108   -24260566.064 6 -18848261.745 9
 92  4 22 23 56 29.9950000  0  5 13 12 24  2  6
  18843469.960   -25720440.520 7 -18097614.550 9
  22197769.116    -5577514.146 5  -4213500.419 9
  22995952.147    -1882120.792 4   -146873.224 9
  20583240.155   -18422005.645 7 -14241154.690 9
  20028026.155   -24212626.459 6 -18810906.311 9
 92  4 22 23 56 59.9950000  0  5 13 12 24  2  6
  18837278.062   -25752984.019 7 -18122973.085 9
  22176525.218    -5689131.418 5  -4300474.827 9
  22972048.733    -2007777.589 4   -244787.012 9
  20589029.648   -18391588.588 7 -14217453.153 9
  20037241.444   -24164210.520 6 -18773179.698 9
 92  4 22 23 57 29.9950000  0  5 13 12 24  2  6
  18831186.788   -25784983.937 7 -18147908.053 9
  22155297.999    -5800674.034 5  -4387391.079 9
  22948126.444    -2133437.018 4   -342702.840 9
  20594855.124   -18360964.890 7 -14193590.605 9
  20046540.171   -24115336.472 6 -18735096.136 9
 92  4 22 23 57 59.9950000  0  5 13 12 24  2  6
  18825201.983   -25816443.096 7 -18172421.642 9
  22134088.108    -5912141.875 5  -4474249.074 9
  22924209.077    -2259091.510 5   -440614.830 9
  20600721.179   -18330147.558 7 -14169577.169 9
  20055930.835   -24066006.929 7 -18696657.621 9
 92  4 22 23 58 29.9950000  0  5 13 12 24  2  6
  18819319.257   -25847348.188 7 -18196503.495 9
  22112893.030    -6023518.564 5  -4561036.041 9
  22900307.171    -2384719.367 5   -538506.088 9
  20606628.015   -18299120.044 7 -14145399.954 9
  20065403.937   -24016208.964 6 -18657854.117 9
 92  4 22 23 58 59.9950000  0  5 13 12 24  2  6
  18813544.476   -25877703.129 7 -18220156.659 9
  22091718.085    -6134804.601 5  -4647752.363 9
  22876411.733    -2510313.523 5   -636371.059 9
  20612572.608   -18267876.197 7 -14121054.173 9
  20074966.171   -23965946.106 6 -18618688.361 9
 92  4 22 23 59 29.9950000  0  5 13 12 24  2  6
  18807872.226   -25907510.326 7 -18243383.014 9
  22070559.960    -6245999.344 5  -4734397.547 9
  22852513.296    -2635884.808 5   -734218.242 9
  20618551.890   -18236415.361 7 -14096539.312 9
  20084625.444   -23915220.673 7 -18579162.156 9
 92  4 22 23 59 59.9950000  0  5 13 12 24  2  6
  18802301.280   -25936781.136 7 -18266191.395 9
  22049414.944    -6357110.981 5  -4820977.965 9
  22828613.765    -2761459.302 5   -832067.905 9
  20624587.077   -18204741.194 7 -14071858.206 9
  20094356.851   -23864044.396 6 -18539284.635 9
 92  4 23  0  0 29.9950000  0  5 13 12 24  2  6
  18796837.523   -25965493.536 7 -18288564.697 9
  22028292.241    -6468114.180 5  -4907473.912 9
  22804720.569    -2887025.180 5   -929910.907 9
  20630659.968   -18172827.084 7 -14046990.173 9
  20104186.530   -23812394.862 6 -18499038.377 9
 92  4 23  0  0 59.9950000  0  5 13 12 24  2  6
  18791476.437   -25993665.107 7 -18310516.524 9
  22007184.124    -6579024.057 6  -4993897.120 9
  22780827.507    -3012595.274 5  -1027757.208 9
  20636768.694   -18140699.257 7 -14021955.578 9
  20114102.499   -23760290.288 6 -18458437.516 9
 92  4 23  0  1 29.9950000  0  5 13 12 24  2  6
  18786217.929   -26021305.252 7 -18332054.268 9
  21986094.398    -6689846.207 6  -5080251.961 9
  22756935.062    -3138170.598 5  -1125607.517 9
  20642919.124   -18108378.094 7 -13996770.313 9
  20124105.890   -23707739.876 6 -18417489.230 9
 92  4 23  0  1 59.9950000  0  5 13 12 24  2  6
  18781063.538   -26048401.094 7 -18353167.883 9
  21965024.882    -6800564.527 6  -5166525.914 9
  22733039.233    -3263724.101 5  -1223440.938 9
  20649106.968   -18075855.898 7 -13971428.413 9
  20134192.999   -23654730.840 6 -18376183.596 9
 92  4 23  0  2 29.9950000  0  5 13 12 24  2  6
  18776006.663   -26074962.841 7 -18373865.293 9
  21943976.866    -6911186.063 6  -5252724.424 9
  22709149.788    -3389249.311 5  -1321252.255 9
  20655334.233   -18043149.362 7 -13945942.854 9
  20144366.421   -23601273.291 6 -18334528.445 9
 92  4 23  0  2 59.9950000  0  5 13 12 24  2  6
  18771054.999   -26100986.064 8 -18394143.093 9
  21922945.835    -7021702.817 5  -5338841.296 9
  22685273.007    -3514731.251 5  -1419029.907 9
  20661597.030   -18010250.557 7 -13920307.485 9
  20154627.554   -23547362.664 6 -18292520.266 9
 92  4 23  0  3 29.9950000  0  5 13 12 24  2  6
  18766207.007   -26126469.173 7 -18414000.030 9
  21901936.819    -7132110.401 5  -5424873.104 9
  22661411.249    -3640179.049 5  -1516780.974 9
  20667890.491   -17977149.519 7 -13894514.540 9
  20164968.038   -23492997.907 6 -18250158.217 9
 92  4 23  0  3 59.9950000  0  5 13 12 24  2  6
  18761459.007   -26151411.106 8 -18433435.271 9
  21880944.335    -7242403.835 5  -5510815.967 9
  22637534.358    -3765599.264 5  -1614510.551 9
  20674233.687   -17943846.559 7 -13868564.257 9
  20175404.007   -23438177.302 6 -18207440.969 9
 92  4 23  0  4 29.9950000  0  5 13 12 24  2  6
  18756813.015   -26175818.772 8 -18452454.205 9
  21859976.483    -7352586.426 5  -5596672.472 9
  22613671.319    -3890986.344 5  -1712214.328 9
  20680609.804   -17910340.890 7 -13842456.018 9
  20185915.937   -23382908.489 6 -18164374.467 9
 92  4 23  0  4 59.9950000  0  5 13 12 24  2  6
  18752269.257   -26199699.837 8 -18471062.797 9
  21839026.765    -7462662.424 5  -5682445.910 9
  22589818.460    -4016339.656 5  -1809891.802 9
  20687021.562   -17876632.452 7 -13816189.769 9
  20196520.023   -23327198.161 6 -18120963.940 9
 92  4 23  0  5 29.9950000  0  5 13 12 24  2  6
  18747826.437   -26223048.129 8 -18489256.237 9
  21818104.897    -7572622.418 5  -5768128.935 9
  22565969.093    -4141646.452 5  -1907533.039 9
  20693476.913   -17842713.984 7 -13789759.861 9
  20207200.913   -23271040.509 6 -18077204.853 9
 92  4 23  0  5 59.9950000  0  5 13 12 24  2  6
  18743485.687   -26245865.509 8 -18507035.995 9
  21797204.523    -7682464.258 5  -5853719.906 9
  22542132.421    -4266891.133 5  -2005125.883 9
  20699974.273   -17808586.901 7 -13763167.414 9
  20217980.304   -23214437.068 6 -18033098.374 9
 92  4 23  0  6 29.9950000  0  5 13 12 24  2  6
  18739245.663   -26268143.055 8 -18524395.090 9
  21776329.483    -7792175.709 6  -5939209.272 9
  22518316.562    -4392063.690 5  -2102662.569 9
  20706506.663   -17774235.595 6 -13736400.227 9
  20228832.007   -23157379.157 6 -17988637.790 9
 92  4 23  0  6 59.9950000  0  5 13 12 24  2  6
  18735107.546   -26289891.545 8 -18541341.941 9
  21755475.069    -7901764.030 6  -6024602.717 9
  22494512.976    -4517193.529 5  -2200165.956 9
  20713088.257   -17739671.401 7 -13709467.166 9
  20239778.757   -23099877.654 6 -17943831.538 9
 92  4 23  0  7 29.9950000  0  5 13 12 24  2  6
  18731068.015   -26311111.309 7 -18557876.791 9
  21734648.648    -8011225.528 6  -6109897.344 9
  22470713.429    -4642289.354 5  -2297642.843 9
  20719707.374   -17704899.243 7 -13682372.063 9
  20250803.827   -23041932.404 6 -17898679.503 9
 92  4 23  0  7 59.9950000  0  5 13 12 24  2  6
  18727133.663   -26331789.505 8 -18573989.651 9
  21713841.569    -8120544.532 6  -6195080.934 9
  22446905.429    -4767341.430 5  -2395085.636 9
  20726359.491   -17669911.356 6 -13655108.854 9
  20261919.671   -22983531.244 6 -17853172.229 9
 92  4 23  0  8 29.9950000  0  5 13 12 24  2  6
  18723300.999   -26351934.279 8 -18589686.850 9
  21693063.046    -8229725.144 6  -6280156.677 9
  22423115.202    -4892353.867 5  -2492497.539 9
  20733051.921   -17634716.231 6 -13627684.161 9
  20273117.999   -22924682.058 6 -17807315.824 9
 92  4 23  0  8 59.9950000  0  5 13 12 24  2  6
  18719568.171   -26371551.077 8 -18604972.652 9
  21672313.132    -8338769.083 6  -6365125.901 9
  22399338.390    -5017313.967 5  -2589868.657 9
  20739798.015   -17599320.016 7 -13600102.770 9
  20284399.077   -22865390.154 6 -17761114.442 9
 92  4 23  0  9 29.9950000  0  5 13 12 24  2  6
  18715935.148   -26390643.267 7 -18619849.660 9
  21651602.093    -8447676.000 6  -6449988.367 9
  22375575.507    -5142204.431 5  -2687185.533 9
  20746566.015   -17563730.111 7 -13572370.468 9
  20295770.288   -22805659.020 6 -17714570.823 9
 92  4 23  0  9 59.9950000  0  5 13 12 24  2  6
  18712400.890   -26409211.950 8 -18634318.739 9
  21630891.530    -8556442.958 6  -6534741.797 9
  22351823.718    -5267011.063 5  -2784437.084 9
  20753374.812   -17527943.994 6 -13544485.252 9
  20307213.897   -22745489.317 6 -17667685.458 9
 92  4 23  0 10 29.9950000  0  5 13 12 24  2  6
  18708967.491   -26427256.478 8 -18648379.389 9
  21610220.530    -8665066.022 6  -6619383.089 9
  22328092.499    -5391723.410 5  -2881615.154 9
  20760222.796   -17491950.428 6 -13516438.407 9
  20318751.601   -22684880.843 6 -17620458.191 9
 92  4 23  0 10 59.9950000  0  5 13 12 24  2  6
  18705633.351   -26444775.753 7 -18662030.745 9
  21589581.132    -8773539.912 6  -6703908.136 9
  22304370.187    -5516349.658 5  -2978726.127 9
  20767116.085   -17455738.597 6 -13488221.487 9
  20330367.210   -22623832.088 6 -17572887.848 9
 92  4 23  0 11 29.9950000  0  5 13 12 24  2  6
  18702393.968   -26461786.499 7 -18675285.848 9
  21568967.546    -8881877.647 6  -6788327.079 9
  22280664.741    -5640921.445 5  -3075794.667 9
  20774049.890   -17419322.235 7 -13459845.186 9
  20342062.319   -22562359.943 6 -17524987.596 9
 92  4 23  0 11 59.9950000  0  5 13 12 24  2  6
  18699256.366   -26478277.387 7 -18688135.899 9
  21548380.624    -8990063.853 6  -6872627.984 9
  22256970.937    -5765432.707 5  -3172816.079 9
  20781018.929   -17382689.209 6 -13431300.089 9
  20353847.390   -22500452.735 6 -17476748.363 9
 92  4 23  0 12 29.9950000  0  5 13 12 24  2  6
  18696218.030   -26494254.866 8 -18700585.823 9
  21527817.687    -9098101.295 6  -6956812.901 9
  22233291.655    -5889899.128 5  -3269802.493 9
  20788025.171   -17345837.135 6 -13402584.238 9
  20365710.155   -22438117.041 6 -17428175.192 9
 92  4 23  0 12 59.9950000  0  5 13 12 24  2  6
  18693278.702   -26509701.060 7 -18712621.796 9
  21507292.523    -9205968.352 6  -7040865.089 9
  22209617.171    -6014297.710 5  -3366736.060 9
  20795086.905   -17308745.976 6 -13373682.113 9
  20377655.648   -22375335.292 6 -17379254.458 9
 92  4 23  0 13 29.9950000  0  5 13 12 24  2  6
  18690436.663   -26524634.143 7 -18724257.944 9
  21486795.210    -9313678.830 6  -7124795.253 9
  22185953.710    -6138620.117 5  -3463610.272 9
  20802187.976   -17271439.500 6 -13344612.222 9
  20389682.171   -22312125.281 6 -17330000.042 9
 92  4 23  0 13 59.9950000  0  5 13 12 24  2  6
  18687694.921   -26539045.407 8 -18735487.477 9
  21466329.437    -9421220.433 6  -7208593.844 9
  22162327.210    -6262835.935 5  -3560401.432 9
  20809328.468   -17233907.345 6 -13315366.467 9
  20401795.827   -22248478.159 6 -17280405.016 9
 92  4 23  0 14 29.9940000  0  5 13 12 24  2  6
  18685050.174   -26552940.029 7 -18746314.443 9
  21445900.541    -9528590.364 6  -7292258.656 9
  22138705.111    -6386943.197 5  -3657108.040 9
  20816513.315   -17196148.040 6 -13285943.722 9
  20413991.479   -22184401.247 6 -17230475.081 9
 92  4 23  0 14 59.9940000  0  5 13 12 24  2  6
  18682502.018   -26566331.323 8 -18756749.191 9
  21425498.697    -9635804.688 6  -7375802.202 9
  22115105.197    -6510948.021 5  -3753734.785 9
  20823737.721   -17158184.442 6 -13256361.785 9
  20426269.588   -22119902.886 6 -17180216.743 9
 92  4 23  0 15 29.9940000  0  5 13 12 24  2  6
  18680051.588   -26579205.201 8 -18766780.775 9
  21405130.119    -9742842.669 6  -7459208.340 9
  22091527.322    -6634836.914 5  -3850271.228 9
  20831004.229   -17120017.307 6 -13226621.249 9
  20438619.330   -22054972.001 6 -17129621.383 9
 92  4 23  0 15 59.9940000  0  5 13 12 24  2  6
  18677702.049   -26591545.086 8 -18776396.244 9
  21384798.064    -9849683.286 6  -7542460.685 9
  22067974.260    -6758609.342 5  -3946716.920 9
  20838308.002   -17081619.531 6 -13196700.992 9
  20451056.721   -21989591.839 6 -17078675.944 9
 92  4 23  0 16 29.9940000  0  5 13 12 24  2  6
  18675454.690   -26603359.079 8 -18785601.932 9
  21364503.260    -9956330.885 6  -7625562.629 9
  22044443.424    -6882269.395 5  -4043075.058 9
  20845656.822   -17042992.913 6 -13166602.407 9
  20463584.736   -21923770.593 6 -17027386.791 9
 92  4 23  0 16 59.9940000  0  5 13 12 24  2  6
  18673304.150   -26614663.097 7 -18794410.255 9
  21344244.557   -10062797.109 6  -7708523.252 9
  22020936.322    -7005811.447 5  -4139341.236 9
  20853050.166   -17004152.290 6 -13136337.084 9
  20476192.275   -21857524.068 6 -16975766.255 9
 92  4 23  0 17 29.9940000  0  5 13 12 24  2  6
  18671249.447   -26625464.393 8 -18802826.838 9
  21324018.486   -10169084.700 6  -7791344.677 9
  21997443.947    -7129241.104 5  -4235519.826 9
  20860485.330   -16965092.062 6 -13105900.641 9
  20488872.338   -21790858.976 6 -16923819.568 9
 92  4 23  0 17 59.9940000  0  5 13 12 24  2  6
  18669289.815   -26635751.910 8 -18810843.056 9
  21303829.666   -10275178.274 6  -7874014.922 9
  21973983.979    -7252537.399 5  -4331594.493 9
  20867962.729   -16925784.746 6 -13075271.651 9
  20501652.150   -21723764.083 6 -16871537.960 9
 92  4 23  0 18 29.9940000  0  5 13 12 24  2  6
  18667429.377   -26645538.270 8 -18818468.781 9
  21283671.877   -10381086.297 6  -7956540.580 9
  21950542.658    -7375707.260 5  -4427570.662 9
  20875483.205   -16886252.677 6 -13044467.531 9
  20514492.057   -21656251.981 6 -16818931.267 9
 92  4 23  0 18 59.9940000  0  5 13 12 24  2  6
  18665663.721   -26654813.879 8 -18825696.503 9
  21263557.049   -10486795.830 6  -8038911.577 9
  21927122.541    -7498751.270 5  -4523448.774 9
  20883053.369   -16846489.241 6 -13013483.133 9
  20527419.627   -21588313.773 6 -16765992.537 9
 92  4 23  0 19 29.9940000  0  5 13 12 24  2  6
  18663994.627   -26663585.539 8 -18832531.549 9
  21243481.190   -10592308.836 6  -8121129.426 9
  21903732.150    -7621694.244 5  -4619248.140 9
  20890664.190   -16806498.169 6 -12982321.352 9
  20540430.658   -21519955.834 6 -16712726.748 9
 92  4 23  0 19 59.9940000  0  5 13 12 24  2  6
  18662422.400   -26671850.718 8 -18838971.930 9
  21223440.471   -10697618.631 6  -8203188.941 9
  21880349.510    -7744534.376 5  -4714967.393 9
  20898325.432   -16766276.607 6 -12950979.978 9
  20553513.057   -21451175.544 6 -16659131.857 9
 92  4 23  0 20 29.9940000  0  5 13 12 24  2  6
  18660945.104   -26679621.432 8 -18845027.005 9
  21203436.885   -10802732.653 6  -8285095.926 9
  21857000.986    -7867269.319 5  -4810604.684 9
  20906011.393   -16725843.452 6 -12919473.716 9
  20566686.182   -21381984.654 6 -16605217.014 9
 92  4 23  0 20 59.9940000  0  5 13 12 24  2  6
  18659558.525   -26686890.459 7 -18850691.161 9
  21183475.486   -10907639.613 6  -8366841.541 9
  21833669.565    -7989875.521 5  -4906141.652 9
  20913750.447   -16685175.326 6 -12887784.364 9
  20579933.033   -21312375.920 6 -16550976.594 9
 92  4 23  0 21 29.9940000  0  5 13 12 24  2  6
  18658269.744   -26693672.764 8 -18855976.063 9
  21163548.760   -11012350.358 6  -8448434.272 9
  21810361.424    -8112351.096 5  -5001576.853 9
  20921534.408   -16644280.732 6 -12855918.546 9
  20593258.291   -21242364.553 6 -16496422.427 9
 92  4 23  0 21 59.9940000  0  5 13 12 24  2  6
  18657074.072   -26699955.286 7 -18860871.506 9
  21143663.643   -11116847.100 6  -8529860.262 9
  21787091.189    -8234660.678 5  -5096882.705 9
  20929359.674   -16603143.717 6 -12823863.830 9
  20606659.674   -21171937.116 6 -16441544.049 9
 92  4 23  0 22 29.9940000  0  5 13 12 24  2  6
  18655972.260   -26705746.042 7 -18865383.765 9
  21123819.596   -11221133.358 6  -8611122.228 9
  21763848.260    -8356800.369 5  -5192056.168 9
  20937235.369   -16561777.118 6 -12791630.222 9
  20620137.854   -21101101.393 6 -16386347.526 9
 92  4 23  0 22 59.9940000  0  5 13 12 24  2  6
  18654963.705   -26711046.778 8 -18869514.196 9
  21104017.190   -11325206.814 6  -8692218.376 9
  21740636.775    -8478786.966 5  -5287110.348 9
  20945151.432   -16520178.153 6 -12759215.532 9
  20633698.385   -21029859.156 6 -16330834.239 9
 92  4 23  0 23 29.9940000  0  5 13 12 24  2  6
  18654047.408   -26715861.639 8 -18873266.008 9
  21084248.721   -11429066.934 6  -8773148.286 9
  21717441.135    -8600626.984 5  -5382050.331 9
  20953105.471   -16478361.661 6 -12726631.358 9
  20647329.244   -20958214.433 6 -16275007.344 9
 92  4 23  0 23 59.9940000  0  5 13 12 24  2  6
  18653224.408   -26720185.893 8 -18876635.538 9
  21064529.549   -11532705.148 6  -8853905.307 9
  21694290.721    -8722324.173 5  -5476878.993 9
  20961103.166   -16436339.332 6 -12693886.793 9
  20661036.111   -20886163.051 6 -16218863.564 9
 92  4 23  0 24 29.9940000  0  5 13 12 24  2  6
  18652493.197   -26724024.017 8 -18879626.274 9
  21044848.010   -11636121.288 6  -8934489.251 9
  21671154.830    -8843886.855 5  -5571602.842 9
  20969137.260   -16394112.046 6 -12660982.503 9
  20674821.682   -20813709.042 6 -16162406.048 9
 92  4 23  0 24 59.9940000  0  5 13 12 24  2  6
  18651856.322   -26727377.592 8 -18882239.425 9
  21025211.275   -11739311.921 6  -9014897.484 9
  21648054.244    -8965308.323 5  -5666216.675 9
  20977211.650   -16351667.295 6 -12627908.777 9
  20688682.541   -20740853.638 6 -16105635.751 9
 92  4 23  0 25 29.9940000  0  5 13 12 24  2  6
  18651308.088   -26730258.942 8 -18884484.618 9
  21005615.666   -11842285.841 6  -9095136.843 9
  21624966.533    -9086581.072 5  -5760714.605 9
  20985335.174   -16309017.706 6 -12594675.420 9
  20702620.494   -20667609.778 6 -16048562.769 9
 92  4 23  0 25 59.9940000  0  5 13 12 24  2  6
  18650848.244   -26732663.566 8 -18886358.331 9
  20986064.697   -11945033.482 6  -9175199.901 9
  21601927.143    -9207690.930 5  -5855085.623 9
  20993488.307   -16266151.871 6 -12561273.581 9
  20716634.018   -20593972.474 6 -15991183.208 9
 92  4 23  0 26 29.9940000  0  5 13 12 24  2  6
  18650483.416   -26734589.193 8 -18887858.796 9
  20966557.572   -12047548.059 6  -9255081.324 9
  21578916.549    -9328616.740 5  -5949313.230 9
  21001685.783   -16223048.101 6 -12527686.320 9
  20730728.768   -20519939.316 6 -15933495.190 9
 92  4 23  0 26 59.9940000  0  5 13 12 24  2  6
  18650209.291   -26736038.269 8 -18888987.936 9
  20947091.690   -12149827.615 6  -9334779.624 9
  21555938.182    -9449351.603 5  -6043392.034 9
  21009940.463   -16179712.626 6 -12493918.522 9
  20744892.572   -20445513.089 6 -15875500.889 9
 92  4 23  0 27 29.9940000  0  5 13 12 24  2  6
  18650018.932   -26737020.914 8 -18889753.613 9
  20927673.525   -12251877.683 6  -9414299.087 9
  21532993.674    -9569917.592 5  -6137339.251 9
  21018222.955   -16136164.202 6 -12459984.779 9
  20759126.158   -20370703.404 6 -15817207.802 9
 92  4 23  0 27 59.9940000  0  5 13 12 24  2  6
  18649924.604   -26737525.263 8 -18890146.609 9
  20908300.619   -12353681.475 6  -9493626.665 9
  21510087.088    -9690306.885 6  -6231148.785 9
  21026557.424   -16092391.961 6 -12425876.645 9
  20773436.736   -20295498.223 6 -15758606.525 9
 92  4 23  0 28 29.9940000  0  5 13 12 24  2  6
  18649919.940   -26737558.978 8 -18890172.877 9
  20888976.775   -12455242.447 6  -9572765.012 9
  21487212.744    -9810534.901 6  -6324832.659 9
  21034925.205   -16048398.079 6 -12391595.791 9
  20787823.877   -20219905.495 6 -15699703.273 9
 92  4 23  0 28 59.9940000  0  5 13 12 24  2  6
  18650002.002   -26737117.159 8 -18889828.580 9
  20869695.815   -12556550.721 6  -9651706.453 9
  21464357.119    -9930613.508 6  -6418400.103 9
  21043344.940   -16004176.602 6 -12357137.608 9
  20802284.408   -20143919.855 6 -15640493.855 9
 92  4 23  0 29 29.9940000  0  5 13 12 24  2  6
  18650178.072   -26736205.443 8 -18889118.144 9
  20850464.697   -12657607.170 6  -9730451.669 9
  21441531.229   -10050558.711 6  -6511863.587 9
  21051795.861   -15959731.213 6 -12322504.937 9
  20816820.650   -20067546.855 6 -15580982.601 9
 92  4 23  0 29 59.9940000  0  5 13 12 24  2  6
  18650437.486   -26734835.431 7 -18888050.590 9
  20831282.330   -12758419.125 6  -9809006.374 9
  21418737.619   -10170370.133 6  -6605222.859 9
  21060302.689   -15915062.596 6 -12287698.334 9
  20831419.416   -19990798.449 6 -15521178.834 9
 92  4 23  0 30 29.9940000  0  5 13 12 24  2  6
  18650785.799   -26732997.789 7 -18886618.653 9
  20812148.619   -12858972.962 7  -9887359.941 9
  21395959.315   -10290032.207 6  -6698465.749 9
  21068846.283   -15870154.162 6 -12252704.861 9
  20846093.424   -19913665.577 6 -15461075.476 9
 92  4 23  0 30 59.9940000  0  5 13 12 24  2  6
  18651227.205   -26730678.161 7 -18884811.148 9
  20793065.471   -12959249.398 7  -9965497.346 9
  21373225.869   -10409511.271 6  -6791566.034 9
  21077442.315   -15825001.919 6 -12217521.401 9
  20860850.854   -19836133.350 6 -15400660.937 9
 92  4 23  0 31 29.9940000  0  5 13 12 24  2  6
  18651757.354   -26727892.835 7 -18882640.750 9
  20774032.580   -13059259.981 7 -10043427.612 9
  21350520.322   -10528799.290 6  -6884517.446 9
  21086073.533   -15779623.594 6 -12182161.784 9
  20875685.682   -19758218.062 6 -15339947.909 9
 92  4 23  0 31 59.9940000  0  5 13 12 24  2  6
  18652376.291   -26724639.999 7 -18880106.106 9
  20755053.682   -13158997.826 7 -10121145.393 9
  21327868.346   -10647868.483 6  -6977298.380 9
  21094749.760   -15734002.524 6 -12146613.046 9
  20890584.736   -19679917.650 6 -15278934.819 9
 92  4 23  0 32 29.9940000  0  5 13 12 24  2  6
  18653082.127   -26720926.015 7 -18877212.031 9
  20736127.596   -13258464.756 7 -10198651.974 9
  21305252.799   -10766702.624 6  -7069896.091 9
  21103483.854   -15688145.878 6 -12110880.672 9
  20905554.205   -19601238.449 6 -15217626.489 9
 92  4 23  0 32 59.9940000  0  5 13 12 24  2  6
  18653879.166   -26716741.784 8 -18873951.595 9
  20717250.908   -13357647.231 7 -10275936.980 9
  21282687.690   -10885276.701 6  -7162291.199 9
  21112250.854   -15642036.945 6 -12074951.756 9
  20920601.690   -19522171.594 6 -15156016.145 9
 92  4 23  0 33 29.9940000  0  5 13 12 24  2  6
  18654763.166   -26712098.527 8 -18870333.460 9
  20698431.502   -13456551.451 6 -10353005.138 9
  21260176.455   -11003594.644 6  -7254486.724 9
  21121079.088   -15595669.012 6 -12038821.026 9
  20935715.135   -19442728.026 6 -15094112.261 9
 92  4 23  0 33 59.9940000  0  5 13 12 24  2  6
  18655733.330   -26706997.653 7 -18866358.744 9
  20679662.814   -13555174.147 7 -10429853.929 9
  21237707.299   -11121647.284 6  -7346475.529 9
  21129949.674   -15549053.376 6 -12002497.275 9
  20950900.729   -19362909.361 6 -15031916.085 9
 92  4 23  0 34 29.9940000  0  5 13 12 24  2  6
  18656791.986   -26701434.151 7 -18862023.538 9
  20660952.041   -13653505.360 7 -10506475.597 9
  21215293.205   -11239433.219 6  -7438256.512 9
  21138866.947   -15502200.474 6 -11965988.651 9
  20966169.877   -19282710.026 6 -14969423.303 9
 92  4 23  0 34 59.9940000  0  5 13 12 24  2  6
  18657938.486   -26695419.223 8 -18857336.568 9
  20642294.479   -13751551.797 6 -10582875.352 9
  21192925.963   -11356982.589 6  -7529853.163 9
  21147822.955   -15455132.765 6 -11929312.631 9
  20981501.104   -19202141.824 6 -14906643.068 9
 92  4 23  0 35 29.9940000  0  5 13 12 24  2  6
  18659166.533   -26688949.937 7 -18852295.557 9
  20623691.885   -13849305.657 6 -10659047.138 9
  21170601.955   -11474307.273 6  -7621274.737 9
  21156826.783   -15407860.462 6 -11892477.205 9
  20996903.135   -19121201.540 6 -14843572.920 9
 92  4 23  0 35 59.9940000  0  5 13 12 24  2  6
  18660484.127   -26682030.087 7 -18846903.454 9
  20605144.900   -13946765.740 7 -10734989.984 9
  21148316.299   -11591421.039 6  -7712531.969 9
  21165853.565   -15360397.834 6 -11855493.464 9
  21012376.565   -19039892.544 6 -14780215.442 9
 92  4 23  0 36 29.9940000  0  5 13 12 24  2  6
  18661886.635   -26674663.441 7 -18841163.203 9
  20586656.182   -14043930.930 7 -10810703.061 9
  21126060.252   -11708341.786 6  -7803638.802 9
  21174922.213   -15312725.566 6 -11818346.370 9
  21027918.736   -18958218.679 6 -14716573.672 9
 92  4 23  0 36 59.9940000  0  5 13 12 24  2  6
  18663371.268   -26666857.747 8 -18835080.833 9
  20568219.619   -14140804.211 6 -10886188.682 9
  21103850.104   -11825078.742 6  -7894602.430 9
  21184028.815   -15264825.160 6 -11781021.498 9
  21043532.502   -18876187.851 6 -14652653.743 9
 92  4 23  0 37 29.9940000  0  5 13 12 24  2  6
  18664941.299   -26658609.749 7 -18828653.816 9
  20549843.057   -14237377.476 6 -10961440.523 9
  21081674.346   -11941615.075 6  -7985409.720 9
  21193201.440   -15216669.350 6 -11743497.625 9
  21059210.830   -18793796.921 6 -14588453.221 9
 92  4 23  0 37 59.9940000  0  5 13 12 24  2  6
  18666593.119   -26649927.904 8 -18821888.736 9
  20531521.830   -14333654.721 6 -11036461.692 9
  21059531.580   -12057949.363 6  -8076059.569 9
  21202412.518   -15168247.789 6 -11705766.662 9
  21074951.205   -18711054.203 6 -14523978.573 9
 92  4 23  0 38 29.9940000  0  5 13 12 24  2  6
  18668327.486   -26640816.531 7 -18814788.951 9
  20513258.986   -14429635.193 7 -11111251.602 9
  21037438.979   -12174070.415 6  -8166543.271 9
  21211681.385   -15119553.793 6 -11667823.424 9
  21090766.619   -18627964.006 6 -14459233.188 9
 92  4 23  0 38 59.9940000  0  5 13 12 24  2  6
  18670145.690   -26631261.547 7 -18807343.510 9
  20495055.158   -14525299.688 7 -11185795.317 9
  21015390.221   -12289948.981 6  -8256838.033 9
  21220998.174   -15070582.375 6 -11629664.005 9
  21106641.010   -18544512.246 5 -14394206.052 9
 92  4 23  0 39 29.9940000  0  5 13 12 24  2  6
  18672045.838   -26621278.794 8 -18799564.744 9
  20476908.197   -14620659.211 7 -11260101.382 9
  20993379.916   -12405591.804 6  -8346949.096 9
  21230358.252   -15021372.083 6 -11591318.442 9
  21122586.877   -18460714.429 5 -14328909.269 9
 92  4 23  0 39 59.9940000  0  5 13 12 24  2  6
  18674026.315   -26610857.194 7 -18791444.007 9
  20458824.229   -14715697.969 7 -11334157.508 9
  20971419.533   -12520986.474 6  -8436866.800 9
  21239775.674   -14971921.174 6 -11552785.393 9
  21138598.854   -18376559.757 5 -14263334.413 9
 92  4 23  0 40 29.9940000  0  5 13 12 24  2  6
  18676094.096   -26600009.718 8 -18782991.427 9
  20440796.861   -14810423.611 7 -11407969.625 9
  20949512.268   -12636133.674 6  -8526591.666 9
  21249224.268   -14922249.766 6 -11514080.541 9
  21154677.822   -18292060.953 5 -14197491.401 9
 92  4 23  0 40 59.9940000  0  5 13 12 24  2  6
  18678237.041   -26588739.809 7 -18774209.668 9
  20422832.346   -14904834.828 7 -11481536.747 9
  20927645.314   -12751041.235 6  -8616129.813 9
  21258722.408   -14872359.278 6 -11475204.951 9
  21170827.565   -18207221.474 5 -14131382.935 9
 92  4 23  0 41 29.9940000  0  5 13 12 24  2  6
  18680461.955   -26577051.240 7 -18765101.690 9
  20404927.041   -14998930.633 7 -11554858.112 9
  20905820.346   -12865713.562 6  -8705484.654 9
  21268249.221   -14822251.272 6 -11436159.883 9
  21187030.190   -18122045.260 5 -14065012.070 9
 92  4 23  0 41 59.9940000  0  5 13 12 24  2  6
  18682765.416   -26564941.370 7 -18755665.413 9
  20387079.924   -15092703.300 7 -11627927.662 9
  20884049.635   -12980131.935 6  -8794641.610 9
  21277832.494   -14771909.314 6 -11396932.507 9
  21203315.760   -18036529.351 5 -13998376.521 9
 92  4 23  0 42 29.9940000  0  5 13 12 24  2  6
  18685149.893   -26552410.090 7 -18745900.777 9
  20369299.572   -15186147.812 7 -11700741.524 9
  20862327.447   -13094280.207 6  -8883588.084 9
  21287466.252   -14721330.512 6 -11357520.576 9
  21219644.471   -17950673.930 5 -13931476.416 9
 92  4 23  0 42 59.9940000  0  5 13 12 24  2  6
  18687614.791   -26539462.653 8 -18735811.860 9
  20351580.510   -15279264.695 7 -11773300.087 9
  20840657.236   -13208162.824 6  -8972327.564 9
  21297131.893   -14670521.701 6 -11317929.404 9
  21236049.416   -17864484.240 5 -13864315.847 9
 92  4 23  0 43 29.9940000  0  5 13 12 24  2  6
  18690158.572   -26526094.504 7 -18725395.111 9
  20333924.190   -15372044.542 7 -11845596.022 9
  20819036.854   -13321766.201 6  -9060849.462 9
  21306843.033   -14619485.314 6 -11278160.910 9
  21252518.486   -17777955.777 5 -13796891.290 9
 92  4 23  0 43 59.9940000  0  5 13 12 24  2  6
  18692781.479   -26512317.079 8 -18714659.456 9
  20316330.658   -15464493.430 7 -11917634.063 9
  20797475.416   -13435097.182 6  -9149159.104 9
  21316593.479   -14568228.308 6 -11238220.508 9
  21269043.065   -17691099.856 5 -13729211.575 9
 92  4 23  0 44 29.9940000  0  5 13 12 24  2  6
  18695479.471   -26498130.811 7 -18703605.216 9
  20298803.893   -15556607.039 7 -11989410.864 9
  20775951.432   -13548178.120 6  -9237273.918 9
  21326385.838   -14516760.028 6 -11198115.473 9
  21285635.182   -17603916.978 5 -13661277.088 9
 92  4 23  0 44 59.9940000  0  5 13 12 24  2  6
  18698257.815   -26483531.005 7 -18692228.740 9
  20281340.611   -15648375.723 7 -12060918.883 9
  20754476.729   -13661016.399 6  -9325199.659 9
  21336231.502   -14465076.230 6 -11157842.495 9
  21302278.854   -17516402.516 5 -13593084.241 9
 92  4 23  0 45 29.9940000  0  5 13 12 24  2  6
  18701110.846   -26468533.296 7 -18680542.211 9
  20263939.018   -15739810.125 7 -12132166.423 9
  20733054.525   -13773620.703 6  -9412943.073 9
  21346105.861   -14413177.005 6 -11117401.661 9
  21318996.955   -17428572.180 5 -13524645.234 9
 92  4 23  0 45 59.9940000  0  5 13 12 24  2  6
  18704043.377   -26453137.834 8 -18668545.746 9
  20246604.174   -15830905.072 7 -12203149.447 9
  20711675.971   -13885975.818 6  -9500492.307 9
  21356026.291   -14361045.206 6 -11076779.595 9
  21335776.268   -17340425.728 5 -13455959.919 9
 92  4 23  0 46 29.9940000  0  5 13 12 24  2  6
  18707048.229   -26437333.668 7 -18656230.808 9
  20229339.252   -15921645.076 7 -12273855.895 9
  20690346.143   -13998048.884 6  -9587821.757 9
  21365993.830   -14308663.868 6 -11035963.097 9
  21352614.408   -17251952.612 5 -13387020.064 9
 92  4 23  0 46 59.9940000  0  5 13 12 24  2  6
  18710129.619   -26421135.341 7 -18643608.730 9
  20212137.721   -16012039.338 7 -12344292.929 9
  20669075.635   -14109821.302 6  -9674916.943 9
  21376002.072   -14256026.030 5 -10994946.727 9
  21369507.275   -17163167.190 5 -13317836.853 9
 92  4 23  0 47 29.9940000  0  5 13 12 24  2  6
  18713288.549   -26404538.180 7 -18630675.866 9
  20195004.572   -16102078.197 7 -12414453.029 9
  20647865.674   -14221276.038 6  -9761764.591 9
  21386077.377   -14203120.460 6 -10953721.734 9
  21386470.822   -17074064.676 5 -13248406.574 9
 92  4 23  0 47 59.9940000  0  5 13 12 24  2  6
  18716524.604   -26387540.656 7 -18617431.038 9
  20177938.635   -16191755.276 7 -12484331.214 9
  20626719.072   -14332404.896 6  -9848358.319 9
  21396183.596   -14149957.203 5 -10912295.951 9
  21403476.807   -16984643.862 5 -13178728.261 9
 92  4 23  0 48 29.9940000  0  5 13 12 24  2  6
  18719830.768   -26370150.604 7 -18603880.349 9
  20160940.541   -16281073.642 7 -12553929.902 9
  20605630.190   -14443229.771 6  -9934715.164 9
  21406356.815   -14096561.942 6 -10870689.381 9
  21420551.205   -16894912.815 5 -13108808.216 9
 92  4 23  0 48 59.9940000  0  5 13 12 24  2  6
  18723217.721   -26352359.143 7 -18590016.861 9
  20144014.979   -16370018.916 7 -12623237.863 9
  20584595.908   -14553760.306 6 -10020842.682 9
  21416551.041   -14042932.013 5 -10828899.960 9
  21437683.705   -16804862.108 5 -13038639.072 9
 92  4 23  0 49 29.9940000  0  5 13 12 24  2  6
  18726678.346   -26334169.023 7 -18575842.726 9
  20127160.736   -16458588.963 7 -12692253.423 9
  20563612.580   -14664011.661 6 -10106752.635 9
  21426811.565   -13989081.349 6 -10786938.542 9
  21454884.002   -16714494.615 5 -12968223.076 9
